[[{"header":{"parameterUnit":"m.s-1","parameterCategory":1,"la1":31.0,"la2":29.5877,"lo1":-88.7671,"lo2":-86.6584,"dy":0.0162,"dx":0.0185,"nx":115,"ny":88,"refTime":"2024-02-21T06:00:00:Z","depth":0,"parameterNumber":2,"parameterNumberName":"U-component_of_WINDS"},"data":[0.0,0.0,0.0,0.0,0.0,0.0,0.0,0.0,0.0,0.0,0.0,0.0,0.0,0.0,0.0,0.0,0.0,0.0,0.0,0.0,0.0,0.0,0.0,0.0,0.0,0.0,0.0,0.0,0.0,0.0,0.0,0.0,0.0,0.0,0.0,0.0,0.0,0.0,0.0,0.0,0.0,0.0,0.0,0.0,0.0,0.0,0.0,0.0,0.0,0.0,0.0,0.0,0.0,0.0,0.0,0.0,0.0,0.0,0.0,0.0,0.0,0.0,0.0,0.0,0.0,0.0,0.0,0.0,0.0,0.0,0.0,0.0,0.0,0.0,0.0,0.0,0.0,0.0,0.0,0.0,0.0,0.0,0.0,0.0,0.0,0.0,0.0,0.0,0.0,0.0,0.0,0.0,0.0,0.0,0.0,0.0,0.0,0.0,0.0,0.0,0.0,0.0,0.0,0.0,0.0,0.0,0.0,0.0,0.0,0.0,0.0,0.0,0.0,0.0,0.0,0.0,0.0,0.0,0.0,0.0,0.0,0.0,0.0,0.0,0.0,0.0,0.0,0.0,0.0,0.0,0.0,0.0,0.0,0.0,0.0,0.0,0.0,0.0,0.0,0.0,0.0,0.0,0.0,0.0,0.0,0.0,0.0,0.0,0.0,0.0,0.0,0.0,0.0,0.0,0.0,0.0,0.0,0.0,0.0,0.0,0.0,0.0,0.0,0.0,0.0,0.0,0.0,0.0,0.0,0.0,0.0,0.0,0.0,0.0,0.0,0.0,0.0,0.0,0.0,0.0,0.0,0.0,0.0,0.0,0.0,0.0,0.0,0.0,0.0,0.0,0.0,0.0,0.0,0.0,0.0,0.0,0.0,0.0,0.0,0.0,0.0,0.0,0.0,0.0,0.0,0.0,0.0,0.0,0.0,0.0,0.0,0.0,0.0,0.0,0.0,0.0,0.0,0.0,0.0,0.0,0.0,0.0,0.0,0.0,0.0,0.0,0.0,0.0,0.0,0.0,0.0,0.0,0.0,0.0,0.0,0.0,0.0,0.0,0.0,0.0,0.0,0.0,0.0,0.0,0.0,0.0,0.0,0.0,0.0,0.0,0.0,0.0,0.0,0.0,0.0,0.0,0.0,0.0,0.0,0.0,0.0,0.0,0.0,0.0,0.0,0.0,0.0,0.0,0.0,0.0,0.0,0.0,0.0,0.0,0.0,0.0,0.0,0.0,0.0,0.0,0.0,0.0,0.0,0.0,0.0,0.0,0.0,0.0,0.0,0.0,0.0,0.0,0.0,0.0,0.0,0.0,0.0,0.0,0.0,0.0,0.0,0.0,0.0,0.0,0.0,0.0,0.0,0.0,0.0,0.0,0.0,0.0,0.0,0.0,0.0,0.0,0.0,0.0,0.0,0.0,0.0,0.0,0.0,0.0,0.0,0.0,0.0,0.0,0.0,0.0,0.0,0.0,0.0,0.0,0.0,0.0,0.0,0.0,0.0,0.0,0.0,0.0,0.0,0.0,0.0,0.0,0.0,0.0,0.0,0.0,0.0,0.0,0.0,0.0,0.0,0.0,0.0,0.0,0.0,0.0,0.0,0.0,0.0,0.0,0.0,0.0,0.0,0.0,0.0,0.0,0.0,0.0,0.0,0.0,0.0,0.0,0.0,0.0,0.0,0.0,0.0,0.0,0.0,0.0,0.0,0.0,0.0,0.0,0.0,0.0,0.0,0.0,0.0,0.0,0.0,0.0,0.0,0.0,0.0,0.0,0.0,0.0,0.0,0.0,0.0,0.0,0.0,0.0,0.0,0.0,0.0,0.0,0.0,0.0,0.0,0.0,0.0,0.0,0.0,0.0,0.0,0.0,0.0,0.0,0.0,0.0,0.0,0.0,0.0,0.0,0.0,0.0,0.0,0.0,0.0,0.0,0.0,0.0,0.0,0.0,0.0,0.0,0.0,0.0,0.0,0.0,0.0,0.0,0.0,0.0,0.0,0.0,0.0,0.0,0.0,0.0,0.0,0.0,0.0,0.0,0.0,0.0,0.0,0.0,0.0,0.0,0.0,0.0,0.0,0.0,0.0,0.0,0.0,0.0,0.0,0.0,0.0,0.0,0.0,0.0,0.0,0.0,0.0,0.0,0.0,0.0,0.0,0.0,0.0,0.0,0.0,0.0,0.0,0.0,0.0,0.0,0.0,0.0,0.0,0.0,0.0,0.0,0.0,0.0,0.0,0.0,0.0,0.0,0.0,0.0,0.0,0.0,0.0,0.0,0.0,0.0,0.0,0.0,0.0,0.0,0.0,0.0,0.0,0.0,0.0,0.0,0.0,0.0,0.0,0.0,0.0,0.0,0.0,0.0,0.0,0.0,0.0,0.0,0.0,0.0,0.0,0.0,0.0,0.0,0.0,0.0,0.0,0.0,0.0,0.0,0.0,0.0,0.0,0.0,0.0,0.0,0.0,0.0,0.0,0.0,0.0,0.0,0.0,0.0,0.0,0.0,0.0,0.0,0.0,0.0,0.0,0.0,0.0,0.0,0.0,0.0,0.0,0.0,0.0,0.0,0.0,0.0,0.0,0.0,0.0,0.0,0.0,0.0,0.0,0.0,0.0,0.0,0.0,0.0,0.0,0.0,0.0,0.0,0.0,0.0,0.0,0.0,0.0,0.0,0.0,0.0,0.0,0.0,0.0,0.0,0.0,0.0,0.0,0.0,0.0,0.0,0.0,0.0,0.0,0.0,0.0,0.0,0.0,0.0,0.0,0.0,0.0,0.0,0.0,0.0,0.0,0.0,0.0,0.0,0.0,0.0,0.0,0.0,0.0,0.0,0.0,0.0,0.0,0.0,0.0,0.0,0.0,0.0,0.0,0.0,0.0,0.0,0.0,0.0,0.0,0.0,0.0,0.0,0.0,0.0,0.0,0.0,0.0,0.0,0.0,0.0,0.0,0.0,0.0,0.0,0.0,0.0,0.0,0.0,0.0,0.0,0.0,0.0,0.0,0.0,0.0,0.0,0.0,0.0,0.0,0.0,0.0,0.0,0.0,0.0,0.0,0.0,0.0,0.0,0.0,0.0,0.0,0.0,0.0,0.0,0.0,0.0,0.0,0.0,0.0,0.0,0.0,0.0,0.0,0.0,0.0,0.0,0.0,0.0,0.0,0.0,0.0,0.0,0.0,0.0,0.0,0.0,0.0,0.0,0.0,0.0,0.0,0.0,0.0,0.0,0.0,0.0,0.0,0.0,0.0,0.0,0.0,0.0,0.0,0.0,0.0,0.0,0.0,0.0,0.0,0.0,0.0,0.0,0.0,0.0,0.0,0.0,0.0,0.0,0.0,0.0,0.0,0.0,0.0,0.0,0.0,0.0,0.0,0.0,0.0,0.0,0.0,0.0,0.0,0.0,0.0,0.0,0.0,0.0,0.0,0.0,0.0,0.0,0.0,0.0,0.0,0.0,0.0,0.0,0.0,0.0,0.0,0.0,0.0,0.0,0.0,0.0,0.0,0.0,0.0,0.0,0.0,0.0,0.0,0.0,0.0,0.0,0.0,0.0,0.0,0.0,0.0,0.0,0.0,0.0,0.0,0.0,0.0,0.0,0.0,0.0,0.0,0.0,0.0,0.0,0.0,0.0,0.0,0.0,0.0,0.0,0.0,0.0,0.0,0.0,0.0,0.0,0.0,0.0,0.0,0.0,0.0,0.0,0.0,0.0,0.0,0.0,0.0,0.0,0.0,0.0,0.0,0.0,0.0,0.0,0.0,0.0,0.0,0.0,0.0,0.0,0.0,0.0,0.0,0.0,0.0,0.0,0.0,0.0,0.0,0.0,0.0,0.0,0.0,0.0,0.0,0.0,0.0,0.0,0.0,0.0,0.0,0.0,0.0,0.0,0.0,0.0,0.0,0.0,0.0,0.0,0.0,0.0,0.0,0.0,0.0,0.0,0.0,0.0,0.0,0.0,0.0,0.0,0.0,0.0,0.0,0.0,0.0,0.0,0.0,0.0,0.0,0.0,0.0,0.0,0.0,0.0,0.0,0.0,0.0,0.0,0.0,0.0,0.0,0.0,0.0,0.0,0.0,0.0,0.0,0.0,0.0,0.0,0.0,0.0,0.0,0.0,0.0,0.0,0.0,0.0,0.0,0.0,0.0,0.0,0.0,0.0,0.0,0.0,0.0,0.0,0.0,0.0,0.0,0.0,0.0,0.0,0.0,0.0,0.0,0.0,0.0,0.0,0.0,0.0,0.0,0.0,0.0,0.0,0.0,0.0,-0.1858,0.0,0.0,0.0,0.0,0.0,0.0,0.0,0.0,0.0,0.0,0.0,0.0,0.0,0.0,0.0,0.0,0.0,0.0,0.0,0.0,0.0,0.0,0.0,0.0,0.0,0.0,0.0,0.0,0.0,0.0,0.0,0.0,0.0,0.0,0.0,0.0,0.0,0.0,0.0,0.0,0.0,0.0,0.0,0.0,0.0,0.0,0.0,0.0,0.0,0.0,0.0,0.0,0.0,0.0,0.0,0.0,0.0,0.0,0.0,0.0,0.0,0.0,0.0,0.0,0.0,0.0,0.0,0.0,0.0,0.0,0.0,0.0,0.0,0.0,0.0,0.0,0.0,0.0,0.0,0.0,0.0,0.0,0.0,0.0,0.0,0.0,0.0,0.0,0.0,0.0,0.0,0.0,0.0,0.0,0.0,0.0,0.0,0.0,0.0,0.0,0.0,0.0,0.0,0.0,0.0,0.0,0.0,0.0,0.0,0.0,-0.3121,-0.2709,-0.226,-0.1969,-0.1837,0.0,0.0,0.0,0.0,0.0,0.0,0.0,0.0,0.0,0.0,0.0,0.0,0.0,0.0,0.0,0.0,0.0,0.0,0.0,0.0,0.0,0.0,0.0,0.0,0.0,0.0,0.0,0.0,0.0,0.0,0.0,0.0,0.0,0.0,0.0,0.0,0.0,0.0,0.0,0.0,0.0,0.0,0.0,0.0,0.0,0.0,0.0,0.0,0.0,0.0,0.0,0.0,0.0,0.0,0.0,0.0,0.0,0.0,0.0,0.0,0.0,0.0,0.0,0.0,0.0,0.0,0.0,0.0,0.0,0.0,0.0,0.0,0.0,0.0,0.0,0.0,0.0,0.0,0.0,0.0,0.0,0.0,0.0,0.0,0.0,0.0,0.0,0.0,0.0,0.0,0.0,0.0,0.0,0.0,0.0,0.0,0.0,0.0,0.0,0.0,0.0,0.0,0.0,0.0,0.0,0.0,0.0,0.0,0.0,0.0,0.0,0.0,-0.1936,-0.1794,-0.2011,0.0,0.0,0.0,0.0,0.0,0.0,0.0,0.0,0.0,0.0,0.0,0.0,0.0,0.0,0.0,0.0,0.0,0.0,0.0,0.0,0.0,0.0,0.0,0.0,0.0,0.0,0.0,0.0,0.0,0.0,0.0,0.0,0.0,0.0,0.0,0.0,0.0,0.0,0.0,0.0,0.0,0.0,0.0,0.0,0.0,0.0,0.0,0.0,0.0,0.0,0.0,0.0,0.0,0.0,0.0,0.0,0.0,0.0,0.0,0.0,0.0,0.0,0.0,0.0,0.0,0.0,0.0,0.0,0.0,0.0,0.0,0.0,0.0,0.0,0.0,0.0,0.0,0.0,0.0,0.0,0.0,0.0,0.0,0.0,0.0,0.0,0.0,0.0,0.0,0.0,0.0,0.0,0.0,0.0,0.0,0.0,0.0,0.0,0.0,0.0,0.0,0.0,0.0,0.0,0.0,0.0,0.0,0.0,0.0,0.0,-0.2015,-0.1712,-0.1532,0.0,-0.2244,0.0,0.0,0.0,0.0,0.0,0.0,0.0,0.0,0.0,0.0,0.0,0.0,0.0,0.0,0.0,0.0,0.0,0.0,0.0,0.0,0.0,0.0,0.0,0.0,0.0,0.0,0.0,0.0,0.0,0.0,0.0,0.0,0.0,0.0,0.0,0.0,0.0,0.0,0.0,0.0,0.0,0.0,0.0,0.0,0.0,0.0,0.0,0.0,0.0,0.0,0.0,0.0,0.0,0.0,0.0,0.0,0.0,0.0,0.0,0.0,0.0,0.0,0.0,0.0,0.0,0.0,0.0,0.0,0.0,0.0,0.0,0.0,0.0,0.0,0.0,0.0,0.0,0.0,0.0,0.0,0.0,0.0,0.0,0.0,0.0,0.0,0.0,0.0,0.0,0.0,0.0,0.0,0.0,0.0,0.0,0.0,0.0,0.0,0.0,0.0,0.0,0.0,0.0,0.0,0.0,0.0,0.0,0.0,0.0,0.0,-0.1189,-0.194,-0.1739,-0.1869,0.0,0.0,0.0,0.0,0.0,0.0,0.0,0.0,0.0,0.0,0.0,0.0,0.0,0.0,0.0,0.0,0.0,0.0,0.0,0.0,0.0,0.0,0.0,0.0,0.0,0.0,0.0,0.0,0.0,0.0,0.0,0.0,0.0,0.0,0.0,0.0,0.0,0.0,0.0,0.0,0.0,0.0,0.0,0.0,0.0,0.0,0.0,0.0,0.0,0.0,0.0,0.0,0.0,0.0,0.0,0.0,0.0,0.0,0.0,0.0,0.0,0.0,0.0,0.0,0.0,0.0,0.0,0.0,0.0,0.0,0.0,0.0,0.0,0.0,0.0,0.0,0.0,0.0,0.0,0.0,0.0,0.0,0.0,0.0,0.0,0.0,0.0,0.0,0.0,0.0,0.0,0.0,0.0,0.0,0.0,0.0,0.0,0.0,0.0,0.0,0.0,0.0,0.0,0.0,0.0,0.0,0.0,0.0,0.0,0.0,0.0725,-0.013,-0.1838,-0.1902,-0.1966,-0.2084,0.0,0.0,0.0,0.0,0.0,0.0,0.0,0.0,0.0,0.0,0.0,0.0,0.0,0.0,0.0,0.0,0.0,0.0,0.0,0.0,0.0,0.0,0.0,0.0,0.0,0.0,0.0,0.0,0.0,0.0,0.0,0.0,0.0,0.0,0.0,0.0,0.0,0.0,0.0,0.0,0.0,0.0,0.0,0.0,0.0,0.0,0.0,0.0,0.0,0.0,0.0,0.0,0.0,0.0,0.0,0.0,0.0,0.0,0.0,0.0,0.0,0.0,0.0,0.0,0.0,0.0,0.0,0.0,0.0,0.0,0.0,0.0,0.0,0.0,0.0,0.0,0.0,0.0,0.0,0.0,0.0,0.0,0.0,0.0,0.0,0.0,0.0,0.0,0.0,0.0,0.0,0.0,0.0,0.0,0.0,0.0,0.0,0.0,0.0,0.0,0.0,0.0,0.0,0.0,0.0,0.0,0.0,0.0,0.2464,0.2464,0.1251,-0.1243,-0.1811,-0.1856,0.0,0.0,0.0,0.0,0.0,0.0,0.0,0.0,0.0,0.0,0.0,0.0,0.0,0.0,0.0,0.0,0.0,0.0,0.0,0.0,0.0,0.0,0.0,0.0,0.0,0.0,0.0,0.0,0.0,0.0,0.0,0.0,0.0,0.0,0.0,0.0,0.0,0.0,0.0,0.0,0.0,0.0,0.0,0.0,0.0,0.0,0.0,0.0,0.0,0.0,0.0,0.0,0.0,0.0,0.0,0.0,0.0,0.0,0.0,0.0,0.0,0.0,0.0,0.0,0.0,0.0,0.0,0.0,0.0,0.0,0.0,0.0,0.0,0.0,0.0,0.0,0.0,0.0,0.0,0.0,0.0,0.0,0.0,0.0,0.0,0.0,0.0,0.0,0.0,0.0,0.0,0.0,0.0,0.0,0.0,0.0,0.0,0.0,0.0,0.0,0.0,0.0,0.0,0.0,0.0,0.0,0.0,0.0,0.0,0.2819,0.2699,0.1362,-0.1097,-0.1462,-0.1663,0.0,0.0,0.0,0.0,0.0,0.0,0.0,0.0,0.0,0.0,0.0,0.0,0.0,0.0,0.0,0.0,0.0,0.0,0.0,0.0,0.0,0.0,0.0,0.0,0.0,0.0,0.0,0.0,0.0,0.0,0.0,0.0,0.0,0.0,0.0,0.0,0.0,0.0,0.0,0.0,0.0,0.0,0.0,0.0,0.0,0.0,0.0,0.0,0.0,0.0,0.0,0.0,0.0,0.0,0.0,0.0,0.0,0.0,0.0,0.0,0.0,0.0,0.0,0.0,0.0,0.0,0.0,0.0,0.0,0.0,0.0,0.0,0.0,0.0,0.0,0.0,0.0,0.0,0.0,0.0,0.0,0.0,0.0,0.0,0.0,0.0,0.0,0.0,0.0,0.0,0.0,0.0,0.0,0.0,0.0,0.0,0.0,0.0,0.0,0.0,0.0,0.0,0.0,0.0,0.0,0.0,0.0,0.0,0.0,0.3635,0.0,0.18,-0.0221,-0.0924,-0.1462,0.0,0.0,0.0,0.0,0.0,0.0,0.0,0.0,0.0,0.0,0.0,0.0,0.0,0.0,0.0,0.0,0.0,0.0,0.0,0.0,0.0,0.0,0.0,0.0,0.0,0.0,0.0,0.0,0.0,0.0,0.0,0.0,0.0,0.0,0.0,0.0,0.0,0.0,0.0,0.0,0.0,0.0,0.0,0.0,0.0,0.0,0.0,0.0,0.0,0.0,0.0,0.0,0.0,0.0,0.0,0.0,0.0,0.0,0.0,0.0,0.0,0.0,0.0,0.0,0.0,0.0,0.0,0.0,0.0,0.0,0.0,0.0,0.0,0.0,0.0,0.0,0.0,0.0,0.0,0.0,0.0,0.0,0.0,0.0,0.0,0.0,0.0,0.0,0.0,0.0,0.0,0.0,0.0,0.0,0.0,0.0,0.0,0.0,0.0,0.0,0.0,0.0,0.0,0.0,0.0,0.0,0.0,0.0,0.4595,0.4873,0.3747,0.2573,0.1476,-0.024,-0.1344,0.0,0.0,0.0,0.0,0.0,0.0,0.0,0.0,0.0,0.0,0.0,0.0,0.0,0.0,0.0,0.0,0.0,0.0,0.0,0.0,0.0,0.0,0.0,0.0,0.0,0.0,0.0,0.0,0.0,0.0,0.0,0.0,0.0,0.0,0.0,0.0,0.0,0.0,0.0,0.0,0.0,0.0,0.0,0.0,0.0,0.0,0.0,0.0,0.0,0.0,0.0,0.0,0.0,0.0,0.0,0.0,0.0,0.0,0.0,0.0,0.0,0.0,0.0,0.0,0.0,0.0,0.0,0.0,0.0,0.0,0.0,0.0,0.0,0.0,0.0,0.0,0.0,0.0,0.0,0.0,0.0,0.0,0.0,0.0,0.0,0.0,0.0,0.0,0.0,0.0,0.0,0.0,0.0,0.0,0.0,0.0,0.0,0.0,0.0,0.0,0.0,0.0,0.0,0.0,0.0,0.0,0.0,0.0,0.0,0.3153,0.2892,0.2088,0.0653,-0.0684,-0.1565,0.0,0.0,0.0,0.0,0.0,0.0,0.0,0.0,0.0,0.0,0.0,0.0,0.0,0.0,0.0,0.0,0.0,0.0,0.0,0.0,0.0,0.0,0.0,0.0,0.0,0.0,0.0,0.0,0.0,0.0,0.0,0.0,0.0,0.0,0.0,0.0,0.0,0.0,0.0,0.0,0.0,0.0,0.0,0.0,0.0,0.0,0.0,0.0,0.0,0.0,0.0,0.0,0.0,0.0,0.0,0.0,0.0,0.0,0.0,0.0,0.0,0.0,0.0,0.0,0.0,0.0,0.0,0.0,0.0,0.0,0.0,0.0,0.0,0.0,0.0,0.0,0.0,0.0,0.0,0.0,0.0,0.0,0.0,0.0,0.0,0.0,0.0,0.0,0.0,0.0,0.0,0.0,0.0,0.0,0.0,0.0,0.0,0.0,0.0,0.0,0.0,0.0,0.0,0.0,0.0,0.0,0.0,0.0,0.0,0.2815,0.2789,0.2208,0.0898,-0.0468,-0.1456,-0.1999,0.0,0.0,0.0,0.0,0.0,0.0,0.0,0.0,0.0,0.0,0.0,0.0,0.0,0.0,0.0,0.0,0.0,0.0,0.0,0.0,0.0,0.0,0.0,0.0,0.0,0.0,0.0,0.0,0.0,0.0,0.0,0.0,0.0,0.0,0.0,0.0,0.0,0.0,0.0,0.0,0.0,0.0,0.0,0.0,0.0,0.0,0.0,0.0,0.0,0.0,0.0,0.0,0.0,0.0,0.0,0.0,0.0,0.0,0.0,0.0,0.0,0.0,0.0,0.0,0.0,0.0,0.0,0.0,0.0,0.0,0.0,0.0,0.0,0.0,0.0,0.0,0.0,0.0,0.0,0.0,0.0,0.0,0.0,0.0,0.0,0.0,0.0,0.0,0.0,0.0,0.0,0.0,0.0,0.0,0.0,0.0,0.0,0.0,0.0,0.0,0.0,0.0,0.0,0.0,0.0,0.0,0.0,0.0,0.3539,0.3292,0.2764,0.1961,0.0198,-0.114,0.0,0.0,0.0,0.0,0.0,0.0,0.0,0.0,0.0,0.0,0.0,0.0,0.0,0.0,0.0,0.0,0.0,0.0,0.0,0.0,0.0,0.0,0.0,0.0,0.0,0.0,0.0,0.0,0.0,0.0,0.0,0.0,0.0,0.0,0.0,0.0,0.0,0.0,0.0,0.0,0.0,0.0,0.0,0.0,0.0,0.0,0.0,0.0,0.0,0.0,0.0,0.0,0.0,0.0,0.0,0.0,0.0,0.0,0.0,0.0,0.0,0.0,0.0,0.0,0.0,0.0,0.0,0.0,0.0,0.0,0.0,0.0,0.0,0.0,0.0,0.0,0.0,0.0,0.0,0.0,0.0,0.0,0.0,0.0,0.0,0.0,0.0,0.0,0.0,0.0,0.0,0.0,0.0,0.0,0.0,0.0,0.0,0.0,0.0,0.0,0.0,0.0,0.0,0.0,0.0,0.0,0.0,0.0,0.0,0.3927,0.3073,0.2316,0.1692,-0.018,-0.1304,0.0,0.0,0.0,0.0,0.0,0.0,0.0,0.0,0.0,0.0,0.0,0.0,0.0,0.0,0.0,0.0,0.0,0.0,0.0,0.0,0.0,0.0,0.0,0.0,0.0,0.0,0.0,0.0,0.0,0.0,0.0,0.0,0.0,0.0,0.0,0.0,0.0,0.0,0.0,0.0,0.0,0.0,0.0,0.0,0.0,0.0,0.0,0.0,0.0,0.0,0.0,0.0,0.0,0.0,0.0,0.0,0.0,0.0,0.0,0.0,0.0,0.0,0.0,0.0,0.0,0.0,0.0,0.0,0.0,0.0,0.0,0.0,0.0,0.0,0.0,0.0,0.0,0.0,0.0,0.0,0.0,0.0,0.0,0.0,0.0,0.0,0.0,0.0,0.0,0.0,0.0,0.0,0.0,0.0,0.0,0.0,0.0,0.0,0.0,0.0,0.0,0.0,0.0,0.0,0.0,0.0,0.0,0.0,0.4101,0.3917,0.2811,0.2005,0.1518,-0.002,-0.0992,0.0,0.0,0.0,0.0,0.0,0.0,0.0,0.0,0.0,0.0,0.0,0.0,0.0,0.0,0.0,0.0,0.0,0.0,0.0,0.0,0.0,0.0,0.0,0.0,0.0,0.0,0.0,0.0,0.0,0.0,0.0,0.0,0.0,0.0,0.0,0.0,0.0,0.0,0.0,0.0,0.0,0.0,0.0,0.0,0.0,0.0,0.0,0.0,0.0,0.0,0.0,0.0,0.0,0.0,0.0,0.0,0.0,0.0,0.0,0.0,0.0,0.0,0.0,0.0,0.0,0.0,0.0,0.0,0.0,0.0,0.0,0.0,0.0,0.0,0.0,0.0,0.0,0.0,0.0,0.0,0.0,0.0,0.0,0.0,0.0,0.0,0.0,0.0,0.0,0.0,0.0,0.0,0.0,0.0,0.0,0.0,0.0,0.0,0.0,0.0,0.0,0.0,0.0,0.0,0.0,0.0,0.0,0.0,0.3637,0.3517,0.2502,0.176,0.1327,0.0428,-0.0413,0.0,0.0,0.0,0.0,0.0,0.0,0.0,0.0,0.0,0.0,0.0,0.0,0.0,0.0,0.0,0.0,0.0,0.0,0.0,0.0,0.0,0.0,0.0,0.0,0.0,0.0,0.0,0.0,0.0,0.0,0.0,0.0,0.0,0.0,0.0,0.0,0.0,0.0,0.0,0.0,0.0,0.0,0.0,0.0,0.0,0.0,0.0,0.0,0.0,0.0,0.0,0.0,0.0,0.0,0.0,0.0,0.0,0.0,0.0,0.0,0.0,0.0,0.0,0.0,0.0,0.0,0.0,0.0,0.0,0.0,0.0,0.0,0.0,0.0,0.0,0.0,0.0,0.0,0.0,0.0,0.0,0.0,0.0,0.0,0.0,0.0,0.0,0.0,0.0,0.0,0.0,0.0,0.0,0.0,0.0,0.0,0.0,0.0,0.0,0.0,0.0,0.0,0.0,0.0,0.0,0.0,0.0,0.0,0.2347,0.2428,0.1945,0.144,0.0946,0.0505,0.0018,0.0,0.0,0.0,0.0,0.0,0.0,0.0,0.0,0.0,0.0,0.0,0.0,0.0,0.0,0.0,0.0,0.0,0.0,0.0,0.0,0.0,0.0,0.0,0.0,0.0,0.0,0.0,0.0,0.0,0.0,0.0,0.0,0.0,0.0,0.0,0.0,0.0,0.0,0.0,0.0,0.0,0.0,0.0,0.0,0.0,0.0,0.0,0.0,0.8216,0.0,0.0,0.0,0.0,0.0,0.0,0.0,0.0,0.0,0.0,0.0,0.0,0.0,0.0,0.0,0.0,0.0,0.0,0.0,0.0,0.0,0.0,0.0,0.0,0.0,0.0,0.0,0.0,0.0,0.0,0.0,0.0,0.0,0.0,0.0,0.0,0.0,0.0,0.0,0.0,0.0,0.0,0.0,0.0,0.0,0.0,0.0,0.0,0.0,0.0,0.0,0.0,0.0,0.0,0.0,0.0,0.0,0.0,0.0,0.2173,0.1964,0.1433,0.1022,0.0754,0.0417,0.002,0.0,0.0,0.0,0.0,0.0,0.0,0.0,0.0,0.0,0.0,0.0,0.0,0.0,0.0,0.0,0.0,0.0,0.0,0.0,0.0,0.0,0.0,0.0,0.0,0.0,0.0,0.0,0.0,0.0,0.0,0.0,0.0,0.0,0.0,0.0,0.0,0.0,0.0,0.0,0.0,0.0,0.0,0.0,0.0,0.0,0.0,0.0,0.0,0.0,0.0,0.0,0.0,0.0,0.0,0.0,0.0,0.0,0.0,0.0,0.0,0.0,0.0,0.0,0.0,0.0,0.0,0.0,0.0,0.0,0.0,0.0,0.0,0.0,0.0,0.0,0.0,0.0,0.0,0.0,0.0,0.0,0.0,0.0,0.0,0.0,0.0,0.0,0.0,0.0,0.0,0.0,0.0,0.0,0.0,0.0,0.0,0.0,0.0,0.0,0.0,0.0,0.0,0.0,0.0,0.0,0.0,0.0,0.2774,0.2628,0.201,0.1352,0.0972,0.089,0.0314,-0.0086,-0.0314,0.0,0.0,0.0,0.0,0.0,0.0,0.0,0.0,0.0,0.0,0.0,0.0,0.0,0.0,0.0,0.0,0.0,0.0,0.0,0.0,0.0,0.0,0.0,0.0,0.0,0.0,0.0,0.0,0.0,0.0,0.0,0.0,0.0,0.0,0.0,0.0,0.0,0.0,0.4627,0.609,0.0,0.0,0.0,0.0,0.0,0.0,0.0,0.0,1.2244,0.0,0.0,0.0,0.0,0.0,0.0,0.0,0.0,0.0,0.0,0.0,0.0,0.0,0.0,0.0,0.0,0.0,0.0,0.0,0.0,0.0,0.0,0.0,0.0,0.0,0.0,0.0,0.0,0.0,0.0,0.0,0.0,0.0,0.0,0.0,0.0,0.0,0.0,0.0,0.0,0.0,0.0,0.0,0.0,0.0,0.0,0.0,0.0,0.0,0.0,0.0,0.0,0.0,0.0,0.0,0.0,0.4413,0.4111,0.361,0.2908,0.2609,0.225,0.1783,0.0627,-0.0021,-0.0038,0.0,0.0,0.0,0.0,0.0,0.0,0.0,0.0,0.0,0.0,0.0,0.0,0.0,0.0,0.0,0.0,0.0,0.0,0.0,0.0,0.0,0.0,0.0,0.0,0.0,0.0,0.0,0.0,0.0,0.0,0.0,0.0,0.0,0.0,0.0,0.0,0.0,0.0,0.0,0.6694,0.7326,0.0,0.0,0.0,0.0,0.0,0.0,0.0,0.0,1.1228,0.0,0.0,0.0,0.0,0.0,0.0,0.0,0.0,0.0,0.0,0.0,0.0,0.0,0.0,0.0,0.0,0.0,0.0,0.0,0.0,0.0,0.0,0.0,0.0,0.0,0.0,0.0,0.0,0.0,0.0,0.0,0.0,0.0,0.0,0.0,0.0,0.0,0.0,0.0,0.0,0.0,0.0,0.0,0.0,0.0,0.0,0.0,0.0,0.0,0.0,0.0,0.0,0.0,0.0,0.0,0.483,0.4424,0.3814,0.3064,0.2876,0.2542,0.1992,0.07,0.0,0.0,0.0,0.0,0.0,0.0,0.0,0.0,0.0,0.0,0.0,0.0,0.0,0.0,0.0,0.0,0.0,0.0,0.0,0.0,0.0,0.0,0.0,0.0,0.0,0.0,0.0,0.0,0.0,0.0,0.0,0.0,0.0,0.0,0.0,0.0,0.0,0.0,0.0,0.0,0.0,0.6885,0.7449,0.7837,0.0,0.0,0.0,0.0,0.0,0.0,1.0746,1.109,0.0,0.0,0.0,0.0,0.0,0.0,0.0,0.0,0.0,0.0,0.0,0.0,0.0,0.0,0.0,0.0,0.0,0.0,0.0,0.0,0.0,0.0,0.0,0.0,0.0,0.0,0.0,0.0,0.0,0.0,0.0,0.0,0.0,0.0,0.0,0.0,0.0,0.0,0.0,0.0,0.0,0.0,0.0,0.0,0.0,0.0,0.0,0.0,0.0,0.0,0.0,0.0,0.0,0.0,0.0,0.4903,0.4546,0.4021,0.3329,0.327,0.3059,0.2634,0.1576,0.0713,0.0,0.0,0.0,0.0,0.0,0.0,0.0,0.0,0.0,0.0,0.0,0.0,0.0,0.0,0.0,0.0,0.0,0.0,0.0,0.0,0.0,0.0,0.0,0.0,0.0,0.0,0.0,0.0,0.0,0.0,0.0,0.0,0.0,0.0,0.0,0.0,0.0,0.0,0.0,0.0,0.0,0.7667,0.7936,0.8121,0.0,0.0,0.0,0.0,0.9861,1.0788,0.0,0.0,0.0,0.0,0.0,0.0,0.0,0.0,0.0,0.0,0.0,0.0,0.0,0.0,0.0,0.0,0.0,0.0,0.0,0.0,0.0,0.0,0.0,0.0,0.0,0.0,0.0,0.0,0.0,0.0,0.0,0.0,0.0,0.0,0.0,0.0,0.0,0.0,0.0,0.0,0.0,0.0,0.0,0.0,0.0,0.0,0.0,0.0,0.0,0.0,0.0,0.0,0.0,0.0,0.0,0.0,0.5347,0.5054,0.4709,0.4363,0.4646,0.4816,0.4737,0.4584,0.3091,0.0,0.0,0.0,0.0,0.0,0.0,0.0,0.0,0.0,0.0,0.0,0.0,0.0,0.0,0.0,0.0,0.0,0.0,0.0,0.0,0.0,0.0,0.0,0.0,0.0,0.0,0.0,0.0,0.0,0.0,0.0,0.0,0.0,0.0,0.0,0.0,0.0,0.0,0.0,0.0,0.0,0.8146,0.824,0.8603,0.9297,0.0,0.0,0.0,1.1937,1.1057,0.0,0.0,0.0,0.0,0.0,0.0,0.0,0.0,0.0,0.0,0.0,0.0,0.0,0.0,0.0,0.0,0.0,0.0,0.0,0.0,0.0,0.0,0.0,0.0,0.0,0.0,0.0,0.0,0.0,0.0,0.0,0.0,0.0,0.0,0.0,0.0,0.0,0.0,0.0,0.0,0.0,0.0,0.0,0.0,0.0,0.0,0.0,0.0,0.0,0.0,0.0,0.0,0.0,0.0,0.0,0.5813,0.5404,0.5174,0.4906,0.4627,0.4287,0.4004,0.3672,0.3672,0.2682,0.0,0.0,0.0,0.0,0.0,0.0,0.0,0.0,0.0,0.0,0.0,0.0,0.0,0.0,0.0,0.0,0.0,0.0,0.0,0.0,0.0,0.0,0.0,0.0,0.0,0.0,0.0,0.0,0.0,0.0,0.0,0.0,0.0,0.0,0.0,0.0,0.0,0.0,0.0,0.0,0.0,0.0,0.7387,0.8419,0.0,0.0,0.0,1.3086,1.3195,0.0,0.0,0.0,0.0,0.0,0.0,0.0,0.0,0.0,0.0,0.0,0.0,0.0,0.0,0.0,0.0,0.0,0.0,0.0,0.0,0.0,0.0,0.0,0.0,0.0,0.0,0.0,0.0,0.0,0.0,0.0,0.0,0.0,0.0,0.0,0.0,0.0,0.0,0.0,0.0,0.0,0.0,0.0,0.0,0.0,0.0,0.0,0.0,0.0,0.0,0.0,0.0,0.0,0.0,0.0,0.0,0.0,0.5449,0.5229,0.4989,0.4798,0.4153,0.3633,0.3242,0.2402,0.0,0.0,0.0,0.0,0.0,0.0,0.0,0.0,0.0,0.0,0.0,0.0,0.0,0.0,0.0,0.0,0.0,0.0,0.0,0.0,0.0,0.0,0.0,0.0,0.0,0.0,0.0,0.0,0.0,0.0,0.0,0.0,0.0,0.0,0.0,0.0,0.0,0.0,0.0,0.0,0.0,0.0,0.9308,0.7714,0.8878,1.0693,0.0,0.0,1.4291,1.3917,1.3674,1.3308,0.0,0.0,0.0,0.0,0.0,0.0,0.0,0.0,0.0,0.0,0.0,0.0,0.0,0.0,0.0,0.0,0.0,0.0,0.0,0.0,0.0,0.0,0.0,0.0,0.0,0.0,0.0,0.0,0.0,0.0,0.0,0.0,0.0,0.0,0.0,0.0,0.0,0.0,0.0,0.0,0.0,0.0,0.0,0.0,0.0,0.0,0.0,0.0,0.0,0.0,0.0,0.0,0.0,0.0,0.0,0.56,0.527,0.5039,0.5078,0.5019,0.4961,0.4883,0.1855,0.0445,0.0,0.0,0.0,0.0,0.0,0.0,0.0,0.0,0.0,0.0,0.0,0.0,0.0,0.0,0.0,0.0,0.0,0.0,0.0,0.0,0.0,0.0,0.0,0.0,0.0,0.0,0.0,0.0,0.0,0.0,0.0,0.0,0.0,0.0,0.0,0.0,0.0,0.0,0.0,0.0,0.0,1.0431,1.041,1.0636,1.1731,0.0,0.0,1.4234,1.4009,1.5302,1.5207,1.188,0.0,0.0,0.0,0.0,0.0,0.0,0.0,0.0,0.0,0.0,0.0,0.0,0.0,0.0,0.0,0.0,0.0,0.0,0.0,0.0,0.0,0.0,0.0,0.0,0.0,0.0,0.0,0.0,0.0,0.0,0.0,0.0,0.0,0.0,0.0,0.0,0.0,0.0,0.0,0.0,0.0,0.0,0.0,0.0,0.0,0.0,0.0,0.0,0.0,0.0,0.0,0.0,0.0,0.599,0.5575,0.3191,0.248,0.3457,0.252,0.2969,0.5059,0.3809,0.2796,0.0,0.0,0.0,0.0,0.0,0.0,0.0,0.0,0.0,0.0,0.0,0.0,0.0,0.0,0.0,0.0,0.0,0.0,0.0,0.0,0.0,0.0,0.0,0.0,0.0,0.0,0.0,0.0,0.8243,0.768,0.7349,0.0,0.0,0.0,0.0,0.0,0.0,0.0,0.0,0.0,0.0,1.1173,1.0766,1.2119,0.0,0.0,1.4591,1.4815,1.4011,1.5687,1.604,1.3041,1.1096,0.0,0.0,0.0,0.0,0.0,0.0,0.0,0.0,0.0,0.0,0.0,0.0,0.0,0.0,0.0,0.0,0.0,0.0,0.0,0.0,0.0,0.0,0.0,0.0,0.0,0.0,0.0,0.0,0.0,0.0,0.0,0.0,0.0,0.0,0.0,0.0,0.0,0.0,0.0,0.0,0.0,0.0,0.0,0.0,0.0,0.0,0.0,0.0,0.0,0.0,0.0,0.0,0.5313,0.4708,0.1592,0.0586,0.1797,0.0625,0.1152,0.3457,0.3574,0.3048,0.0,0.0,0.0,0.0,0.0,0.0,0.0,0.0,0.0,0.0,0.0,0.0,0.0,0.0,0.0,0.0,0.0,0.0,0.0,0.0,0.0,0.0,0.0,0.0,0.0,0.0,0.0,0.0,0.7498,0.7502,0.7058,0.0,0.0,0.0,0.0,0.0,0.0,0.0,0.0,0.0,0.0,1.1939,1.1433,1.3231,1.4377,1.3842,1.4632,1.5056,1.4417,1.5606,1.5787,1.3358,0.0,0.0,0.0,0.0,0.0,0.0,0.0,0.0,0.0,0.0,0.0,0.0,0.0,0.0,0.0,0.0,0.0,0.0,0.0,0.0,0.0,0.0,0.0,0.0,0.0,0.0,0.0,0.0,0.0,0.0,0.0,0.0,0.0,0.0,0.0,0.0,0.0,0.0,0.0,0.0,0.0,0.0,0.0,0.0,0.0,0.0,0.0,0.0,0.0,0.0,0.0,0.0,0.0,0.0,0.2696,0.0952,0.0,0.0,0.0,0.0,0.0,0.0,0.0,0.0,0.0,0.0,0.0,0.0,0.0,0.0,0.0,0.0,0.0,0.0,0.0,0.0,0.0,0.0,0.0,0.0,0.0,0.0,0.0,0.0,0.0,0.0,0.0,0.0,0.0,0.0,0.398,0.5826,0.7303,0.0,0.0,0.0,0.0,0.0,0.0,0.0,0.0,0.0,0.0,1.2873,1.2857,1.284,1.3844,1.4535,1.4588,1.4613,1.4805,1.5285,1.5105,1.4217,0.0,0.0,0.0,0.0,0.0,0.0,0.0,0.0,0.0,0.0,0.0,0.0,0.0,0.0,0.0,0.0,0.0,0.0,0.0,0.0,0.0,0.0,0.0,0.0,0.0,0.0,0.0,0.0,0.0,0.0,0.0,0.0,0.0,0.0,0.0,0.0,0.0,0.0,0.0,0.0,0.3674,0.4019,0.0,0.0,0.0,0.0,0.0,0.0,0.0,0.0,0.0,0.0,0.0,0.0,0.4594,0.3598,0.123,0.0,0.0,0.0,0.0,0.0,0.0,0.0,0.0,0.0,0.0,0.0,0.0,0.0,0.0,0.0,0.0,0.0,0.0,0.0,0.0,0.0,0.0,0.0,0.0,0.0,0.0,0.0,0.0,0.0,0.0,0.0,0.0,0.0,0.6864,0.0,0.0,0.0,0.0,0.0,0.0,0.0,0.0,0.0,0.0,0.0,1.247,1.3142,1.2924,1.2697,1.2639,1.3118,1.3909,0.0,0.0,0.0,0.0,0.0,0.0,0.0,0.0,0.0,0.0,0.0,0.0,0.0,0.0,1.9772,1.8238,1.7749,1.798,1.9203,0.0,0.0,0.0,0.0,0.0,0.0,0.0,0.0,0.0,0.0,0.0,0.0,0.0,0.0,0.0,0.0,0.2746,0.0,0.0,0.0,0.0,0.0,0.0,0.0,0.0,0.3353,0.373,0.4122,0.4313,0.4573,0.0,0.5065,0.5047,0.0,0.0,0.0,0.0,0.0,0.0,0.0,0.0,0.4639,0.4435,0.2305,0.0788,0.0,0.0,0.0,0.0,0.0,0.0,0.0,0.0,0.0715,0.0,0.0,0.0,0.0,0.0,0.0,0.0,0.0,0.0,0.0,0.0,0.0,0.0,0.0,0.0,0.0,0.0,0.0,0.0,0.0,0.0,0.0,0.0,0.6651,0.0,0.0,0.0,0.0,0.0,0.0,0.0,0.0,0.0,1.0555,1.161,1.2599,1.3054,1.2979,1.2773,1.2439,0.0,0.0,0.0,0.0,0.0,0.0,0.0,1.4319,1.428,1.6701,1.8633,1.8619,1.9027,1.9341,1.9357,0.0,0.0,1.9074,1.867,1.8833,1.9874,1.9425,1.9161,2.012,2.0062,1.9794,0.0,0.0,0.0,0.0,0.0,0.0,0.0,0.0,0.3479,0.3256,0.0,0.0,0.0,0.0,0.0,0.0,0.0,0.0,0.0,0.0,0.373,0.4055,0.4293,0.4342,0.4463,0.4691,0.5336,0.5241,0.45,0.4601,0.0,0.0,0.0,0.0,0.0,0.0,0.4296,0.4943,0.3717,0.2115,0.0,0.0,0.0,0.0,0.0,0.0,0.0,0.0,0.0043,0.0052,0.2251,0.0,0.0,0.0,0.0,0.0,0.0,0.0,0.0,0.0,0.0,0.0,0.0,0.0,0.0,0.0,0.0,0.0,0.0,0.0,0.0,0.7014,0.0,0.0,0.0,0.0,0.0,0.0,0.0,0.0,0.0,0.0,1.3091,1.2323,1.1875,1.2578,0.0,0.0,0.0,0.0,1.2106,1.1981,1.2767,1.3746,1.4602,1.4225,1.4577,1.6816,0.0,0.0,1.8515,1.8455,1.847,1.8393,1.864,1.9198,2.1061,2.0678,2.0357,2.0732,2.0324,2.0052,2.032,2.0514,2.035,0.3702,0.0,0.0,0.0,0.0,0.382,0.3779,0.389,0.3507,0.3387,0.3383,0.3214,0.0,0.0,0.0,0.0,0.0,0.0,0.3416,0.3758,0.3814,0.396,0.415,0.4019,0.3999,0.4068,0.4227,0.4082,0.3675,0.3716,0.3965,0.4325,0.0,0.0,0.0,0.0,0.293,0.3769,0.1978,0.0626,0.0,0.0,0.0,0.0,0.1489,0.1574,0.0063,0.0599,0.064,0.0064,0.1998,0.0,0.0,0.0,0.0,0.0,0.0,0.0,0.0,0.0,0.0,0.0,0.0,0.0,0.0,0.0,0.0,0.0,0.0,0.0,0.4817,0.465,0.5691,0.0,0.0,0.0,0.0,0.0,0.0,0.0,0.0,0.0,1.2256,1.2307,1.259,0.0,0.0,1.2471,1.2995,1.2392,1.2303,1.3367,0.0,0.0,0.0,1.4181,1.4121,1.4985,1.7876,1.9891,1.9311,1.9703,2.0081,2.0065,2.0097,2.0336,2.0751,2.0108,1.9884,2.0914,2.0983,2.0955,2.1676,2.1944,2.1971,0.2354,0.2989,0.3111,0.3458,0.3869,0.3395,0.3374,0.3654,0.3262,0.3171,0.3226,0.3101,0.3121,0.3246,0.323,0.0,0.0,0.0,0.3574,0.3937,0.3745,0.3723,0.3834,0.3647,0.3577,0.3619,0.3505,0.3303,0.3014,0.3089,0.3231,0.3515,0.0,0.0,0.3688,0.252,0.2122,0.2502,0.1059,0.0287,0.0283,0.0401,0.0325,0.0061,0.1909,0.2269,0.0895,0.079,0.0869,0.1018,0.1531,0.1896,0.0,0.0,0.0,0.0,0.0,0.0,0.0,0.0,0.0,0.0,0.0,0.6599,0.0,0.0,0.0,0.0,0.7561,0.7359,0.6018,0.5969,0.0,0.0,0.0,0.0,0.0,0.0,0.0,1.1903,1.2549,1.2693,1.1923,1.2395,1.3128,1.3867,1.3252,1.2826,1.3064,0.0,1.3444,1.4934,1.5137,1.5068,1.4875,1.4538,1.445,1.5059,1.7628,1.9673,1.9704,2.0067,2.0478,2.0731,2.081,2.081,2.081,2.0194,2.0029,2.1113,2.1256,2.1416,2.2108,2.2304,2.2398,0.0461,0.063,0.1851,0.2645,0.3068,0.2977,0.295,0.2907,0.2767,0.2692,0.2672,0.2871,0.289,0.2754,0.3001,0.0,0.0,0.3679,0.367,0.3968,0.3573,0.3387,0.3442,0.3205,0.3123,0.3166,0.3015,0.2785,0.2485,0.2511,0.2437,0.2202,0.2676,0.2982,0.3039,0.2364,0.1755,0.1268,0.0967,0.0787,0.076,0.1106,0.0948,0.0237,0.1715,0.2405,0.2109,0.0913,0.0886,0.2256,0.0983,0.0151,0.0,0.0,0.0,0.0,0.0,0.0,0.0,0.0,0.0,0.0,0.0,0.0,0.0,0.0,0.0,0.0,0.7546,0.0,0.9021,0.9242,0.0,0.0,0.0,1.0952,1.1372,1.2491,1.2968,1.2338,0.0,0.0,0.0,0.0,1.3428,1.4294,1.4228,1.3806,1.2983,1.386,1.5066,1.6312,1.6565,1.6292,1.55,1.5233,1.5438,1.6307,1.7306,1.8284,1.931,1.9752,2.0052,2.0573,2.0763,2.081,2.081,2.0747,2.0909,2.1087,2.1261,2.1462,2.1721,2.1811,2.1957,-0.1481,-0.1822,-0.1409,0.0061,0.2121,0.2306,0.2392,0.2349,0.2017,0.2009,0.2227,0.1977,0.2295,0.3019,0.317,0.3473,0.3845,0.3464,0.3475,0.3813,0.3295,0.3073,0.3092,0.2537,0.2137,0.1854,0.1708,0.1552,0.1311,0.1376,0.1331,0.1245,0.1416,0.1698,0.2112,0.2051,0.1957,0.1807,0.1729,0.1535,0.1242,0.1764,0.1983,0.1909,0.2449,0.2631,0.2415,0.2186,0.16,0.0697,0.1488,0.1392,0.0,0.0,0.0,0.0,0.0,0.0,0.0,0.0,0.0,0.0,0.0,0.6599,0.6599,0.0,0.5154,0.0,0.6858,0.5658,0.2689,0.7158,0.0,0.0,1.074,1.2316,1.3899,1.4078,1.3961,1.3659,1.3729,1.4241,1.5327,1.3682,1.3341,1.5637,1.4523,1.3891,1.5061,1.4683,1.4834,1.6255,1.6607,1.6533,1.6307,1.6244,1.6289,1.6533,1.6801,1.7212,1.8048,1.9119,1.9862,2.0052,2.0478,2.0763,2.081,2.081,2.0827,2.0893,2.1103,2.1309,2.154,2.1554,2.1661,-0.3435,-0.3546,-0.3263,-0.2041,-0.0294,0.0165,0.0583,0.0897,0.085,0.1064,0.1375,0.1223,0.1574,0.2337,0.2488,0.2842,0.3276,0.2955,0.2949,0.318,0.2663,0.2363,0.2233,0.1674,0.1156,0.0697,0.0655,0.0539,0.0374,0.052,0.0647,0.0717,0.0781,0.0953,0.1216,0.1469,0.1606,0.164,0.1666,0.1662,0.1655,0.1932,0.2072,0.2062,0.2383,0.2321,0.1887,0.235,0.2078,0.1011,0.225,0.2095,0.0,0.0,0.0472,0.0,0.0,0.0,0.0,0.0,0.0,0.0,0.0,0.0,0.0,0.0,0.6443,0.0,0.0,0.0,0.4539,0.9074,1.1703,1.0856,1.2126,1.3621,1.5034,1.4765,1.4672,1.5152,1.4811,1.5057,1.636,1.4852,1.4304,1.6328,1.5173,1.4669,1.5993,1.5739,1.5603,1.6454,1.6607,1.6607,1.6607,1.6607,1.6607,1.6628,1.6928,1.7444,1.8076,1.9056,1.9894,2.0194,2.0557,2.0794,2.081,2.081,2.081,2.0843,2.0925,2.1055,2.1166,2.1198,2.1214,-0.5389,-0.5021,-0.4604,-0.4067,-0.3484,-0.2834,-0.1893,-0.0801,-0.0434,-0.0067,0.0295,0.0414,0.0732,0.1158,0.1231,0.1683,0.2345,0.2034,0.196,0.2103,0.1656,0.1317,0.1052,0.0676,0.0188,-0.0326,-0.0304,-0.0328,-0.0373,-0.0212,0.0069,0.0388,0.0456,0.0475,0.0485,0.0837,0.1072,0.1139,0.1217,0.1452,0.1864,0.1819,0.1686,0.154,0.1865,0.1718,0.1034,0.2189,0.272,0.2479,0.3113,0.2576,0.0584,0.0584,0.1685,0.0,0.5088,0.0,0.0,0.0,0.0,0.0,0.0,0.0,0.0,0.68,0.7707,0.9679,0.4678,0.3863,0.9893,1.2395,1.3483,1.3114,1.3888,1.4747,1.5386,1.5119,1.5295,1.6454,1.6085,1.5959,1.647,1.5927,1.5769,1.6391,1.595,1.5713,1.6391,1.6533,1.6517,1.6607,1.6607,1.6607,1.6607,1.6607,1.6607,1.6691,1.7338,1.8124,1.844,1.923,1.9988,2.0494,2.0699,2.081,2.081,2.081,2.081,2.081,2.0843,2.0843,2.0827,2.086,2.081,-0.6991,-0.6904,-0.7127,-0.6901,-0.6315,-0.6119,-0.4327,-0.1503,-0.1332,-0.1096,-0.0872,-0.0863,-0.0555,-0.0088,-0.0384,-0.0123,0.0548,-0.0121,-0.0212,0.0223,-0.0202,-0.0336,-0.0261,-0.0479,-0.0771,-0.1088,-0.1173,-0.1115,-0.0953,-0.1118,-0.084,-0.0173,-0.0197,-0.0026,0.0,0.0,0.0,0.0,0.0987,0.1307,0.1771,0.1749,0.1669,0.1584,0.1451,0.0,0.0367,0.3146,0.4735,0.4657,0.3929,0.0,0.0,0.0,0.0,0.0,0.0,0.0,0.0,0.0,0.0,0.0,0.5682,0.6236,0.674,0.3612,0.2521,0.4958,0.726,0.9371,1.109,1.2574,1.3799,1.4703,1.4857,1.5174,1.5941,1.6124,1.6328,1.656,1.647,1.6439,1.6533,1.6423,1.6407,1.6596,1.6454,1.6423,1.6581,1.6612,1.6607,1.6607,1.6607,1.6607,1.6607,1.6607,1.6607,1.6733,1.7369,1.7966,1.8061,1.904,1.9799,2.0067,2.0431,2.081,2.081,2.081,2.081,2.081,2.081,2.081,2.081,2.081,2.081,-0.804,0.0,-0.8015,-0.797,0.0,0.0,-0.6421,-0.4468,-0.3185,-0.2414,-0.2051,-0.2044,-0.1847,-0.154,-0.1463,-0.1123,-0.0561,-0.0958,-0.0991,-0.0753,-0.1055,-0.124,-0.1299,-0.1431,-0.171,-0.2125,-0.1782,-0.1587,-0.1531,-0.1458,-0.1083,-0.0505,-0.0469,-0.0247,0.0206,0.0607,0.0806,0.0867,0.0953,0.1298,0.1977,0.1937,0.1976,0.2098,0.0,0.0,0.0,0.0,0.0,0.0,0.0,0.0,0.0,0.0,0.0,0.795,0.7871,0.8728,1.0893,1.081,1.0296,0.9435,0.9069,0.888,0.8894,0.6662,0.6215,0.8409,1.099,1.243,1.2288,1.3518,1.4701,1.5506,1.5596,1.5825,1.6293,1.6517,1.6596,1.6607,1.6607,1.6607,1.6607,1.6607,1.6828,1.7239,1.748,1.7543,1.7275,1.688,1.6623,1.6607,1.6607,1.6607,1.6607,1.6607,1.6596,1.6733,1.7559,1.8234,1.8234,1.9356,2.0289,2.032,2.0589,2.0794,2.081,2.081,2.081,2.081,2.081,2.081,2.081,2.081,2.081,-0.9108,-0.8753,-0.8727,-0.8785,-0.8844,-0.8651,-0.818,-0.7406,0.0,0.0,0.0,-0.3302,-0.3205,-0.3,-0.2645,-0.2216,-0.1725,-0.1821,-0.1821,-0.1755,-0.189,-0.2103,-0.2319,-0.2343,-0.2559,-0.2932,-0.2266,-0.1942,-0.2023,-0.1636,-0.1239,-0.0841,-0.0692,-0.0382,0.0156,0.0722,0.0995,0.0935,0.1007,0.1401,0.2132,0.2097,0.2362,0.2862,0.1913,0.1738,0.2514,0.5254,0.615,0.4761,0.5513,0.5365,0.4101,0.4014,0.5368,0.816,0.7363,0.7628,0.9857,1.1113,1.2509,1.4014,1.274,1.1654,1.1132,1.0876,1.1445,1.3178,1.4018,1.4176,1.3473,1.453,1.5477,1.594,1.6095,1.6246,1.6517,1.6596,1.6607,1.6607,1.6607,1.6607,1.6607,1.6607,1.6928,1.7855,1.8598,1.8819,1.8219,1.7634,1.7192,1.6975,1.677,1.6607,1.6607,1.6607,1.6628,1.6849,1.7887,1.8708,1.904,1.9941,2.0715,2.0747,2.081,2.081,2.081,2.081,2.081,2.081,2.081,2.081,2.081,2.081,2.081,-1.1032,-0.9795,-1.0784,-1.0649,-0.9835,-1.0197,-0.9405,-0.7724,-0.59,-0.4989,-0.4795,-0.4791,-0.4633,-0.4351,-0.4688,-0.4381,-0.3667,-0.4156,-0.4194,0.0,-0.3774,-0.3695,-0.3644,-0.3416,-0.317,-0.291,-0.2784,-0.2499,-0.2131,-0.205,-0.179,-0.1284,-0.1177,-0.0688,0.0298,0.0636,0.0868,0.1052,0.106,0.1357,0.193,0.2039,0.2581,0.3506,0.3397,0.3658,0.4388,0.4991,0.5408,0.56,0.5793,0.5907,0.5937,0.6234,0.7045,0.8236,1.0066,1.1433,1.1918,1.1272,1.1541,1.3094,1.2262,1.1764,1.2183,1.1366,1.1396,1.2939,1.4369,1.512,1.4992,1.5196,1.5565,1.5972,1.6055,1.6108,1.6402,1.6537,1.6644,1.667,1.6607,1.6612,1.6596,1.6686,1.7101,1.8061,1.9404,2.002,1.904,1.8866,1.8645,1.7934,1.7128,1.6686,1.6765,1.6612,1.6928,1.7448,1.8219,1.8977,1.9483,2.0241,2.0778,2.081,2.081,2.081,2.081,2.081,2.081,2.081,2.081,2.081,2.081,2.081,2.081,-1.1863,-1.1288,-1.1716,-1.1772,-1.1515,-1.1417,-1.0635,-0.9363,-0.7984,-0.6718,-0.5744,-0.5802,-0.5695,-0.5425,-0.5421,-0.5131,-0.4599,-0.4648,-0.459,-0.4403,-0.4113,-0.4016,-0.4086,-0.3826,-0.3644,-0.342,-0.3068,-0.2747,-0.2448,-0.2386,-0.2161,-0.1779,-0.1507,-0.0821,0.0183,0.0428,0.075,0.121,0.1285,0.1579,0.2145,0.2478,0.309,0.3993,0.4053,0.4242,0.4672,0.5201,0.5609,0.5835,0.6372,0.6711,0.6794,0.7157,0.7637,0.8239,1.0665,1.2222,1.2556,1.2058,1.2221,1.3329,1.3521,1.3765,1.4192,1.2688,1.2554,1.4395,1.5091,1.5298,1.5312,1.5828,1.6425,1.7061,1.6967,1.6928,1.7061,1.7235,1.729,1.7212,1.7196,1.7038,1.6628,1.7464,1.8471,1.9404,2.0383,2.0494,1.9925,1.9973,1.9736,1.8566,1.7369,1.7081,1.7555,1.7745,1.7903,1.819,1.8835,1.9372,1.9815,2.0352,2.0731,2.081,2.081,2.081,2.081,2.081,2.081,2.081,2.081,2.081,2.081,2.081,2.081,-1.2675,-1.2567,-1.2653,-1.2768,-1.2882,-1.2231,-1.1553,-1.0773,-0.9716,-0.8268,-0.6776,-0.669,-0.6488,-0.616,-0.5859,-0.5571,-0.523,-0.4877,-0.4654,-0.4558,-0.4178,-0.4113,-0.428,-0.4086,-0.3963,-0.377,-0.3247,-0.2876,-0.2759,-0.2573,-0.2393,-0.2196,-0.1724,-0.094,0.0,0.0265,0.0681,0.1249,0.1493,0.1845,0.2396,0.289,0.3535,0.4285,0.4367,0.4507,0.4781,0.5522,0.6013,0.6143,0.6967,0.7425,0.7404,0.7755,0.8279,0.9158,1.1036,1.2365,1.2685,1.2965,1.3363,1.3872,1.4965,1.5703,1.5833,1.4424,1.4187,1.5994,1.6304,1.6108,1.5929,1.6694,1.7641,1.8331,1.7822,1.756,1.7864,1.7953,1.8,1.7906,1.795,1.7685,1.7523,1.8482,1.9749,2.0575,2.086,2.081,2.081,2.081,2.0273,1.9388,1.8234,1.7887,1.8693,1.9009,1.9072,1.9024,1.9404,1.9783,2.0067,2.051,2.0763,2.081,2.081,2.081,2.0794,2.0761,2.0777,2.0761,2.0744,2.0679,2.0695,2.0695,2.0744,-1.3963,-1.3551,-1.4031,-1.3962,-1.3273,-1.2528,-1.1743,-1.0962,-1.0168,-0.9171,-0.8045,-0.7472,-0.6966,-0.649,-0.6429,-0.6222,-0.5835,-0.5435,-0.5125,-0.4864,-0.4441,-0.428,-0.4312,-0.428,-0.4045,-0.367,-0.3324,-0.3112,-0.2938,-0.2667,-0.245,-0.2231,-0.1795,-0.1139,-0.0313,0.0117,0.0626,0.1298,0.1672,0.2048,0.2391,0.2981,0.3669,0.4525,0.4411,0.4614,0.5283,0.5896,0.6364,0.68,0.7475,0.7904,0.8051,0.8471,0.9589,1.1523,1.2295,1.2674,1.2781,1.3833,1.4519,1.4847,1.5875,1.6703,1.6987,1.641,1.6411,1.7341,1.8231,1.8028,1.7033,1.7863,1.879,1.9256,1.817,1.7455,1.8355,1.8266,1.8171,1.8553,1.8629,1.8598,1.8614,1.9359,2.0213,2.1022,2.0925,2.081,2.081,2.081,2.0778,2.0589,2.0352,1.9799,1.9277,1.983,2.0099,1.9815,1.9751,2.0067,2.0478,2.0684,2.081,2.081,2.081,2.081,2.0728,2.0646,2.0595,2.0695,2.0628,2.0429,2.0444,2.0478,2.0527,-1.434,-1.4244,-1.4589,-1.4323,-1.3644,-1.2955,-1.2475,-1.2059,-1.1275,-1.0498,-0.9791,-0.9108,-0.8093,-0.6954,-0.7204,-0.7239,-0.7058,-0.6784,-0.6428,-0.6018,-0.5577,-0.5038,-0.4511,-0.4596,-0.4448,-0.4014,-0.3726,-0.3635,-0.3613,-0.3464,-0.3049,-0.2502,-0.216,-0.1569,-0.0677,-0.0083,0.0456,0.1063,0.1615,0.2188,0.2855,0.3297,0.3964,0.4742,0.4862,0.5128,0.5661,0.6026,0.6492,0.7118,0.7826,0.8352,0.8662,0.9185,1.0385,1.2259,1.2591,1.2987,1.3602,1.4138,1.4678,1.5322,1.6409,1.7219,1.764,1.7762,1.7987,1.8372,1.8823,1.8817,1.8346,1.8965,1.9617,1.9743,1.9243,1.9006,1.9295,1.9198,1.9167,1.9341,1.9356,1.9514,1.9925,2.0458,2.0825,2.1023,2.0876,2.081,2.081,2.081,2.081,2.081,2.081,2.0605,2.0052,2.0336,2.0605,2.0478,2.0383,2.0573,2.0684,2.081,2.081,2.081,2.081,2.0777,2.0628,2.0595,2.0527,2.0595,2.0561,2.0392,2.0065,2.0273,2.0426,-1.4411,-1.4716,-1.4772,-1.4576,-1.4217,-1.3599,-1.329,-1.3145,-1.2406,-1.1761,-1.1174,-1.0432,-0.9351,-0.8186,-0.8092,-0.8061,-0.8042,-0.7783,-0.7396,-0.6841,-0.6424,-0.5685,-0.4818,-0.4905,-0.4838,-0.4542,-0.4212,-0.4059,-0.4044,-0.3972,-0.3472,-0.2699,-0.2452,-0.1834,-0.0803,-0.0174,0.0391,0.1023,0.165,0.2298,0.2999,0.3584,0.43,0.5111,0.5435,0.5728,0.6104,0.6536,0.7026,0.7541,0.8345,0.9095,0.9682,1.0049,1.0964,1.2484,1.2926,1.35,1.4557,1.4472,1.4828,1.5896,1.6951,1.7763,1.8258,1.8677,1.8898,1.8988,1.9078,1.9124,1.931,1.9705,2.0025,2.0216,2.0239,2.0144,2.0067,2.0083,2.0067,2.0067,2.0067,2.0273,2.0798,2.1103,2.1134,2.099,2.0876,2.081,2.081,2.081,2.081,2.081,2.081,2.0745,2.0728,2.073,2.0745,2.0662,2.0614,2.0599,2.0695,2.0695,2.0761,2.0761,2.0794,2.0744,2.0595,2.0527,2.0357,2.0323,2.0289,2.027,1.994,2.0185,2.0373,-1.4297,-1.483,-1.474,-1.4846,-1.508,-1.4452,-1.4161,-1.3968,-1.3424,-1.2664,-1.181,-1.1142,-1.059,-1.0035,-0.9047,-0.8512,-0.8434,-0.8149,-0.7662,-0.7081,-0.6725,-0.6013,-0.5113,-0.515,-0.5177,-0.5084,-0.4691,-0.4243,-0.3808,-0.3842,-0.3472,-0.2652,-0.2544,-0.1787,-0.0626,-0.0178,0.0446,0.1252,0.1828,0.2275,0.2804,0.377,0.4682,0.5583,0.6016,0.6346,0.668,0.7661,0.8246,0.816,0.9175,1.0181,1.1125,1.1033,1.1529,1.2686,1.3519,1.4346,1.5191,1.5091,1.5361,1.6545,1.7575,1.8444,1.8896,1.9006,1.9064,1.9116,1.9116,1.9213,1.9581,1.9919,2.0235,2.0628,2.0395,2.0382,2.0698,2.0652,2.0747,2.0699,2.0717,2.0814,2.1087,2.0958,2.1023,2.1038,2.0941,2.081,2.081,2.081,2.081,2.081,2.081,2.0728,2.0595,2.0595,2.0595,2.0527,2.0494,2.0478,2.0494,2.0494,2.0628,2.0679,2.0728,2.0662,2.0527,2.0357,2.015,2.0061,2.0061,1.9955,1.9884,2.0131,2.0304,-1.4709,-1.4887,-1.4811,-1.5009,-1.5289,-1.4658,-1.4492,-1.4671,-1.413,-1.3568,-1.2961,-1.2382,-1.1778,-1.1133,-1.0433,-0.9866,-0.9479,-0.9319,-0.8838,-0.8183,-0.7778,-0.7046,-0.6065,-0.5902,-0.5711,-0.5421,-0.515,-0.4688,-0.4155,-0.4257,-0.3835,-0.2889,-0.2573,-0.1876,-0.085,-0.0224,0.0358,0.1075,0.1749,0.2373,0.2907,0.3957,0.4983,0.6013,0.6261,0.659,0.7086,0.8005,0.8669,0.9153,1.0103,1.0841,1.1424,1.2175,1.3119,1.4201,1.5356,1.5941,1.5788,1.62,1.6638,1.717,1.7877,1.85,1.8974,1.9116,1.9116,1.9116,1.9116,1.9288,1.9711,2.017,2.061,2.0728,2.0679,2.0613,2.0761,2.081,2.081,2.086,2.1039,2.1198,2.1023,2.1055,2.1055,2.0974,2.086,2.0827,2.081,2.081,2.0827,2.081,2.081,2.0728,2.0527,2.046,2.0426,2.0426,2.041,2.041,2.041,2.0561,2.0695,2.0662,2.0662,2.0527,2.0357,2.02,1.999,1.9869,1.9848,1.9884,1.9833,2.0096,2.027,-1.5693,-1.5683,-1.5674,-1.5937,-1.6257,-1.5537,-1.5333,-1.5448,-1.4894,-1.4345,-1.3848,-1.3251,-1.2672,-1.2139,-1.1494,-1.0973,-1.0521,-1.0223,-0.9705,-0.9013,-0.8666,-0.7944,-0.7004,-0.6617,-0.635,-0.6111,-0.587,-0.5396,-0.4758,-0.4728,-0.4136,-0.3126,-0.2773,-0.1967,-0.0851,-0.0317,0.032,0.1189,0.1898,0.2516,0.3158,0.421,0.5226,0.6124,0.6642,0.722,0.7882,0.857,0.9261,1.003,1.0841,1.1388,1.1772,1.3,1.4222,1.5267,1.6122,1.6495,1.6181,1.6774,1.7295,1.7517,1.7974,1.8553,1.9026,1.9116,1.9116,1.9116,1.9101,1.9236,1.9603,2.0273,2.081,2.081,2.081,2.081,2.081,2.081,2.081,2.086,2.1198,2.1276,2.1103,2.1183,2.1087,2.0827,2.0844,2.0925,2.0827,2.0893,2.0877,2.0827,2.081,2.0761,2.0662,2.0595,2.0373,2.0323,2.0323,2.0357,2.0392,2.0561,2.0628,2.0628,2.0527,2.0339,2.02,2.0025,1.9884,1.9762,1.9762,1.9797,1.9904,2.0096,2.0254,-1.7172,-1.7195,-1.7402,-1.758,-1.7805,-1.7037,-1.6648,-1.6253,-1.5674,-1.4972,-1.4273,-1.3602,-1.3276,-1.3035,-1.2102,-1.1605,-1.1367,-1.0659,-1.0002,-0.9431,-0.9149,-0.8595,-0.7751,-0.7213,-0.6986,-0.6905,-0.6772,-0.6228,-0.5422,-0.5043,-0.4355,-0.348,-0.2923,-0.19,-0.045,-0.0234,0.0524,0.1678,0.2209,0.2695,0.3365,0.4515,0.545,0.6121,0.7247,0.8205,0.8874,0.946,1.0047,1.0749,1.1391,1.1854,1.2408,1.3475,1.4593,1.5525,1.5664,1.5921,1.6436,1.678,1.722,1.7518,1.8028,1.8592,1.8988,1.9116,1.9116,1.9116,1.9101,1.9139,1.942,2.0189,2.081,2.081,2.081,2.081,2.081,2.081,2.081,2.086,2.123,2.1493,2.1462,2.1371,2.1167,2.099,2.1006,2.1103,2.0958,2.1087,2.1119,2.0893,2.081,2.0761,2.0761,2.0761,2.0426,2.02,2.02,2.0235,2.027,2.0407,2.0441,2.0441,2.0339,2.0146,2.001,1.9884,1.9812,1.9726,1.9762,1.9797,1.9955,2.0131,2.0289,-1.7235,-1.7318,-1.7492,-1.7838,-1.8135,-1.7348,-1.6918,-1.68,-1.5902,-1.521,-1.4641,-1.3947,-1.3754,-1.3619,-1.2735,-1.2127,-1.1943,-1.1023,-1.0387,-0.9925,-0.9056,-0.849,-0.8086,-0.7409,-0.6973,-0.6785,-0.6609,-0.6142,-0.5491,-0.484,-0.4143,-0.3419,-0.2419,-0.1419,-0.0388,0.0148,0.099,0.1934,0.2303,0.2766,0.3565,0.4656,0.5602,0.6584,0.7888,0.9065,0.9867,1.0132,1.0625,1.1463,1.2332,1.2955,1.3284,1.3992,1.4903,1.5671,1.607,1.6247,1.6547,1.716,1.7598,1.7828,1.8266,1.8745,1.9064,1.9116,1.9116,1.9116,1.9101,1.9347,2.0154,2.0545,2.081,2.081,2.081,2.081,2.081,2.0843,2.081,2.0893,2.1308,2.1751,2.1915,2.1708,2.1324,2.1183,2.1167,2.1199,2.1293,2.1261,2.1151,2.0893,2.0827,2.0843,2.086,2.0761,2.046,2.0304,2.027,2.0235,2.0235,2.025,2.0285,2.02,2.0111,2.0005,1.9848,1.9762,1.9741,1.9726,1.9726,1.9833,1.9955,2.0166,2.0357,-1.7978,-1.8251,-1.8475,-1.8687,-1.8801,-1.8046,-1.7539,-1.713,-1.6265,-1.5713,-1.5391,-1.4749,-1.4687,-1.4734,-1.3722,-1.3067,-1.2794,-1.1561,-1.0846,-1.0508,-0.9385,-0.8789,-0.8509,-0.7636,-0.6997,-0.6735,-0.6568,-0.6093,-0.5356,-0.4732,-0.3914,-0.2924,-0.2018,-0.1029,-0.0101,0.0511,0.1235,0.2162,0.2555,0.319,0.4175,0.5101,0.613,0.7281,0.8286,0.9394,1.0485,1.0805,1.1393,1.2376,1.3361,1.3779,1.3695,1.4294,1.5209,1.6132,1.643,1.6645,1.7102,1.7585,1.7894,1.8068,1.8539,1.8936,1.9064,1.9116,1.9116,1.9116,1.953,2.0015,2.0613,2.081,2.081,2.081,2.081,2.081,2.0827,2.0925,2.0893,2.1023,2.1495,2.1974,2.2152,2.1857,2.1493,2.1386,2.134,2.134,2.1479,2.1401,2.1214,2.1007,2.0761,2.0794,2.0893,2.0728,2.0509,2.0407,2.0392,2.0323,2.0304,2.0181,2.0146,2.0025,1.9884,1.9884,1.9762,1.9726,1.9705,1.9726,1.9726,1.9919,2.0111,2.027,2.0426,-1.9221,-1.9791,-2.0081,-1.9978,-1.9779,-1.9197,-1.8411,-1.7531,-1.6872,-1.6567,-1.6351,-1.5829,-1.5937,-1.6117,-1.4944,-1.4225,-1.3918,-1.2307,-1.1358,-1.1025,-1.0193,-0.9466,-0.8804,-0.7878,-0.7175,-0.6685,-0.6606,-0.609,-0.5154,-0.465,-0.3782,-0.2359,-0.1688,-0.086,0.036,0.0789,0.1601,0.2517,0.2961,0.3762,0.4961,0.5734,0.6817,0.8153,0.8534,0.9377,1.0746,1.1589,1.2444,1.3389,1.4226,1.4433,1.4025,1.4387,1.5555,1.6808,1.6699,1.7193,1.7826,1.7995,1.8018,1.8291,1.876,1.9101,1.9176,1.9213,1.925,1.9325,2.01,2.0695,2.0794,2.081,2.081,2.081,2.081,2.081,2.0827,2.1055,2.1135,2.1087,2.1678,2.2282,2.2254,2.1857,2.1584,2.1493,2.1493,2.1554,2.1631,2.1631,2.1524,2.1276,2.0942,2.081,2.0909,2.0695,2.046,2.0392,2.0357,2.027,2.0185,2.0096,2.0005,1.9833,1.9762,1.9726,1.9726,1.9726,1.9705,1.9726,1.9848,2.0061,2.0246,2.0381,2.0565,-1.9216,-1.9741,-2.0127,-2.0187,-1.999,-1.9557,-1.9045,-1.8467,-1.7895,-1.746,-1.7116,-1.6681,-1.6796,-1.6955,-1.5995,-1.5299,-1.4627,-1.3191,-1.2057,-1.1509,-1.0687,-0.9504,-0.8411,-0.7746,-0.7141,-0.6603,-0.632,-0.5855,-0.4974,-0.4152,-0.3345,-0.268,-0.0881,0.0106,0.0598,0.1591,0.243,0.2925,0.3329,0.4012,0.5054,0.5878,0.6897,0.8171,0.8823,0.971,1.1065,1.2589,1.3589,1.4061,1.472,1.5198,1.5153,1.5367,1.5724,1.6244,1.6928,1.7472,1.8051,1.8321,1.8408,1.8486,1.8874,1.9213,1.9508,1.9545,1.9617,1.9833,2.0426,2.081,2.081,2.081,2.081,2.081,2.0843,2.0843,2.0876,2.1038,2.123,2.1339,2.1751,2.2061,2.218,2.2003,2.1705,2.1615,2.1675,2.184,2.1886,2.1857,2.1751,2.1631,2.1355,2.1071,2.0843,2.0595,2.046,2.0392,2.0254,2.0096,2.0025,1.9904,1.9833,1.9726,1.9726,1.9726,1.9726,1.9705,1.9705,1.9705,1.9812,1.997,2.0259,2.0457,2.0744,-1.9118,-1.9729,-2.0076,-2.0216,-2.0154,-1.9847,-1.9687,-1.9559,-1.9064,-1.89,-1.8806,-1.8346,-1.8219,-1.8259,-1.701,-1.6179,-1.5653,-1.3999,-1.2775,-1.1881,-1.0669,-0.9525,-0.8568,-0.7924,-0.7212,-0.6695,-0.6153,-0.55,-0.4685,-0.3708,-0.27,-0.1531,-0.0215,0.0768,0.1502,0.2127,0.291,0.335,0.379,0.456,0.5546,0.6258,0.7481,0.8698,0.9503,1.0443,1.2651,1.3952,1.4573,1.4901,1.5441,1.5851,1.5804,1.5792,1.5969,1.6367,1.729,1.804,1.8468,1.8622,1.8646,1.8769,1.8988,1.925,1.9566,1.9782,1.9995,2.01,2.0545,2.0761,2.081,2.081,2.081,2.0843,2.0909,2.0893,2.0843,2.1246,2.1448,2.1584,2.184,2.2089,2.2265,2.2061,2.1928,2.184,2.184,2.2032,2.218,2.2077,2.1961,2.1797,2.1448,2.1039,2.0794,2.0595,2.0357,2.0289,2.02,2.0005,1.9884,1.9797,1.9762,1.9726,1.9726,1.9705,1.9705,1.9705,1.9705,1.9741,1.9762,1.9893,2.0218,2.0767,2.1008,-1.8963,-1.9717,-2.0002,-2.023,-2.0426,-2.028,-2.0514,-2.0766,-2.0486,-2.0573,-2.0793,-2.0282,-1.9798,-1.9838,-1.801,-1.7009,-1.6612,-1.4874,-1.3412,-1.2167,-1.0714,-0.9541,-0.9088,-0.807,-0.7389,-0.6875,-0.6059,-0.5147,-0.4209,-0.3266,-0.1808,-0.043,0.0385,0.1336,0.2238,0.2745,0.313,0.3793,0.445,0.5273,0.6199,0.7015,0.8178,0.9644,1.0312,1.1957,1.4113,1.5127,1.5189,1.5781,1.6385,1.6464,1.6113,1.5996,1.6633,1.7674,1.8561,1.9157,1.8984,1.8908,1.8841,1.9055,1.9101,1.9288,1.9624,1.998,2.0224,2.0292,2.0613,2.0761,2.081,2.081,2.0843,2.0909,2.1071,2.1071,2.1071,2.1493,2.1794,2.1568,2.1991,2.2254,2.2237,2.2135,2.2032,2.2061,2.2061,2.2135,2.2254,2.2225,2.2094,2.1932,2.1479,2.0926,2.073,2.0545,2.0342,2.0185,2.0061,1.9935,1.9812,1.9741,1.9741,1.9705,1.9705,1.9705,1.9705,1.9705,1.972,1.9726,1.9762,1.9908,2.0182,2.099,2.1443,-1.8945,-1.9649,-1.9964,-2.0615,-2.1315,-2.1385,-2.1666,-2.2182,-2.2274,-2.2006,-2.1643,-2.1269,-2.0744,-2.007,-1.8885,-1.8127,-1.7354,-1.5842,-1.4328,-1.212,-1.0978,-0.9892,-0.9112,-0.8163,-0.7523,-0.679,-0.5817,-0.4852,-0.3785,-0.2394,-0.1047,-0.0055,0.1495,0.24,0.2625,0.3408,0.3965,0.4453,0.505,0.5923,0.6902,0.7652,0.8705,1.0218,1.1301,1.2822,1.4348,1.4829,1.5483,1.662,1.7303,1.7471,1.7194,1.7123,1.7999,1.9634,2.0966,2.1009,1.9643,1.9474,1.9561,1.9197,1.9347,1.9588,2.0,2.0189,2.0429,2.0613,2.0761,2.081,2.081,2.081,2.0909,2.1071,2.1199,2.1309,2.1417,2.1675,2.1794,2.1705,2.1945,2.2327,2.2327,2.2304,2.2288,2.2282,2.2333,2.2288,2.2333,2.2412,2.2152,2.1961,2.1417,2.0893,2.0697,2.0478,2.022,2.008,1.9955,1.9863,1.9777,1.9705,1.9705,1.9705,1.9705,1.9705,1.9705,1.9809,1.9854,1.9801,1.9801,2.0122,2.0557,2.1296,2.1896,-1.9017,-1.9793,-2.0502,-2.1162,-2.1749,-2.2187,-2.275,-2.3287,-2.3318,-2.3098,-2.263,-2.2233,-2.1479,-2.0487,-1.9251,-1.8352,-1.7585,-1.5966,-1.4103,-1.2211,-1.0939,-0.9784,-0.8619,-0.7723,-0.6973,-0.6445,-0.5611,-0.4487,-0.3154,-0.1725,-0.039,0.0669,0.2395,0.3284,0.3564,0.4233,0.4897,0.5386,0.5869,0.6573,0.7444,0.829,0.9072,1.0312,1.1801,1.3324,1.4582,1.5414,1.6502,1.7776,1.8536,1.8734,1.8585,1.8685,1.9755,2.1472,2.231,2.2033,2.0625,2.0104,1.9962,1.9346,1.9581,1.9889,2.0154,2.0326,2.0462,2.0728,2.081,2.081,2.0843,2.1071,2.1183,2.1199,2.1402,2.157,2.1721,2.1945,2.1974,2.1811,2.2032,2.2254,2.2344,2.253,2.3173,2.3444,2.3477,2.338,2.2856,2.2823,2.2195,2.1797,2.1293,2.0909,2.0712,2.0444,2.0045,1.9955,1.9919,1.9812,1.9741,1.9705,1.9705,1.9705,1.9705,1.9705,1.972,1.9839,1.9929,1.9921,2.004,2.0423,2.094,2.1581,2.213,-1.9308,-2.0184,-2.1338,-2.1936,-2.2282,-2.2988,-2.3742,-2.4377,-2.4126,-2.3916,-2.3675,-2.3008,-2.2021,-2.0879,-1.933,-1.8401,-1.7274,-1.5636,-1.3705,-1.2073,-1.0637,-0.9311,-0.8041,-0.7015,-0.6138,-0.5977,-0.4922,-0.3721,-0.2498,-0.1002,0.0668,0.1892,0.3277,0.4168,0.478,0.5222,0.5664,0.6204,0.6742,0.7415,0.8176,0.9136,0.9859,1.0677,1.2208,1.3845,1.5101,1.617,1.7397,1.8895,1.961,1.9915,2.0055,2.022,2.1055,2.2678,2.2642,2.1845,2.1,2.0558,2.019,1.9604,1.9869,2.0115,2.0308,2.0395,2.053,2.0695,2.081,2.081,2.0827,2.115,2.1436,2.1517,2.1702,2.188,2.2287,2.2483,2.2559,2.2321,2.2475,2.262,2.275,2.2953,2.3816,2.4526,2.4526,2.4357,2.3799,2.3351,2.2819,2.2302,2.1924,2.1566,2.1358,2.06,2.0218,2.033,2.0189,2.0017,1.9884,1.9735,1.9735,1.9705,1.9705,1.9705,1.975,1.9884,1.9944,1.9995,2.0175,2.0438,2.1066,2.1854,2.2405,-2.0243,-2.1081,-2.2216,-2.3139,-2.3845,-2.412,-2.462,-2.5288,-2.5093,-2.469,-2.3981,-2.3256,-2.2332,-2.1175,-1.9647,-1.8115,-1.6621,-1.5095,-1.3533,-1.1733,-1.0242,-0.8822,-0.7047,-0.614,-0.5265,-0.4275,-0.339,-0.2558,-0.1443,0.0443,0.1779,0.3003,0.4494,0.5328,0.5382,0.5769,0.6317,0.6874,0.7526,0.8318,0.9357,1.0156,1.0854,1.1549,1.3103,1.4644,1.6005,1.6835,1.7726,1.8845,1.9213,1.9866,2.0515,2.0686,2.1506,2.2295,2.1902,2.1213,2.0903,2.0666,2.0198,1.9818,2.0015,2.0308,2.0444,2.0579,2.0679,2.0728,2.081,2.081,2.0827,2.1391,2.1869,2.2097,2.2174,2.2358,2.3513,2.4022,2.3917,2.354,2.3346,2.3122,2.3291,2.3697,2.4644,2.5186,2.5251,2.498,2.4441,2.416,2.3854,2.3325,2.281,2.2465,2.2189,2.1173,2.0528,2.0994,2.091,2.0565,2.0348,1.9929,1.9794,2.0079,1.9914,1.9705,1.9794,1.9959,2.0034,2.0109,2.0273,2.0513,2.1389,2.2299,2.2869,-2.1194,-2.2098,-2.3198,-2.3901,-2.4394,-2.4894,-2.5246,-2.5485,-2.5368,-2.4862,-2.405,-2.3232,-2.2246,-2.105,-1.9682,-1.7772,-1.5823,-1.488,-1.303,-1.0864,-0.9614,-0.7893,-0.5846,-0.4988,-0.3834,-0.2617,-0.1672,-0.1059,-0.0501,0.1166,0.2724,0.3834,0.5324,0.6091,0.6258,0.6642,0.7128,0.7645,0.8172,0.8969,1.0213,1.1122,1.2042,1.2861,1.3901,1.5358,1.6849,1.748,1.8203,1.9117,1.9481,2.006,2.0775,2.1602,2.2091,2.2449,2.141,2.051,2.0608,2.0625,2.0658,2.0137,2.0376,2.0579,2.0628,2.0728,2.081,2.0794,2.081,2.081,2.0843,2.1956,2.2702,2.2944,2.2938,2.3488,2.4363,2.5135,2.5084,2.4712,2.4306,2.4036,2.3883,2.4509,2.549,2.5845,2.5912,2.559,2.5101,2.5021,2.4876,2.3576,2.2948,2.2734,2.2416,2.1778,2.1247,2.1611,2.1769,2.1425,2.0917,2.0528,2.0617,2.0887,2.0528,1.9989,2.0049,2.0303,2.0288,2.0453,2.1201,2.1869,2.2209,2.2727,2.3299,-2.2161,-2.3153,-2.4147,-2.4605,-2.4741,-2.5386,-2.5593,-2.5473,-2.528,-2.479,-2.4035,-2.3181,-2.2122,-2.0719,-1.9046,-1.7085,-1.4631,-1.4089,-1.2097,-0.9906,-0.8684,-0.6935,-0.4907,-0.3498,-0.2617,-0.1506,-0.0223,0.0559,0.0947,0.2057,0.3279,0.4608,0.5982,0.6794,0.7122,0.761,0.8096,0.8487,0.8918,0.9617,1.0849,1.2223,1.325,1.3815,1.4695,1.6011,1.7618,1.7912,1.8548,1.9304,1.9705,1.9999,2.0651,2.1983,2.2752,2.2349,2.0931,2.0222,2.0319,2.0615,2.0751,2.0339,2.0628,2.0761,2.0794,2.0761,2.081,2.0827,2.1119,2.1763,2.2541,2.3539,2.3885,2.3603,2.3991,2.4661,2.5203,2.5744,2.6065,2.5693,2.522,2.5017,2.4983,2.5169,2.6116,2.6268,2.6285,2.6319,2.5981,2.6133,2.5631,2.3824,2.2879,2.2724,2.2532,2.2371,2.2163,2.252,2.2607,2.2473,2.1814,2.1201,2.1321,2.1306,2.1036,2.0587,2.0632,2.0737,2.0887,2.1395,2.2443,2.2832,2.2649,2.3069,2.3705,-2.3288,-2.4024,-2.5038,-2.5447,-2.5439,-2.5564,-2.5576,-2.5466,-2.5206,-2.4721,-2.4055,-2.3181,-2.2014,-2.0268,-1.8015,-1.5874,-1.4103,-1.2753,-1.1254,-0.9099,-0.7535,-0.5882,-0.3996,-0.2726,-0.1672,-0.0558,0.0614,0.1394,0.2169,0.3224,0.4388,0.566,0.6529,0.7289,0.7865,0.8402,0.9033,0.9516,1.0219,1.1128,1.2257,1.3477,1.416,1.48,1.5722,1.6804,1.7945,1.8208,1.861,1.9359,1.9711,1.9447,1.9363,2.1425,2.2044,2.1617,2.0741,2.02,2.0668,2.073,2.0721,2.0618,2.074,2.0793,2.0968,2.108,2.108,2.0827,2.1689,2.3179,2.4829,2.5933,2.543,2.4746,2.4508,2.5357,2.6031,2.6099,2.6437,2.6488,2.5947,2.6099,2.6201,2.6387,2.6607,2.6657,2.6708,2.6708,2.6556,2.6401,2.6068,2.4209,2.3299,2.3161,2.2989,2.279,2.2813,2.3203,2.3206,2.3236,2.2592,2.1889,2.1455,2.1395,2.1246,2.141,2.162,2.171,2.1695,2.1979,2.2592,2.2712,2.2679,2.3296,2.4146,-2.4583,-2.499,-2.5424,-2.5622,-2.564,-2.5589,-2.5504,-2.5364,-2.5045,-2.4582,-2.3934,-2.2876,-2.1131,-1.8921,-1.685,-1.5116,-1.3412,-1.2027,-1.0346,-0.8404,-0.6523,-0.4696,-0.2998,-0.1558,-0.0446,0.0558,0.1728,0.2837,0.3558,0.4275,0.5218,0.6199,0.7176,0.7877,0.8455,0.9033,0.9626,1.0394,1.1453,1.2453,1.3107,1.3908,1.4764,1.53,1.624,1.7087,1.7768,1.8181,1.8499,1.905,1.9159,1.9311,1.9435,2.0302,2.0481,2.0228,2.0415,2.0933,2.1705,2.1135,2.0989,2.1161,2.1327,2.1474,2.1568,2.1824,2.271,2.4116,2.451,2.5441,2.6302,2.6657,2.6286,2.5731,2.5378,2.578,2.642,2.6539,2.6657,2.6691,2.6708,2.6708,2.6708,2.6691,2.6657,2.6674,2.6657,2.6624,2.6175,2.5615,2.5198,2.4455,2.3958,2.3769,2.364,2.3451,2.322,2.3415,2.3415,2.337,2.3101,2.2592,2.2158,2.2084,2.2263,2.2443,2.2637,2.2503,2.2308,2.2398,2.2547,2.2892,2.3308,2.4021,2.4937,-2.5414,-2.5595,-2.5582,-2.5618,-2.5652,-2.5515,-2.5439,-2.5346,-2.4885,-2.4454,-2.3689,-2.2289,-1.9927,-1.7476,-1.5917,-1.4402,-1.2735,-1.1139,-0.9504,-0.7629,-0.5658,-0.3762,-0.2054,-0.0501,0.0725,0.1899,0.3003,0.3834,0.4553,0.5487,0.6244,0.674,0.7545,0.8343,0.8928,0.9577,1.0262,1.1321,1.2603,1.3423,1.3853,1.4434,1.5352,1.6073,1.6733,1.7247,1.788,1.7893,1.8246,1.9089,1.8871,1.9016,1.9475,1.9656,2.0531,2.0729,2.1233,2.1642,2.2453,2.2517,2.1916,2.1948,2.2153,2.2216,2.2552,2.29,2.3894,2.5967,2.5808,2.6133,2.664,2.6708,2.6556,2.6505,2.6472,2.664,2.6708,2.6708,2.6708,2.6708,2.6708,2.6708,2.6708,2.6708,2.6691,2.6691,2.6657,2.6556,2.5908,2.5121,2.4679,2.4261,2.4147,2.3987,2.4002,2.3849,2.3724,2.3595,2.3595,2.34,2.3086,2.3056,2.2862,2.2951,2.3101,2.3131,2.3116,2.3011,2.2921,2.3056,2.3251,2.3684,2.4162,2.4851,2.5697,-2.5476,-2.5598,-2.5515,-2.5524,-2.5586,-2.5476,-2.5404,-2.534,-2.4841,-2.4323,-2.351,-2.1418,-1.8927,-1.6751,-1.5168,-1.3575,-1.176,-0.9864,-0.8495,-0.6903,-0.4965,-0.2938,-0.1278,0.0111,0.1506,0.273,0.3944,0.4663,0.521,0.6735,0.7337,0.7717,0.8184,0.8862,0.9591,1.0343,1.1247,1.2263,1.345,1.4204,1.4629,1.5261,1.6042,1.7157,1.7556,1.7961,1.9052,1.8302,1.8308,1.9595,1.9315,1.9138,1.9565,1.9782,2.092,2.2092,2.2086,2.2591,2.3472,2.35,2.3217,2.2927,2.2848,2.3006,2.347,2.3085,2.4259,2.6064,2.5762,2.5905,2.6332,2.6708,2.6708,2.6708,2.6708,2.6708,2.6708,2.6708,2.6708,2.6708,2.6708,2.6708,2.6674,2.6674,2.659,2.659,2.6104,2.5997,2.5594,2.4918,2.4492,2.4135,2.4067,2.4036,2.4147,2.3994,2.3681,2.3595,2.3595,2.331,2.2966,2.3056,2.3505,2.3415,2.3475,2.355,2.3565,2.3415,2.3385,2.364,2.3879,2.4029,2.4657,2.5393,2.6361,-2.4276,-2.477,-2.4676,-2.4994,-2.5531,-2.5393,-2.5341,-2.5234,-2.4691,-2.3573,-2.2289,-2.0095,-1.8082,-1.6166,-1.4359,-1.2696,-1.0847,-0.9075,-0.7653,-0.5882,-0.3874,-0.2169,-0.0668,0.0835,0.2339,0.3555,0.4875,0.5973,0.6622,0.7711,0.8554,0.8928,0.9079,0.9436,1.0177,1.1253,1.2228,1.2924,1.3979,1.4898,1.5022,1.5302,1.5997,1.7157,1.7124,1.7508,1.818,1.84,1.8783,1.9298,1.9758,2.0062,2.037,2.0615,2.1377,2.2923,2.2722,2.3622,2.3878,2.3873,2.3559,2.3607,2.3544,2.3749,2.4325,2.423,2.4525,2.5233,2.54,2.5684,2.6453,2.6708,2.6708,2.6708,2.6708,2.6708,2.6708,2.6708,2.6708,2.6708,2.6674,2.664,2.664,2.6624,2.6521,2.6418,2.5888,2.5406,2.5036,2.4695,2.4245,2.4009,2.3925,2.3882,2.3952,2.3782,2.3625,2.3684,2.3714,2.361,2.352,2.3849,2.4178,2.4014,2.3909,2.4044,2.4029,2.3789,2.3759,2.3864,2.3939,2.4044,2.4837,2.5914,2.6759,-2.3358,-2.3876,-2.3786,-2.4277,-2.5035,-2.5216,-2.5252,-2.5126,-2.4542,-2.3111,-2.1157,-1.9511,-1.7632,-1.5752,-1.4106,-1.2036,-1.014,-0.8338,-0.6796,-0.5019,-0.3219,-0.1504,-0.0056,0.1446,0.3058,0.4433,0.5697,0.6794,0.7171,0.8302,0.9033,0.9651,1.0123,1.0379,1.0875,1.2008,1.305,1.3644,1.443,1.5486,1.5638,1.5746,1.6324,1.7401,1.7634,1.7955,1.86,1.9007,1.9521,2.002,2.0529,2.1339,2.1842,2.2056,2.192,2.2654,2.3547,2.4599,2.4225,2.4027,2.4065,2.4207,2.4539,2.4713,2.4926,2.5005,2.5067,2.5368,2.5492,2.5832,2.6708,2.6708,2.6708,2.6708,2.6708,2.6708,2.6708,2.6708,2.6708,2.6708,2.6674,2.664,2.6382,2.6277,2.5824,2.568,2.5259,2.4847,2.4599,2.4245,2.3952,2.3782,2.3782,2.3696,2.3653,2.3983,2.4238,2.4358,2.4403,2.4448,2.4492,2.4762,2.4657,2.4403,2.4373,2.4522,2.4477,2.4238,2.4073,2.3969,2.4253,2.4672,2.563,2.6647,2.6901,-2.2971,-2.3003,-2.2939,-2.3361,-2.4113,-2.4886,-2.5122,-2.4873,-2.4271,-2.2911,-2.1003,-1.9771,-1.7763,-1.5468,-1.3946,-1.1746,-0.9313,-0.7653,-0.6103,-0.4316,-0.2558,-0.0779,0.0778,0.2334,0.3776,0.537,0.6465,0.7122,0.7343,0.8817,0.9592,1.0108,1.0787,1.1309,1.1554,1.2419,1.3451,1.4397,1.4939,1.5807,1.6398,1.649,1.7126,1.8035,1.8472,1.873,1.9318,1.9765,2.0327,2.0901,2.1213,2.2045,2.2961,2.3387,2.3736,2.45,2.4855,2.5123,2.4926,2.4934,2.5013,2.4871,2.5029,2.5282,2.51,2.5045,2.5262,2.5605,2.6137,2.6453,2.6708,2.6708,2.6708,2.6708,2.6708,2.6894,2.6911,2.7063,2.7131,2.7266,2.6928,2.6623,2.6222,2.5803,2.5179,2.4829,2.4517,2.4313,2.4193,2.3967,2.3739,2.3696,2.3711,2.3848,2.3954,2.4567,2.4897,2.5032,2.5077,2.5016,2.5181,2.5435,2.5241,2.4852,2.4956,2.5255,2.5001,2.4687,2.4777,2.4941,2.5226,2.5734,2.6647,2.725,2.7385,-2.163,-2.2131,-2.2056,-2.2177,-2.256,-2.3841,-2.4289,-2.4015,-2.3434,-2.2255,-2.0527,-1.9053,-1.713,-1.4998,-1.3037,-1.0972,-0.8476,-0.7239,-0.5684,-0.3335,-0.1782,-0.0278,0.128,0.289,0.444,0.5806,0.6902,0.7877,0.8567,0.9503,1.0167,1.0787,1.1543,1.2008,1.2199,1.2849,1.3805,1.4377,1.5087,1.5956,1.6623,1.6873,1.7429,1.8584,1.8754,1.9179,1.994,2.0439,2.0898,2.1452,2.1667,2.2493,2.3245,2.3681,2.4317,2.516,2.5695,2.6099,2.5764,2.5601,2.5937,2.5557,2.5282,2.5408,2.5037,2.5005,2.5362,2.5937,2.6485,2.6708,2.6708,2.6725,2.6725,2.6708,2.681,2.7249,2.7452,2.7689,2.7858,2.8026,2.7872,2.7048,2.6515,2.6174,2.5556,2.4933,2.4713,2.4334,2.4146,2.3885,2.3653,2.3653,2.3655,2.3924,2.4283,2.5046,2.539,2.545,2.545,2.542,2.5659,2.6078,2.6033,2.5779,2.5854,2.5929,2.5734,2.563,2.5854,2.6078,2.6198,2.6408,2.7051,2.7395,2.747,-2.0753,-2.1234,-2.1179,-2.112,-2.1339,-2.2825,-2.3353,-2.3084,-2.2687,-2.1647,-1.9916,-1.8162,-1.62,-1.4191,-1.2184,-0.9936,-0.7494,-0.6269,-0.4754,-0.2399,-0.0947,0.039,0.1838,0.3448,0.4988,0.6298,0.7278,0.8203,0.8896,0.9658,1.0576,1.1601,1.2421,1.2686,1.2861,1.3343,1.3942,1.4512,1.5384,1.602,1.6514,1.6961,1.7614,1.836,1.8827,1.9103,2.0155,2.0772,2.1153,2.1527,2.2049,2.2663,2.3128,2.3752,2.4261,2.5111,2.62,2.6869,2.7139,2.6385,2.635,2.5663,2.5535,2.5622,2.5671,2.5846,2.6578,2.7028,2.6975,2.6759,2.6742,2.6776,2.7402,2.7418,2.7385,2.7841,2.818,2.8433,2.8513,2.8679,2.8386,2.7578,2.6805,2.6513,2.607,2.5513,2.4957,2.4609,2.4321,2.4115,2.4029,2.4118,2.4163,2.4477,2.5031,2.5779,2.6004,2.5959,2.6004,2.6078,2.6393,2.6826,2.6767,2.6647,2.6452,2.6363,2.6542,2.6617,2.6722,2.6797,2.6886,2.7156,2.753,2.7619,2.7664,-2.0476,-2.0391,-2.0341,-2.0345,-2.0573,-2.1866,-2.2331,-2.218,-2.203,-2.1073,-1.942,-1.7475,-1.5464,-1.3341,-1.1358,-0.9057,-0.6689,-0.5128,-0.3379,-0.1726,-0.0112,0.1115,0.2613,0.4213,0.5638,0.6735,0.7664,0.8468,0.8962,1.0171,1.1345,1.233,1.2978,1.331,1.3535,1.3713,1.4185,1.4871,1.5461,1.6092,1.6622,1.717,1.7978,1.8638,1.9024,1.9634,2.051,2.1166,2.1458,2.1827,2.2235,2.268,2.3216,2.3894,2.412,2.4813,2.6182,2.7422,2.8497,2.7709,2.682,2.6293,2.6529,2.6767,2.6766,2.6759,2.7499,2.8089,2.8159,2.7333,2.6793,2.7807,2.8772,2.8569,2.8298,2.8602,2.8975,2.9141,2.9147,2.9025,2.8649,2.7956,2.7048,2.6641,2.6581,2.6152,2.5725,2.5543,2.5198,2.4792,2.4792,2.5076,2.5136,2.5211,2.5779,2.6422,2.6677,2.6647,2.6931,2.7066,2.7415,2.74,2.7186,2.6976,2.6752,2.6737,2.6931,2.7186,2.749,2.7565,2.759,2.7455,2.7679,2.7814,2.794,-2.0413,-2.0391,-2.0262,-2.02,-2.0221,-2.0591,-2.1025,-2.1458,-2.1457,-2.0462,-1.8484,-1.6792,-1.4663,-1.2656,-1.0573,-0.817,-0.6065,-0.4191,-0.2378,-0.0722,0.0836,0.2227,0.3613,0.5046,0.6352,0.7337,0.8162,0.8838,0.9806,1.0897,1.2271,1.3551,1.3333,1.3768,1.4073,1.4185,1.4552,1.5001,1.5563,1.6199,1.6905,1.7549,1.8407,1.919,1.9527,2.0207,2.097,2.1326,2.1602,2.1921,2.2282,2.268,2.2979,2.3508,2.3967,2.4842,2.6041,2.7264,2.8833,2.8498,2.7565,2.7028,2.7249,2.7153,2.7154,2.7412,2.8197,2.8727,2.9374,2.8873,2.8112,2.8602,2.955,2.9786,2.9414,2.9211,2.9529,2.9597,2.9616,2.9533,2.9099,2.8302,2.7426,2.7128,2.7055,2.6748,2.6486,2.6366,2.6063,2.563,2.557,2.5869,2.5854,2.5869,2.6303,2.6916,2.722,2.743,2.7565,2.756,2.7515,2.7455,2.7425,2.7365,2.7245,2.7245,2.732,2.7649,2.8105,2.8218,2.8278,2.7993,2.7829,2.8098,2.8308,-2.0324,-2.0276,-2.0139,-1.9876,-1.9582,-1.9611,-1.9726,-1.971,-1.9943,-1.8967,-1.7061,-1.5346,-1.3392,-1.1103,-0.9102,-0.6919,-0.4566,-0.2925,-0.1274,0.0223,0.184,0.2983,0.433,0.5597,0.6814,0.7767,0.853,0.9173,1.0325,1.1452,1.273,1.3892,1.3581,1.3967,1.4226,1.4125,1.4264,1.4931,1.5692,1.6372,1.7029,1.7751,1.8714,1.9761,2.0055,2.0597,2.1313,2.152,2.1855,2.2077,2.2434,2.2799,2.3155,2.3718,2.3906,2.4825,2.6301,2.7581,2.8794,2.8558,2.7969,2.7666,2.775,2.7715,2.7784,2.8036,2.8751,2.9376,3.0185,3.0581,2.982,2.933,3.0209,3.1021,3.0429,2.9854,2.9905,2.9978,2.9996,2.9992,2.9484,2.8697,2.8153,2.7834,2.7565,2.7265,2.713,2.7115,2.6767,2.6348,2.6393,2.6662,2.6542,2.6452,2.6965,2.728,2.7415,2.755,2.758,2.756,2.756,2.756,2.753,2.7664,2.7865,2.7829,2.7874,2.8308,2.8697,2.8831,2.8951,2.8846,2.8727,2.8831,2.8981,-2.0227,-2.0088,-1.9918,-1.9401,-1.877,-1.8851,-1.8209,-1.7113,-1.7492,-1.6917,-1.5253,-1.3531,-1.1531,-0.954,-0.767,-0.5586,-0.3419,-0.1661,-0.0167,0.1119,0.2701,0.3925,0.4862,0.5858,0.7298,0.8165,0.8979,0.9834,1.0844,1.2129,1.3413,1.4124,1.3701,1.4027,1.4822,1.4321,1.4563,1.5334,1.6013,1.6667,1.6962,1.7566,1.8449,1.9788,2.0232,2.0521,2.1299,2.1807,2.2137,2.231,2.2586,2.3038,2.3496,2.3956,2.4088,2.5032,2.6626,2.772,2.8466,2.8398,2.842,2.8168,2.7917,2.8215,2.8442,2.7989,2.8396,2.9932,3.0858,3.1038,3.0429,3.0243,3.0835,3.1044,3.0645,3.032,3.0319,3.0186,2.9868,2.9911,2.9844,2.906,2.8046,2.7715,2.788,2.77,2.773,2.7724,2.7515,2.7096,2.7186,2.741,2.716,2.7025,2.7186,2.744,2.7485,2.756,2.7575,2.756,2.756,2.759,2.7634,2.7993,2.8397,2.8397,2.8502,2.8861,2.9131,2.931,2.946,2.9654,2.9699,2.9744,2.9684,-2.0142,-1.9972,-1.9537,-1.9034,-1.8463,-1.7793,-1.6675,-1.5266,-1.4543,-1.4337,-1.3942,-1.226,-1.0393,-0.8359,-0.6498,-0.4464,-0.2388,-0.0447,0.1059,0.232,0.3775,0.4826,0.5801,0.6937,0.8086,0.8852,0.9721,1.0842,1.1849,1.3267,1.4513,1.5118,1.4759,1.502,1.5785,1.5185,1.5282,1.5981,1.6447,1.6965,1.7252,1.7972,1.8919,2.0028,2.061,2.0809,2.1471,2.1888,2.2203,2.2434,2.2859,2.3172,2.3509,2.382,2.4911,2.6309,2.6915,2.7922,2.8356,2.8463,2.8513,2.8794,2.8805,2.8973,2.8774,2.7865,2.8271,3.0085,3.1112,3.1151,3.1241,3.1202,3.1213,3.1059,3.0838,3.0773,3.0708,3.0231,2.9738,2.9812,2.9925,2.9308,2.8324,2.794,2.806,2.8158,2.8293,2.8338,2.8233,2.7964,2.7979,2.8038,2.7655,2.7535,2.759,2.7619,2.7685,2.7685,2.7685,2.7655,2.7604,2.7874,2.8158,2.8637,2.8996,2.8906,2.8921,2.9175,2.9445,2.9699,3.0088,3.0328,3.0672,3.0791,3.0597,-1.9599,-1.97,-1.9246,-1.8537,-1.7705,-1.6897,-1.5615,-1.3934,-1.2465,-1.1643,-1.1312,-1.0225,-0.8795,-0.6956,-0.5213,-0.3231,-0.1128,0.0683,0.2081,0.3397,0.4656,0.5703,0.684,0.7951,0.9026,0.9897,1.134,1.2456,1.2975,1.41,1.5194,1.5413,1.5426,1.5801,1.6365,1.6008,1.6151,1.6752,1.7,1.7286,1.7665,1.8302,1.9108,2.0161,2.0772,2.1046,2.1506,2.201,2.2526,2.2979,2.3491,2.3555,2.382,2.4103,2.4672,2.5772,2.6873,2.8139,2.8467,2.8559,2.8542,2.8873,2.9453,2.9531,2.9955,2.927,2.9095,3.0658,3.1072,3.1207,3.1443,3.1486,3.17,3.1692,3.0999,3.0516,3.0342,3.0012,2.9736,2.9685,2.9955,3.0213,2.9289,2.8539,2.8629,2.8487,2.8667,2.8712,2.8652,2.8921,2.8921,2.8846,2.8517,2.7874,2.7575,2.77,2.7805,2.779,2.7835,2.7904,2.8053,2.8397,2.8742,2.9235,2.9445,2.922,2.931,2.9639,2.9864,3.0118,3.0582,3.1061,3.136,3.1467,3.124,-1.8983,-1.9239,-1.8806,-1.7889,-1.6715,-1.5991,-1.4669,-1.2808,-1.0863,-0.9175,-0.8051,-0.7847,-0.6536,-0.5008,-0.3558,-0.153,0.0288,0.1983,0.328,0.427,0.5555,0.6605,0.7567,0.8589,1.0033,1.1383,1.259,1.3271,1.3773,1.4792,1.5285,1.519,1.5477,1.5883,1.6049,1.614,1.6457,1.7229,1.7609,1.7771,1.8093,1.841,1.9328,2.0086,2.0725,2.0987,2.1547,2.2197,2.2922,2.3308,2.3819,2.3851,2.3894,2.4103,2.4331,2.5218,2.6653,2.7873,2.8561,2.8446,2.8523,2.8805,2.9546,3.0101,3.0534,3.0843,3.0685,3.0724,3.1132,3.1628,3.1858,3.1892,3.2131,3.2183,3.1292,3.0465,3.0218,2.999,2.9871,2.9807,3.013,3.0593,2.9843,2.9109,2.9101,2.9011,2.8966,2.8936,2.9086,2.9654,2.9968,2.9939,2.9774,2.9011,2.8023,2.7775,2.7925,2.818,2.8218,2.8338,2.8532,2.8861,2.928,2.9834,2.9924,2.9684,2.9879,3.0253,3.0432,3.0447,3.0911,3.1315,3.139,3.1467,3.1467,-1.8888,-1.832,-1.7855,-1.7098,-1.6084,-1.4554,-1.3141,-1.1752,-0.9401,-0.7621,-0.6463,-0.4877,-0.3762,-0.3272,-0.2439,-0.0805,0.1212,0.3019,0.4027,0.4852,0.6646,0.7634,0.8572,0.9697,1.1561,1.272,1.3391,1.3735,1.4514,1.5225,1.5863,1.6385,1.6386,1.6813,1.7489,1.7523,1.7554,1.8136,1.8355,1.8558,1.907,1.9421,1.9618,2.0393,2.1193,2.156,2.2069,2.2771,2.3062,2.3345,2.36,2.3717,2.3774,2.3996,2.4456,2.5726,2.7111,2.7581,2.8168,2.8486,2.8701,2.9061,2.9741,3.0313,3.0975,3.1908,3.1707,3.1378,3.1867,3.271,3.2934,3.2552,3.257,3.2406,3.1848,3.1166,3.0665,3.0534,3.0416,3.0388,3.0493,3.0028,2.8981,2.8996,2.9864,2.9819,2.9849,2.9819,2.9759,3.0342,3.0911,3.0851,3.0776,2.9879,2.8771,2.8068,2.8105,2.8368,2.8771,2.9101,2.931,2.9355,2.9789,3.0253,3.0328,3.0148,3.0447,3.0447,3.0627,3.0672,3.1135,3.1465,3.1467,3.1689,3.1824]},{"header":{"parameterUnit":"m.s-1","parameterCategory":1,"la1":31.0,"la2":29.5877,"lo1":-88.7671,"lo2":-86.6584,"dy":0.0162,"dx":0.0185,"nx":115,"ny":88,"refTime":"2024-02-21T06:00:00:Z","depth":0,"parameterNumber":3,"parameterNumberName":"V-component_of_WINDS"},"data":[0.0,0.0,0.0,0.0,0.0,0.0,0.0,0.0,0.0,0.0,0.0,0.0,0.0,0.0,0.0,0.0,0.0,0.0,0.0,0.0,0.0,0.0,0.0,0.0,0.0,0.0,0.0,0.0,0.0,0.0,0.0,0.0,0.0,0.0,0.0,0.0,0.0,0.0,0.0,0.0,0.0,0.0,0.0,0.0,0.0,0.0,0.0,0.0,0.0,0.0,0.0,0.0,0.0,0.0,0.0,0.0,0.0,0.0,0.0,0.0,0.0,0.0,0.0,0.0,0.0,0.0,0.0,0.0,0.0,0.0,0.0,0.0,0.0,0.0,0.0,0.0,0.0,0.0,0.0,0.0,0.0,0.0,0.0,0.0,0.0,0.0,0.0,0.0,0.0,0.0,0.0,0.0,0.0,0.0,0.0,0.0,0.0,0.0,0.0,0.0,0.0,0.0,0.0,0.0,0.0,0.0,0.0,0.0,0.0,0.0,0.0,0.0,0.0,0.0,0.0,0.0,0.0,0.0,0.0,0.0,0.0,0.0,0.0,0.0,0.0,0.0,0.0,0.0,0.0,0.0,0.0,0.0,0.0,0.0,0.0,0.0,0.0,0.0,0.0,0.0,0.0,0.0,0.0,0.0,0.0,0.0,0.0,0.0,0.0,0.0,0.0,0.0,0.0,0.0,0.0,0.0,0.0,0.0,0.0,0.0,0.0,0.0,0.0,0.0,0.0,0.0,0.0,0.0,0.0,0.0,0.0,0.0,0.0,0.0,0.0,0.0,0.0,0.0,0.0,0.0,0.0,0.0,0.0,0.0,0.0,0.0,0.0,0.0,0.0,0.0,0.0,0.0,0.0,0.0,0.0,0.0,0.0,0.0,0.0,0.0,0.0,0.0,0.0,0.0,0.0,0.0,0.0,0.0,0.0,0.0,0.0,0.0,0.0,0.0,0.0,0.0,0.0,0.0,0.0,0.0,0.0,0.0,0.0,0.0,0.0,0.0,0.0,0.0,0.0,0.0,0.0,0.0,0.0,0.0,0.0,0.0,0.0,0.0,0.0,0.0,0.0,0.0,0.0,0.0,0.0,0.0,0.0,0.0,0.0,0.0,0.0,0.0,0.0,0.0,0.0,0.0,0.0,0.0,0.0,0.0,0.0,0.0,0.0,0.0,0.0,0.0,0.0,0.0,0.0,0.0,0.0,0.0,0.0,0.0,0.0,0.0,0.0,0.0,0.0,0.0,0.0,0.0,0.0,0.0,0.0,0.0,0.0,0.0,0.0,0.0,0.0,0.0,0.0,0.0,0.0,0.0,0.0,0.0,0.0,0.0,0.0,0.0,0.0,0.0,0.0,0.0,0.0,0.0,0.0,0.0,0.0,0.0,0.0,0.0,0.0,0.0,0.0,0.0,0.0,0.0,0.0,0.0,0.0,0.0,0.0,0.0,0.0,0.0,0.0,0.0,0.0,0.0,0.0,0.0,0.0,0.0,0.0,0.0,0.0,0.0,0.0,0.0,0.0,0.0,0.0,0.0,0.0,0.0,0.0,0.0,0.0,0.0,0.0,0.0,0.0,0.0,0.0,0.0,0.0,0.0,0.0,0.0,0.0,0.0,0.0,0.0,0.0,0.0,0.0,0.0,0.0,0.0,0.0,0.0,0.0,0.0,0.0,0.0,0.0,0.0,0.0,0.0,0.0,0.0,0.0,0.0,0.0,0.0,0.0,0.0,0.0,0.0,0.0,0.0,0.0,0.0,0.0,0.0,0.0,0.0,0.0,0.0,0.0,0.0,0.0,0.0,0.0,0.0,0.0,0.0,0.0,0.0,0.0,0.0,0.0,0.0,0.0,0.0,0.0,0.0,0.0,0.0,0.0,0.0,0.0,0.0,0.0,0.0,0.0,0.0,0.0,0.0,0.0,0.0,0.0,0.0,0.0,0.0,0.0,0.0,0.0,0.0,0.0,0.0,0.0,0.0,0.0,0.0,0.0,0.0,0.0,0.0,0.0,0.0,0.0,0.0,0.0,0.0,0.0,0.0,0.0,0.0,0.0,0.0,0.0,0.0,0.0,0.0,0.0,0.0,0.0,0.0,0.0,0.0,0.0,0.0,0.0,0.0,0.0,0.0,0.0,0.0,0.0,0.0,0.0,0.0,0.0,0.0,0.0,0.0,0.0,0.0,0.0,0.0,0.0,0.0,0.0,0.0,0.0,0.0,0.0,0.0,0.0,0.0,0.0,0.0,0.0,0.0,0.0,0.0,0.0,0.0,0.0,0.0,0.0,0.0,0.0,0.0,0.0,0.0,0.0,0.0,0.0,0.0,0.0,0.0,0.0,0.0,0.0,0.0,0.0,0.0,0.0,0.0,0.0,0.0,0.0,0.0,0.0,0.0,0.0,0.0,0.0,0.0,0.0,0.0,0.0,0.0,0.0,0.0,0.0,0.0,0.0,0.0,0.0,0.0,0.0,0.0,0.0,0.0,0.0,0.0,0.0,0.0,0.0,0.0,0.0,0.0,0.0,0.0,0.0,0.0,0.0,0.0,0.0,0.0,0.0,0.0,0.0,0.0,0.0,0.0,0.0,0.0,0.0,0.0,0.0,0.0,0.0,0.0,0.0,0.0,0.0,0.0,0.0,0.0,0.0,0.0,0.0,0.0,0.0,0.0,0.0,0.0,0.0,0.0,0.0,0.0,0.0,0.0,0.0,0.0,0.0,0.0,0.0,0.0,0.0,0.0,0.0,0.0,0.0,0.0,0.0,0.0,0.0,0.0,0.0,0.0,0.0,0.0,0.0,0.0,0.0,0.0,0.0,0.0,0.0,0.0,0.0,0.0,0.0,0.0,0.0,0.0,0.0,0.0,0.0,0.0,0.0,0.0,0.0,0.0,0.0,0.0,0.0,0.0,0.0,0.0,0.0,0.0,0.0,0.0,0.0,0.0,0.0,0.0,0.0,0.0,0.0,0.0,0.0,0.0,0.0,0.0,0.0,0.0,0.0,0.0,0.0,0.0,0.0,0.0,0.0,0.0,0.0,0.0,0.0,0.0,0.0,0.0,0.0,0.0,0.0,0.0,0.0,0.0,0.0,0.0,0.0,0.0,0.0,0.0,0.0,0.0,0.0,0.0,0.0,0.0,0.0,0.0,0.0,0.0,0.0,0.0,0.0,0.0,0.0,0.0,0.0,0.0,0.0,0.0,0.0,0.0,0.0,0.0,0.0,0.0,0.0,0.0,0.0,0.0,0.0,0.0,0.0,0.0,0.0,0.0,0.0,0.0,0.0,0.0,0.0,0.0,0.0,0.0,0.0,0.0,0.0,0.0,0.0,0.0,0.0,0.0,0.0,0.0,0.0,0.0,0.0,0.0,0.0,0.0,0.0,0.0,0.0,0.0,0.0,0.0,0.0,0.0,0.0,0.0,0.0,0.0,0.0,0.0,0.0,0.0,0.0,0.0,0.0,0.0,0.0,0.0,0.0,0.0,0.0,0.0,0.0,0.0,0.0,0.0,0.0,0.0,0.0,0.0,0.0,0.0,0.0,0.0,0.0,0.0,0.0,0.0,0.0,0.0,0.0,0.0,0.0,0.0,0.0,0.0,0.0,0.0,0.0,0.0,0.0,0.0,0.0,0.0,0.0,0.0,0.0,0.0,0.0,0.0,0.0,0.0,0.0,0.0,0.0,0.0,0.0,0.0,0.0,0.0,0.0,0.0,0.0,0.0,0.0,0.0,0.0,0.0,0.0,0.0,0.0,0.0,0.0,0.0,0.0,0.0,0.0,0.0,0.0,0.0,0.0,0.0,0.0,0.0,0.0,0.0,0.0,0.0,0.0,0.0,0.0,0.0,0.0,0.0,0.0,0.0,0.0,0.0,0.0,0.0,0.0,0.0,0.0,0.0,0.0,0.0,0.0,0.0,0.0,0.0,0.0,0.0,0.0,0.0,0.0,0.0,0.0,0.0,0.0,0.0,0.0,0.0,0.0,0.0,0.0,0.0,0.0,0.0,0.0,0.0,0.0,0.0,0.0,0.0,0.0,0.0,0.0,0.0,0.0,0.0,0.0,0.0,0.0,0.0,0.0,0.0,0.0,0.0,0.0,0.0,0.0,0.0,0.0,0.0,0.0,0.0,0.0,0.0,0.0,0.0,0.0,0.0,0.0,0.0,0.0,0.0,0.0,0.0,0.0,0.0,0.0,0.0,0.0,0.0,0.0,0.0,0.0,0.0,0.0,0.0,0.0,0.0,0.0,0.0,0.0,0.0,0.0,0.0,0.0,0.0,0.4747,0.0,0.0,0.0,0.0,0.0,0.0,0.0,0.0,0.0,0.0,0.0,0.0,0.0,0.0,0.0,0.0,0.0,0.0,0.0,0.0,0.0,0.0,0.0,0.0,0.0,0.0,0.0,0.0,0.0,0.0,0.0,0.0,0.0,0.0,0.0,0.0,0.0,0.0,0.0,0.0,0.0,0.0,0.0,0.0,0.0,0.0,0.0,0.0,0.0,0.0,0.0,0.0,0.0,0.0,0.0,0.0,0.0,0.0,0.0,0.0,0.0,0.0,0.0,0.0,0.0,0.0,0.0,0.0,0.0,0.0,0.0,0.0,0.0,0.0,0.0,0.0,0.0,0.0,0.0,0.0,0.0,0.0,0.0,0.0,0.0,0.0,0.0,0.0,0.0,0.0,0.0,0.0,0.0,0.0,0.0,0.0,0.0,0.0,0.0,0.0,0.0,0.0,0.0,0.0,0.0,0.0,0.0,0.0,0.0,0.0,0.3906,0.4016,0.446,0.4723,0.4755,0.0,0.0,0.0,0.0,0.0,0.0,0.0,0.0,0.0,0.0,0.0,0.0,0.0,0.0,0.0,0.0,0.0,0.0,0.0,0.0,0.0,0.0,0.0,0.0,0.0,0.0,0.0,0.0,0.0,0.0,0.0,0.0,0.0,0.0,0.0,0.0,0.0,0.0,0.0,0.0,0.0,0.0,0.0,0.0,0.0,0.0,0.0,0.0,0.0,0.0,0.0,0.0,0.0,0.0,0.0,0.0,0.0,0.0,0.0,0.0,0.0,0.0,0.0,0.0,0.0,0.0,0.0,0.0,0.0,0.0,0.0,0.0,0.0,0.0,0.0,0.0,0.0,0.0,0.0,0.0,0.0,0.0,0.0,0.0,0.0,0.0,0.0,0.0,0.0,0.0,0.0,0.0,0.0,0.0,0.0,0.0,0.0,0.0,0.0,0.0,0.0,0.0,0.0,0.0,0.0,0.0,0.0,0.0,0.0,0.0,0.0,0.0,0.501,0.4896,0.5106,0.0,0.0,0.0,0.0,0.0,0.0,0.0,0.0,0.0,0.0,0.0,0.0,0.0,0.0,0.0,0.0,0.0,0.0,0.0,0.0,0.0,0.0,0.0,0.0,0.0,0.0,0.0,0.0,0.0,0.0,0.0,0.0,0.0,0.0,0.0,0.0,0.0,0.0,0.0,0.0,0.0,0.0,0.0,0.0,0.0,0.0,0.0,0.0,0.0,0.0,0.0,0.0,0.0,0.0,0.0,0.0,0.0,0.0,0.0,0.0,0.0,0.0,0.0,0.0,0.0,0.0,0.0,0.0,0.0,0.0,0.0,0.0,0.0,0.0,0.0,0.0,0.0,0.0,0.0,0.0,0.0,0.0,0.0,0.0,0.0,0.0,0.0,0.0,0.0,0.0,0.0,0.0,0.0,0.0,0.0,0.0,0.0,0.0,0.0,0.0,0.0,0.0,0.0,0.0,0.0,0.0,0.0,0.0,0.0,0.0,0.573,0.9019,0.6321,0.0,0.625,0.0,0.0,0.0,0.0,0.0,0.0,0.0,0.0,0.0,0.0,0.0,0.0,0.0,0.0,0.0,0.0,0.0,0.0,0.0,0.0,0.0,0.0,0.0,0.0,0.0,0.0,0.0,0.0,0.0,0.0,0.0,0.0,0.0,0.0,0.0,0.0,0.0,0.0,0.0,0.0,0.0,0.0,0.0,0.0,0.0,0.0,0.0,0.0,0.0,0.0,0.0,0.0,0.0,0.0,0.0,0.0,0.0,0.0,0.0,0.0,0.0,0.0,0.0,0.0,0.0,0.0,0.0,0.0,0.0,0.0,0.0,0.0,0.0,0.0,0.0,0.0,0.0,0.0,0.0,0.0,0.0,0.0,0.0,0.0,0.0,0.0,0.0,0.0,0.0,0.0,0.0,0.0,0.0,0.0,0.0,0.0,0.0,0.0,0.0,0.0,0.0,0.0,0.0,0.0,0.0,0.0,0.0,0.0,0.0,0.0,0.5977,0.8572,0.7175,0.6738,0.0,0.0,0.0,0.0,0.0,0.0,0.0,0.0,0.0,0.0,0.0,0.0,0.0,0.0,0.0,0.0,0.0,0.0,0.0,0.0,0.0,0.0,0.0,0.0,0.0,0.0,0.0,0.0,0.0,0.0,0.0,0.0,0.0,0.0,0.0,0.0,0.0,0.0,0.0,0.0,0.0,0.0,0.0,0.0,0.0,0.0,0.0,0.0,0.0,0.0,0.0,0.0,0.0,0.0,0.0,0.0,0.0,0.0,0.0,0.0,0.0,0.0,0.0,0.0,0.0,0.0,0.0,0.0,0.0,0.0,0.0,0.0,0.0,0.0,0.0,0.0,0.0,0.0,0.0,0.0,0.0,0.0,0.0,0.0,0.0,0.0,0.0,0.0,0.0,0.0,0.0,0.0,0.0,0.0,0.0,0.0,0.0,0.0,0.0,0.0,0.0,0.0,0.0,0.0,0.0,0.0,0.0,0.0,0.0,0.0,0.5696,0.66,0.8375,0.8,0.7601,0.7327,0.0,0.0,0.0,0.0,0.0,0.0,0.0,0.0,0.0,0.0,0.0,0.0,0.0,0.0,0.0,0.0,0.0,0.0,0.0,0.0,0.0,0.0,0.0,0.0,0.0,0.0,0.0,0.0,0.0,0.0,0.0,0.0,0.0,0.0,0.0,0.0,0.0,0.0,0.0,0.0,0.0,0.0,0.0,0.0,0.0,0.0,0.0,0.0,0.0,0.0,0.0,0.0,0.0,0.0,0.0,0.0,0.0,0.0,0.0,0.0,0.0,0.0,0.0,0.0,0.0,0.0,0.0,0.0,0.0,0.0,0.0,0.0,0.0,0.0,0.0,0.0,0.0,0.0,0.0,0.0,0.0,0.0,0.0,0.0,0.0,0.0,0.0,0.0,0.0,0.0,0.0,0.0,0.0,0.0,0.0,0.0,0.0,0.0,0.0,0.0,0.0,0.0,0.0,0.0,0.0,0.0,0.0,0.0,0.7208,0.7208,0.8127,0.9942,0.89,0.7307,0.0,0.0,0.0,0.0,0.0,0.0,0.0,0.0,0.0,0.0,0.0,0.0,0.0,0.0,0.0,0.0,0.0,0.0,0.0,0.0,0.0,0.0,0.0,0.0,0.0,0.0,0.0,0.0,0.0,0.0,0.0,0.0,0.0,0.0,0.0,0.0,0.0,0.0,0.0,0.0,0.0,0.0,0.0,0.0,0.0,0.0,0.0,0.0,0.0,0.0,0.0,0.0,0.0,0.0,0.0,0.0,0.0,0.0,0.0,0.0,0.0,0.0,0.0,0.0,0.0,0.0,0.0,0.0,0.0,0.0,0.0,0.0,0.0,0.0,0.0,0.0,0.0,0.0,0.0,0.0,0.0,0.0,0.0,0.0,0.0,0.0,0.0,0.0,0.0,0.0,0.0,0.0,0.0,0.0,0.0,0.0,0.0,0.0,0.0,0.0,0.0,0.0,0.0,0.0,0.0,0.0,0.0,0.0,0.0,0.8675,0.8897,0.8979,0.9094,0.829,0.7993,0.0,0.0,0.0,0.0,0.0,0.0,0.0,0.0,0.0,0.0,0.0,0.0,0.0,0.0,0.0,0.0,0.0,0.0,0.0,0.0,0.0,0.0,0.0,0.0,0.0,0.0,0.0,0.0,0.0,0.0,0.0,0.0,0.0,0.0,0.0,0.0,0.0,0.0,0.0,0.0,0.0,0.0,0.0,0.0,0.0,0.0,0.0,0.0,0.0,0.0,0.0,0.0,0.0,0.0,0.0,0.0,0.0,0.0,0.0,0.0,0.0,0.0,0.0,0.0,0.0,0.0,0.0,0.0,0.0,0.0,0.0,0.0,0.0,0.0,0.0,0.0,0.0,0.0,0.0,0.0,0.0,0.0,0.0,0.0,0.0,0.0,0.0,0.0,0.0,0.0,0.0,0.0,0.0,0.0,0.0,0.0,0.0,0.0,0.0,0.0,0.0,0.0,0.0,0.0,0.0,0.0,0.0,0.0,0.0,0.9169,0.0,0.926,0.8435,0.8112,0.829,0.0,0.0,0.0,0.0,0.0,0.0,0.0,0.0,0.0,0.0,0.0,0.0,0.0,0.0,0.0,0.0,0.0,0.0,0.0,0.0,0.0,0.0,0.0,0.0,0.0,0.0,0.0,0.0,0.0,0.0,0.0,0.0,0.0,0.0,0.0,0.0,0.0,0.0,0.0,0.0,0.0,0.0,0.0,0.0,0.0,0.0,0.0,0.0,0.0,0.0,0.0,0.0,0.0,0.0,0.0,0.0,0.0,0.0,0.0,0.0,0.0,0.0,0.0,0.0,0.0,0.0,0.0,0.0,0.0,0.0,0.0,0.0,0.0,0.0,0.0,0.0,0.0,0.0,0.0,0.0,0.0,0.0,0.0,0.0,0.0,0.0,0.0,0.0,0.0,0.0,0.0,0.0,0.0,0.0,0.0,0.0,0.0,0.0,0.0,0.0,0.0,0.0,0.0,0.0,0.0,0.0,0.0,0.0,0.4575,0.844,0.9103,0.8974,0.8268,0.8473,0.8033,0.0,0.0,0.0,0.0,0.0,0.0,0.0,0.0,0.0,0.0,0.0,0.0,0.0,0.0,0.0,0.0,0.0,0.0,0.0,0.0,0.0,0.0,0.0,0.0,0.0,0.0,0.0,0.0,0.0,0.0,0.0,0.0,0.0,0.0,0.0,0.0,0.0,0.0,0.0,0.0,0.0,0.0,0.0,0.0,0.0,0.0,0.0,0.0,0.0,0.0,0.0,0.0,0.0,0.0,0.0,0.0,0.0,0.0,0.0,0.0,0.0,0.0,0.0,0.0,0.0,0.0,0.0,0.0,0.0,0.0,0.0,0.0,0.0,0.0,0.0,0.0,0.0,0.0,0.0,0.0,0.0,0.0,0.0,0.0,0.0,0.0,0.0,0.0,0.0,0.0,0.0,0.0,0.0,0.0,0.0,0.0,0.0,0.0,0.0,0.0,0.0,0.0,0.0,0.0,0.0,0.0,0.0,0.0,0.0,0.5778,0.7068,0.8296,0.9333,0.8018,0.8052,0.0,0.0,0.0,0.0,0.0,0.0,0.0,0.0,0.0,0.0,0.0,0.0,0.0,0.0,0.0,0.0,0.0,0.0,0.0,0.0,0.0,0.0,0.0,0.0,0.0,0.0,0.0,0.0,0.0,0.0,0.0,0.0,0.0,0.0,0.0,0.0,0.0,0.0,0.0,0.0,0.0,0.0,0.0,0.0,0.0,0.0,0.0,0.0,0.0,0.0,0.0,0.0,0.0,0.0,0.0,0.0,0.0,0.0,0.0,0.0,0.0,0.0,0.0,0.0,0.0,0.0,0.0,0.0,0.0,0.0,0.0,0.0,0.0,0.0,0.0,0.0,0.0,0.0,0.0,0.0,0.0,0.0,0.0,0.0,0.0,0.0,0.0,0.0,0.0,0.0,0.0,0.0,0.0,0.0,0.0,0.0,0.0,0.0,0.0,0.0,0.0,0.0,0.0,0.0,0.0,0.0,0.0,0.0,0.0,0.4779,0.6155,0.7575,0.892,0.7935,0.8152,0.9718,0.0,0.0,0.0,0.0,0.0,0.0,0.0,0.0,0.0,0.0,0.0,0.0,0.0,0.0,0.0,0.0,0.0,0.0,0.0,0.0,0.0,0.0,0.0,0.0,0.0,0.0,0.0,0.0,0.0,0.0,0.0,0.0,0.0,0.0,0.0,0.0,0.0,0.0,0.0,0.0,0.0,0.0,0.0,0.0,0.0,0.0,0.0,0.0,0.0,0.0,0.0,0.0,0.0,0.0,0.0,0.0,0.0,0.0,0.0,0.0,0.0,0.0,0.0,0.0,0.0,0.0,0.0,0.0,0.0,0.0,0.0,0.0,0.0,0.0,0.0,0.0,0.0,0.0,0.0,0.0,0.0,0.0,0.0,0.0,0.0,0.0,0.0,0.0,0.0,0.0,0.0,0.0,0.0,0.0,0.0,0.0,0.0,0.0,0.0,0.0,0.0,0.0,0.0,0.0,0.0,0.0,0.0,0.0,0.5222,0.6257,0.6972,0.732,0.8259,0.838,0.0,0.0,0.0,0.0,0.0,0.0,0.0,0.0,0.0,0.0,0.0,0.0,0.0,0.0,0.0,0.0,0.0,0.0,0.0,0.0,0.0,0.0,0.0,0.0,0.0,0.0,0.0,0.0,0.0,0.0,0.0,0.0,0.0,0.0,0.0,0.0,0.0,0.0,0.0,0.0,0.0,0.0,0.0,0.0,0.0,0.0,0.0,0.0,0.0,0.0,0.0,0.0,0.0,0.0,0.0,0.0,0.0,0.0,0.0,0.0,0.0,0.0,0.0,0.0,0.0,0.0,0.0,0.0,0.0,0.0,0.0,0.0,0.0,0.0,0.0,0.0,0.0,0.0,0.0,0.0,0.0,0.0,0.0,0.0,0.0,0.0,0.0,0.0,0.0,0.0,0.0,0.0,0.0,0.0,0.0,0.0,0.0,0.0,0.0,0.0,0.0,0.0,0.0,0.0,0.0,0.0,0.0,0.0,0.0,0.6504,0.6863,0.74,0.8226,0.9158,0.958,0.0,0.0,0.0,0.0,0.0,0.0,0.0,0.0,0.0,0.0,0.0,0.0,0.0,0.0,0.0,0.0,0.0,0.0,0.0,0.0,0.0,0.0,0.0,0.0,0.0,0.0,0.0,0.0,0.0,0.0,0.0,0.0,0.0,0.0,0.0,0.0,0.0,0.0,0.0,0.0,0.0,0.0,0.0,0.0,0.0,0.0,0.0,0.0,0.0,0.0,0.0,0.0,0.0,0.0,0.0,0.0,0.0,0.0,0.0,0.0,0.0,0.0,0.0,0.0,0.0,0.0,0.0,0.0,0.0,0.0,0.0,0.0,0.0,0.0,0.0,0.0,0.0,0.0,0.0,0.0,0.0,0.0,0.0,0.0,0.0,0.0,0.0,0.0,0.0,0.0,0.0,0.0,0.0,0.0,0.0,0.0,0.0,0.0,0.0,0.0,0.0,0.0,0.0,0.0,0.0,0.0,0.0,0.0,0.5542,0.7141,0.7519,0.8196,0.9192,0.9316,0.9244,0.0,0.0,0.0,0.0,0.0,0.0,0.0,0.0,0.0,0.0,0.0,0.0,0.0,0.0,0.0,0.0,0.0,0.0,0.0,0.0,0.0,0.0,0.0,0.0,0.0,0.0,0.0,0.0,0.0,0.0,0.0,0.0,0.0,0.0,0.0,0.0,0.0,0.0,0.0,0.0,0.0,0.0,0.0,0.0,0.0,0.0,0.0,0.0,0.0,0.0,0.0,0.0,0.0,0.0,0.0,0.0,0.0,0.0,0.0,0.0,0.0,0.0,0.0,0.0,0.0,0.0,0.0,0.0,0.0,0.0,0.0,0.0,0.0,0.0,0.0,0.0,0.0,0.0,0.0,0.0,0.0,0.0,0.0,0.0,0.0,0.0,0.0,0.0,0.0,0.0,0.0,0.0,0.0,0.0,0.0,0.0,0.0,0.0,0.0,0.0,0.0,0.0,0.0,0.0,0.0,0.0,0.0,0.0,0.5765,0.7172,0.8058,0.895,0.9754,0.8915,0.8232,0.0,0.0,0.0,0.0,0.0,0.0,0.0,0.0,0.0,0.0,0.0,0.0,0.0,0.0,0.0,0.0,0.0,0.0,0.0,0.0,0.0,0.0,0.0,0.0,0.0,0.0,0.0,0.0,0.0,0.0,0.0,0.0,0.0,0.0,0.0,0.0,0.0,0.0,0.0,0.0,0.0,0.0,0.0,0.0,0.0,0.0,0.0,0.0,0.0,0.0,0.0,0.0,0.0,0.0,0.0,0.0,0.0,0.0,0.0,0.0,0.0,0.0,0.0,0.0,0.0,0.0,0.0,0.0,0.0,0.0,0.0,0.0,0.0,0.0,0.0,0.0,0.0,0.0,0.0,0.0,0.0,0.0,0.0,0.0,0.0,0.0,0.0,0.0,0.0,0.0,0.0,0.0,0.0,0.0,0.0,0.0,0.0,0.0,0.0,0.0,0.0,0.0,0.0,0.0,0.0,0.0,0.0,0.0,0.4148,0.6536,0.7949,0.8492,0.8148,0.7972,0.8418,0.0,0.0,0.0,0.0,0.0,0.0,0.0,0.0,0.0,0.0,0.0,0.0,0.0,0.0,0.0,0.0,0.0,0.0,0.0,0.0,0.0,0.0,0.0,0.0,0.0,0.0,0.0,0.0,0.0,0.0,0.0,0.0,0.0,0.0,0.0,0.0,0.0,0.0,0.0,0.0,0.0,0.0,0.0,0.0,0.0,0.0,0.0,0.0,0.6135,0.0,0.0,0.0,0.0,0.0,0.0,0.0,0.0,0.0,0.0,0.0,0.0,0.0,0.0,0.0,0.0,0.0,0.0,0.0,0.0,0.0,0.0,0.0,0.0,0.0,0.0,0.0,0.0,0.0,0.0,0.0,0.0,0.0,0.0,0.0,0.0,0.0,0.0,0.0,0.0,0.0,0.0,0.0,0.0,0.0,0.0,0.0,0.0,0.0,0.0,0.0,0.0,0.0,0.0,0.0,0.0,0.0,0.0,0.0,0.4197,0.6425,0.7203,0.7765,0.8208,0.8681,0.9141,0.0,0.0,0.0,0.0,0.0,0.0,0.0,0.0,0.0,0.0,0.0,0.0,0.0,0.0,0.0,0.0,0.0,0.0,0.0,0.0,0.0,0.0,0.0,0.0,0.0,0.0,0.0,0.0,0.0,0.0,0.0,0.0,0.0,0.0,0.0,0.0,0.0,0.0,0.0,0.0,0.0,0.0,0.0,0.0,0.0,0.0,0.0,0.0,0.0,0.0,0.0,0.0,0.0,0.0,0.0,0.0,0.0,0.0,0.0,0.0,0.0,0.0,0.0,0.0,0.0,0.0,0.0,0.0,0.0,0.0,0.0,0.0,0.0,0.0,0.0,0.0,0.0,0.0,0.0,0.0,0.0,0.0,0.0,0.0,0.0,0.0,0.0,0.0,0.0,0.0,0.0,0.0,0.0,0.0,0.0,0.0,0.0,0.0,0.0,0.0,0.0,0.0,0.0,0.0,0.0,0.0,0.0,0.4018,0.4995,0.6186,0.6162,0.6806,0.8292,0.9604,0.9863,0.8998,0.0,0.0,0.0,0.0,0.0,0.0,0.0,0.0,0.0,0.0,0.0,0.0,0.0,0.0,0.0,0.0,0.0,0.0,0.0,0.0,0.0,0.0,0.0,0.0,0.0,0.0,0.0,0.0,0.0,0.0,0.0,0.0,0.0,0.0,0.0,0.0,0.0,0.0,0.2766,0.4445,0.0,0.0,0.0,0.0,0.0,0.0,0.0,0.0,1.0049,0.0,0.0,0.0,0.0,0.0,0.0,0.0,0.0,0.0,0.0,0.0,0.0,0.0,0.0,0.0,0.0,0.0,0.0,0.0,0.0,0.0,0.0,0.0,0.0,0.0,0.0,0.0,0.0,0.0,0.0,0.0,0.0,0.0,0.0,0.0,0.0,0.0,0.0,0.0,0.0,0.0,0.0,0.0,0.0,0.0,0.0,0.0,0.0,0.0,0.0,0.0,0.0,0.0,0.0,0.0,0.0,0.5499,0.5872,0.5667,0.4792,0.5093,0.5431,0.5786,0.8688,0.9785,0.8789,0.0,0.0,0.0,0.0,0.0,0.0,0.0,0.0,0.0,0.0,0.0,0.0,0.0,0.0,0.0,0.0,0.0,0.0,0.0,0.0,0.0,0.0,0.0,0.0,0.0,0.0,0.0,0.0,0.0,0.0,0.0,0.0,0.0,0.0,0.0,0.0,0.0,0.0,0.0,0.4908,0.5724,0.0,0.0,0.0,0.0,0.0,0.0,0.0,0.0,1.1228,0.0,0.0,0.0,0.0,0.0,0.0,0.0,0.0,0.0,0.0,0.0,0.0,0.0,0.0,0.0,0.0,0.0,0.0,0.0,0.0,0.0,0.0,0.0,0.0,0.0,0.0,0.0,0.0,0.0,0.0,0.0,0.0,0.0,0.0,0.0,0.0,0.0,0.0,0.0,0.0,0.0,0.0,0.0,0.0,0.0,0.0,0.0,0.0,0.0,0.0,0.0,0.0,0.0,0.0,0.0,0.5991,0.5439,0.4926,0.4459,0.3994,0.3751,0.3807,0.627,0.7344,0.0,0.0,0.0,0.0,0.0,0.0,0.0,0.0,0.0,0.0,0.0,0.0,0.0,0.0,0.0,0.0,0.0,0.0,0.0,0.0,0.0,0.0,0.0,0.0,0.0,0.0,0.0,0.0,0.0,0.0,0.0,0.0,0.0,0.0,0.0,0.0,0.0,0.0,0.0,0.0,0.4911,0.5563,0.646,0.0,0.0,0.0,0.0,0.0,0.0,0.9341,1.0387,0.0,0.0,0.0,0.0,0.0,0.0,0.0,0.0,0.0,0.0,0.0,0.0,0.0,0.0,0.0,0.0,0.0,0.0,0.0,0.0,0.0,0.0,0.0,0.0,0.0,0.0,0.0,0.0,0.0,0.0,0.0,0.0,0.0,0.0,0.0,0.0,0.0,0.0,0.0,0.0,0.0,0.0,0.0,0.0,0.0,0.0,0.0,0.0,0.0,0.0,0.0,0.0,0.0,0.0,0.0,0.6082,0.5184,0.4605,0.4339,0.2818,0.1996,0.2021,0.336,0.4376,0.0,0.0,0.0,0.0,0.0,0.0,0.0,0.0,0.0,0.0,0.0,0.0,0.0,0.0,0.0,0.0,0.0,0.0,0.0,0.0,0.0,0.0,0.0,0.0,0.0,0.0,0.0,0.0,0.0,0.0,0.0,0.0,0.0,0.0,0.0,0.0,0.0,0.0,0.0,0.0,0.0,0.5596,0.6369,0.6576,0.0,0.0,0.0,0.0,0.7809,0.8775,0.0,0.0,0.0,0.0,0.0,0.0,0.0,0.0,0.0,0.0,0.0,0.0,0.0,0.0,0.0,0.0,0.0,0.0,0.0,0.0,0.0,0.0,0.0,0.0,0.0,0.0,0.0,0.0,0.0,0.0,0.0,0.0,0.0,0.0,0.0,0.0,0.0,0.0,0.0,0.0,0.0,0.0,0.0,0.0,0.0,0.0,0.0,0.0,0.0,0.0,0.0,0.0,0.0,0.0,0.0,0.0,0.6603,0.7119,0.6307,0.3998,0.1566,0.0284,0.029,0.0482,0.2017,0.0,0.0,0.0,0.0,0.0,0.0,0.0,0.0,0.0,0.0,0.0,0.0,0.0,0.0,0.0,0.0,0.0,0.0,0.0,0.0,0.0,0.0,0.0,0.0,0.0,0.0,0.0,0.0,0.0,0.0,0.0,0.0,0.0,0.0,0.0,0.0,0.0,0.0,0.0,0.0,0.0,0.6,0.607,0.6722,0.7198,0.0,0.0,0.0,0.8954,0.8561,0.0,0.0,0.0,0.0,0.0,0.0,0.0,0.0,0.0,0.0,0.0,0.0,0.0,0.0,0.0,0.0,0.0,0.0,0.0,0.0,0.0,0.0,0.0,0.0,0.0,0.0,0.0,0.0,0.0,0.0,0.0,0.0,0.0,0.0,0.0,0.0,0.0,0.0,0.0,0.0,0.0,0.0,0.0,0.0,0.0,0.0,0.0,0.0,0.0,0.0,0.0,0.0,0.0,0.0,0.0,0.7749,0.6556,0.4498,0.3581,0.3814,0.1341,0.0,0.0,0.0,0.1604,0.0,0.0,0.0,0.0,0.0,0.0,0.0,0.0,0.0,0.0,0.0,0.0,0.0,0.0,0.0,0.0,0.0,0.0,0.0,0.0,0.0,0.0,0.0,0.0,0.0,0.0,0.0,0.0,0.0,0.0,0.0,0.0,0.0,0.0,0.0,0.0,0.0,0.0,0.0,0.0,0.0,0.0,0.5148,0.6287,0.0,0.0,0.0,0.8994,0.9282,0.0,0.0,0.0,0.0,0.0,0.0,0.0,0.0,0.0,0.0,0.0,0.0,0.0,0.0,0.0,0.0,0.0,0.0,0.0,0.0,0.0,0.0,0.0,0.0,0.0,0.0,0.0,0.0,0.0,0.0,0.0,0.0,0.0,0.0,0.0,0.0,0.0,0.0,0.0,0.0,0.0,0.0,0.0,0.0,0.0,0.0,0.0,0.0,0.0,0.0,0.0,0.0,0.0,0.0,0.0,0.0,0.0,0.5895,0.202,0.0947,0.2784,0.1026,0.0,0.0,0.0,0.0,0.0,0.0,0.0,0.0,0.0,0.0,0.0,0.0,0.0,0.0,0.0,0.0,0.0,0.0,0.0,0.0,0.0,0.0,0.0,0.0,0.0,0.0,0.0,0.0,0.0,0.0,0.0,0.0,0.0,0.0,0.0,0.0,0.0,0.0,0.0,0.0,0.0,0.0,0.0,0.0,0.0,0.6249,0.5154,0.6421,0.7877,0.0,0.0,0.9192,0.9299,0.9619,0.9892,0.0,0.0,0.0,0.0,0.0,0.0,0.0,0.0,0.0,0.0,0.0,0.0,0.0,0.0,0.0,0.0,0.0,0.0,0.0,0.0,0.0,0.0,0.0,0.0,0.0,0.0,0.0,0.0,0.0,0.0,0.0,0.0,0.0,0.0,0.0,0.0,0.0,0.0,0.0,0.0,0.0,0.0,0.0,0.0,0.0,0.0,0.0,0.0,0.0,0.0,0.0,0.0,0.0,0.0,0.0,0.4088,0.1387,0.0,0.0,0.0099,0.0,0.0,0.0,0.162,0.0,0.0,0.0,0.0,0.0,0.0,0.0,0.0,0.0,0.0,0.0,0.0,0.0,0.0,0.0,0.0,0.0,0.0,0.0,0.0,0.0,0.0,0.0,0.0,0.0,0.0,0.0,0.0,0.0,0.0,0.0,0.0,0.0,0.0,0.0,0.0,0.0,0.0,0.0,0.0,0.0,0.7236,0.6955,0.7657,0.8641,0.0,0.0,0.9244,0.9054,1.0665,1.1201,0.9157,0.0,0.0,0.0,0.0,0.0,0.0,0.0,0.0,0.0,0.0,0.0,0.0,0.0,0.0,0.0,0.0,0.0,0.0,0.0,0.0,0.0,0.0,0.0,0.0,0.0,0.0,0.0,0.0,0.0,0.0,0.0,0.0,0.0,0.0,0.0,0.0,0.0,0.0,0.0,0.0,0.0,0.0,0.0,0.0,0.0,0.0,0.0,0.0,0.0,0.0,0.0,0.0,0.0,0.68,0.3922,0.133,0.0,0.0,0.0,0.0,0.0,0.0,0.2528,0.0,0.0,0.0,0.0,0.0,0.0,0.0,0.0,0.0,0.0,0.0,0.0,0.0,0.0,0.0,0.0,0.0,0.0,0.0,0.0,0.0,0.0,0.0,0.0,0.0,0.0,0.0,0.0,0.5934,0.6646,0.7066,0.0,0.0,0.0,0.0,0.0,0.0,0.0,0.0,0.0,0.0,0.7501,0.716,0.8605,0.0,0.0,0.8898,0.9168,0.9229,1.0482,1.1075,1.0052,0.8985,0.0,0.0,0.0,0.0,0.0,0.0,0.0,0.0,0.0,0.0,0.0,0.0,0.0,0.0,0.0,0.0,0.0,0.0,0.0,0.0,0.0,0.0,0.0,0.0,0.0,0.0,0.0,0.0,0.0,0.0,0.0,0.0,0.0,0.0,0.0,0.0,0.0,0.0,0.0,0.0,0.0,0.0,0.0,0.0,0.0,0.0,0.0,0.0,0.0,0.0,0.0,0.0,0.668,0.4111,0.1384,0.0,0.0,0.0,0.0,0.0,0.0,0.2184,0.0,0.0,0.0,0.0,0.0,0.0,0.0,0.0,0.0,0.0,0.0,0.0,0.0,0.0,0.0,0.0,0.0,0.0,0.0,0.0,0.0,0.0,0.0,0.0,0.0,0.0,0.0,0.0,0.5884,0.6875,0.7438,0.0,0.0,0.0,0.0,0.0,0.0,0.0,0.0,0.0,0.0,0.7865,0.7568,0.9265,1.0114,0.8734,0.9055,0.9592,0.9955,1.0428,1.0649,1.0343,0.0,0.0,0.0,0.0,0.0,0.0,0.0,0.0,0.0,0.0,0.0,0.0,0.0,0.0,0.0,0.0,0.0,0.0,0.0,0.0,0.0,0.0,0.0,0.0,0.0,0.0,0.0,0.0,0.0,0.0,0.0,0.0,0.0,0.0,0.0,0.0,0.0,0.0,0.0,0.0,0.0,0.0,0.0,0.0,0.0,0.0,0.0,0.0,0.0,0.0,0.0,0.0,0.0,0.0,0.4487,0.1547,0.0,0.0,0.0,0.0,0.0,0.0,0.0,0.0,0.0,0.0,0.0,0.0,0.0,0.0,0.0,0.0,0.0,0.0,0.0,0.0,0.0,0.0,0.0,0.0,0.0,0.0,0.0,0.0,0.0,0.0,0.0,0.0,0.0,0.0,0.4139,0.5775,0.7114,0.0,0.0,0.0,0.0,0.0,0.0,0.0,0.0,0.0,0.0,0.84,0.8389,0.8378,0.9649,1.0464,1.0357,1.0423,1.0658,1.1259,1.0675,1.0001,0.0,0.0,0.0,0.0,0.0,0.0,0.0,0.0,0.0,0.0,0.0,0.0,0.0,0.0,0.0,0.0,0.0,0.0,0.0,0.0,0.0,0.0,0.0,0.0,0.0,0.0,0.0,0.0,0.0,0.0,0.0,0.0,0.0,0.0,0.0,0.0,0.0,0.0,0.0,0.0,0.951,0.9412,0.0,0.0,0.0,0.0,0.0,0.0,0.0,0.0,0.0,0.0,0.0,0.0,0.7424,0.5674,0.1949,0.0,0.0,0.0,0.0,0.0,0.0,0.0,0.0,0.0,0.0,0.0,0.0,0.0,0.0,0.0,0.0,0.0,0.0,0.0,0.0,0.0,0.0,0.0,0.0,0.0,0.0,0.0,0.0,0.0,0.0,0.0,0.0,0.0,0.6864,0.0,0.0,0.0,0.0,0.0,0.0,0.0,0.0,0.0,0.0,0.0,0.7906,0.7935,0.8393,0.8767,0.885,0.9016,0.9206,0.0,0.0,0.0,0.0,0.0,0.0,0.0,0.0,0.0,0.0,0.0,0.0,0.0,0.0,1.2657,1.236,1.1362,1.0804,1.1538,0.0,0.0,0.0,0.0,0.0,0.0,0.0,0.0,0.0,0.0,0.0,0.0,0.0,0.0,0.0,0.0,0.927,0.0,0.0,0.0,0.0,0.0,0.0,0.0,0.0,0.9669,0.953,0.9368,0.9303,0.9222,0.0,0.9628,0.9593,0.0,0.0,0.0,0.0,0.0,0.0,0.0,0.0,0.8034,0.7132,0.3369,0.0919,0.0,0.0,0.0,0.0,0.0,0.0,0.0,0.0,0.1964,0.0,0.0,0.0,0.0,0.0,0.0,0.0,0.0,0.0,0.0,0.0,0.0,0.0,0.0,0.0,0.0,0.0,0.0,0.0,0.0,0.0,0.0,0.0,0.7856,0.0,0.0,0.0,0.0,0.0,0.0,0.0,0.0,0.0,0.6248,0.722,0.8104,0.8078,0.8308,0.8656,0.9162,0.0,0.0,0.0,0.0,0.0,0.0,0.0,1.079,1.0615,1.2301,1.3662,1.3715,1.3951,1.4117,1.4128,0.0,0.0,1.3418,1.2416,1.1768,1.2238,1.1159,1.0349,1.1038,1.0611,1.0195,0.0,0.0,0.0,0.0,0.0,0.0,0.0,0.0,0.9625,0.9661,0.0,0.0,0.0,0.0,0.0,0.0,0.0,0.0,0.0,0.0,0.953,0.9439,0.9312,0.9311,0.9253,0.9206,1.0587,1.0569,0.9279,0.9229,0.0,0.0,0.0,0.0,0.0,0.0,0.7913,0.8738,0.5408,0.2509,0.0,0.0,0.0,0.0,0.0,0.0,0.0,0.0,0.0088,0.0147,0.6185,0.0,0.0,0.0,0.0,0.0,0.0,0.0,0.0,0.0,0.0,0.0,0.0,0.0,0.0,0.0,0.0,0.0,0.0,0.0,0.0,0.7264,0.0,0.0,0.0,0.0,0.0,0.0,0.0,0.0,0.0,0.0,0.7905,0.7552,0.7749,0.8767,0.0,0.0,0.0,0.0,0.963,0.9877,0.8734,0.8884,1.1824,1.1883,1.207,1.3496,0.0,0.0,1.3952,1.4097,1.4237,1.4241,1.411,1.3948,1.4006,1.3557,1.3157,1.2892,1.2212,1.1636,1.1322,1.1254,1.1107,0.952,0.0,0.0,0.0,0.0,0.9516,0.9532,0.9508,0.9635,1.005,1.0647,1.0352,0.0,0.0,0.0,0.0,0.0,0.0,0.9647,0.954,0.956,0.9501,0.9376,0.9412,0.9421,0.9412,0.9897,0.9915,0.9573,0.9557,0.9456,0.9275,0.0,0.0,0.0,0.0,0.6861,0.8988,0.3968,0.0749,0.0,0.0,0.0,0.0,0.4548,0.4808,0.0185,0.1007,0.1097,0.0143,0.5007,0.0,0.0,0.0,0.0,0.0,0.0,0.0,0.0,0.0,0.0,0.0,0.0,0.0,0.0,0.0,0.0,0.0,0.0,0.0,0.4796,0.463,0.5716,0.0,0.0,0.0,0.0,0.0,0.0,0.0,0.0,0.0,0.9277,0.8779,0.9022,0.0,0.0,0.9019,0.8319,0.9128,1.0007,1.0585,0.0,0.0,0.0,1.1382,1.1641,1.1814,1.347,1.4786,1.4486,1.4646,1.4859,1.4847,1.4803,1.4775,1.4733,1.3949,1.3412,1.3517,1.2858,1.222,1.2139,1.1977,1.1805,0.9619,0.9481,0.9647,0.9632,0.9517,0.9655,0.9662,0.9581,0.968,1.0059,1.0553,1.0387,1.0707,1.1321,1.0817,0.0,0.0,0.0,0.9819,0.9995,0.9755,0.9575,0.9489,0.9563,0.9568,0.9552,0.9968,1.0016,0.9781,1.0105,1.0019,0.9591,0.0,0.0,0.9484,0.6877,0.6251,0.7586,0.4023,0.2011,0.2011,0.1991,0.1368,0.0206,0.5705,0.7251,0.4123,0.2248,0.1483,0.178,0.3359,0.4753,0.0,0.0,0.0,0.0,0.0,0.0,0.0,0.0,0.0,0.0,0.0,0.7899,0.0,0.0,0.0,0.0,0.6898,0.6713,0.6984,0.6128,0.0,0.0,0.0,0.0,0.0,0.0,0.0,0.9725,0.9982,1.0052,0.9916,0.9641,0.9937,1.118,1.0447,0.9361,0.8283,0.0,1.0456,1.1305,1.1458,1.1355,1.1058,1.0955,1.1038,1.1399,1.2985,1.4359,1.458,1.4713,1.4878,1.5062,1.5119,1.5119,1.5119,1.4471,1.396,1.4174,1.3672,1.3124,1.2957,1.2813,1.2608,0.9598,0.9608,0.9748,0.9786,0.9805,0.9812,0.98,0.9813,0.9813,0.9874,1.0061,1.0716,1.0691,1.01,1.005,0.0,0.0,1.0176,1.0221,1.0902,1.0089,0.9699,0.9721,0.972,0.9685,0.9671,1.0514,1.0577,0.9968,1.0665,1.0662,1.0035,0.9899,0.9831,0.9711,0.7855,0.6384,0.544,0.5482,0.5511,0.5495,0.5436,0.391,0.0988,0.509,0.825,0.9815,0.4119,0.1828,0.3907,0.1711,0.0251,0.0,0.0,0.0,0.0,0.0,0.0,0.0,0.0,0.0,0.0,0.0,0.0,0.0,0.0,0.0,0.0,0.6914,0.0,1.0609,0.9782,0.0,0.0,0.0,0.919,0.9046,0.9803,1.0177,0.9683,0.0,0.0,0.0,0.0,1.0444,1.1017,1.029,0.9533,0.9176,0.9932,1.0896,1.1906,1.209,1.2,1.1787,1.0966,1.071,1.1848,1.2632,1.3345,1.4094,1.4416,1.4568,1.4947,1.5085,1.5119,1.5119,1.5073,1.4983,1.4697,1.4408,1.4071,1.3705,1.3563,1.3324,0.9218,0.8857,0.8893,0.9277,0.9872,0.9891,0.987,0.9881,0.9914,1.0334,1.0948,1.0539,1.0914,1.1888,1.1829,1.2211,1.2876,1.142,1.1192,1.1822,1.045,1.013,1.0695,1.0177,0.9949,1.0005,1.021,1.0234,1.013,1.0279,1.0285,1.0139,1.0077,1.0013,0.9934,0.9448,0.9109,0.8881,0.8896,0.8932,0.8977,0.8869,0.8422,0.7656,0.8685,0.9486,0.9965,0.8452,0.5535,0.1376,0.2591,0.2399,0.0,0.0,0.0,0.0,0.0,0.0,0.0,0.0,0.0,0.0,0.0,0.7899,0.7899,0.0,0.5314,0.0,0.765,0.6312,0.3149,0.7478,0.0,0.0,0.9377,0.9929,1.0762,1.0753,1.0713,1.072,1.063,1.0829,1.1497,1.0499,1.0237,1.1571,1.0845,1.0515,1.1557,1.1216,1.1178,1.1919,1.2066,1.2067,1.2012,1.1802,1.1672,1.2067,1.2263,1.2562,1.3173,1.3891,1.4431,1.4568,1.4878,1.5085,1.5119,1.5119,1.5062,1.4971,1.4708,1.4373,1.3988,1.3931,1.38,0.8891,0.8615,0.8726,0.911,0.9624,0.9471,0.9533,0.9764,0.9964,1.0336,1.0811,1.0731,1.1199,1.2021,1.2369,1.2954,1.3515,1.2307,1.2167,1.2875,1.1653,1.1119,1.1225,1.1204,1.0994,1.0641,1.0703,1.0729,1.0716,1.0358,1.0214,1.0248,1.0205,1.0366,1.0673,1.0286,1.0285,1.0656,1.0671,1.0494,1.0159,0.9712,0.9643,1.0024,0.947,0.9486,1.0059,0.9981,0.8258,0.4757,0.5977,0.4733,0.0,0.0,0.1325,0.0,0.0,0.0,0.0,0.0,0.0,0.0,0.0,0.0,0.0,0.0,0.6035,0.0,0.0,0.0,0.5085,0.8878,1.0961,1.0123,1.013,1.0546,1.1432,1.1076,1.0906,1.147,1.1111,1.1141,1.1941,1.099,1.0681,1.1918,1.1279,1.1104,1.2106,1.186,1.1651,1.201,1.2066,1.2066,1.2066,1.2066,1.2066,1.2136,1.2355,1.2674,1.3133,1.3845,1.4454,1.4672,1.4936,1.5108,1.5119,1.5119,1.5119,1.5074,1.4926,1.4743,1.4547,1.4501,1.4444,0.8378,0.8398,0.8568,0.8771,0.9018,0.8854,0.9102,0.9635,0.9951,1.0176,1.0386,1.1145,1.1559,1.1759,1.2498,1.3233,1.3826,1.3026,1.3116,1.3865,1.302,1.2273,1.173,1.2384,1.2284,1.1499,1.1598,1.1577,1.14,1.0779,1.0469,1.0462,1.0439,1.0888,1.1689,1.0945,1.0885,1.1565,1.1577,1.1215,1.044,0.9694,0.944,0.9723,0.8968,0.8639,0.8905,0.9977,1.0614,1.0633,1.0261,0.7376,0.1637,0.1616,0.4332,0.0,0.988,0.0,0.0,0.0,0.0,0.0,0.0,0.0,0.0,0.6567,0.6969,0.9849,0.4823,0.4142,1.075,1.1508,1.1669,1.1705,1.1247,1.1163,1.1647,1.1188,1.1113,1.201,1.1687,1.1595,1.2021,1.1572,1.1457,1.1964,1.1641,1.1469,1.1964,1.2067,1.2056,1.2066,1.2066,1.2066,1.2066,1.2066,1.2066,1.2182,1.2655,1.3168,1.3397,1.3971,1.4522,1.489,1.5039,1.5119,1.5119,1.5119,1.5119,1.5119,1.5074,1.5074,1.5062,1.5017,1.5119,0.693,0.718,0.6734,0.6992,0.7729,0.8422,0.9123,0.9768,0.995,1.0431,1.1079,1.1276,1.2116,1.3398,1.3549,1.4062,1.4755,1.3828,1.3866,1.4627,1.3202,1.2828,1.3298,1.2901,1.2613,1.2433,1.2464,1.2136,1.1464,1.1351,1.1297,1.1346,1.1307,1.1738,0.0,0.0,0.0,0.0,1.2539,1.2431,1.2216,1.2061,1.0691,0.8148,0.9163,0.0,0.2532,0.9472,1.3655,1.362,1.2462,0.0,0.0,0.0,0.0,0.0,0.0,0.0,0.0,0.0,0.0,0.0,0.6395,0.6895,0.7387,0.3707,0.222,0.4563,0.7324,0.9412,1.0387,1.1371,1.2316,1.3181,1.2467,1.2016,1.2399,1.2095,1.1918,1.2031,1.2021,1.1998,1.2067,1.1987,1.1975,1.2113,1.201,1.1987,1.2102,1.2125,1.2066,1.2066,1.2066,1.2066,1.2066,1.2066,1.2066,1.2157,1.2678,1.3053,1.3122,1.3834,1.4385,1.458,1.4844,1.5119,1.5119,1.5119,1.5119,1.5119,1.5119,1.5119,1.5119,1.5119,1.5119,0.5814,0.0,0.6012,0.6483,0.0,0.0,0.8878,0.9919,1.0259,1.0668,1.1201,1.2054,1.2935,1.3781,1.4222,1.4684,1.5126,1.4617,1.4634,1.5001,1.4199,1.3831,1.3806,1.3911,1.3683,1.3229,1.2885,1.2478,1.2032,1.1667,1.1512,1.1571,1.1944,1.2595,1.3475,1.3893,1.3668,1.2803,1.3208,1.3178,1.2659,1.223,1.1353,0.9977,0.0,0.0,0.0,0.0,0.0,0.0,0.0,0.0,0.0,0.0,0.0,1.2973,1.2354,1.2581,1.4069,1.3836,1.2546,1.0162,0.9515,0.9236,0.925,0.6898,0.6242,0.805,1.1134,1.2484,1.1509,1.2279,1.3006,1.3302,1.2799,1.242,1.239,1.2222,1.2113,1.2066,1.2066,1.2066,1.2066,1.2066,1.2226,1.2525,1.2758,1.2804,1.2608,1.2321,1.2077,1.2066,1.2066,1.2066,1.2066,1.2066,1.2113,1.2157,1.2816,1.3248,1.3248,1.4063,1.4741,1.4763,1.4959,1.5108,1.5119,1.5119,1.5119,1.5119,1.5119,1.5119,1.5119,1.5119,1.5119,0.4919,0.5416,0.564,0.6383,0.7388,0.7789,0.8849,1.0287,0.0,0.0,0.0,1.2884,1.3612,1.3819,1.4626,1.5053,1.5136,1.5105,1.5105,1.5113,1.5117,1.4733,1.4048,1.4796,1.4701,1.3793,1.3186,1.2803,1.2592,1.2018,1.179,1.2021,1.2676,1.3452,1.4316,1.5041,1.4693,1.3366,1.3968,1.3914,1.3089,1.2363,1.2295,1.2909,0.7534,0.7035,1.2085,1.3254,1.3574,1.317,1.2831,1.2639,1.2529,0.969,0.944,1.2446,1.1124,1.0944,1.2845,1.4883,1.5655,1.4704,1.3193,1.2015,1.1378,1.1164,1.1646,1.295,1.4018,1.4053,1.2786,1.3314,1.3573,1.2965,1.2803,1.2579,1.2222,1.2113,1.2066,1.2066,1.2066,1.2066,1.2066,1.2066,1.2355,1.2973,1.3512,1.3673,1.3237,1.2812,1.249,1.239,1.224,1.2066,1.2066,1.2066,1.2136,1.2298,1.2996,1.3593,1.3834,1.4488,1.505,1.5073,1.5119,1.5119,1.5119,1.5119,1.5119,1.5119,1.5119,1.5119,1.5119,1.5119,1.5119,0.4235,0.5374,0.5201,0.6086,0.7684,0.8294,0.957,1.1186,1.1395,1.1971,1.2824,1.3076,1.3649,1.4457,1.4536,1.4672,1.4847,1.4738,1.4747,0.0,1.486,1.482,1.4752,1.4947,1.4601,1.3838,1.3684,1.3322,1.2733,1.2588,1.2943,1.3651,1.3798,1.4319,1.5153,1.5338,1.5288,1.5041,1.5158,1.5135,1.4915,1.4742,1.4637,1.4605,1.3626,1.3417,1.4242,1.4393,1.4368,1.4126,1.3984,1.3915,1.3818,1.2996,1.2776,1.3117,1.4577,1.5593,1.5744,1.4689,1.4001,1.4041,1.2866,1.2289,1.2671,1.1668,1.1446,1.244,1.3458,1.3855,1.3618,1.3742,1.365,1.305,1.2885,1.2756,1.2472,1.2293,1.2148,1.2112,1.2066,1.2125,1.2113,1.2123,1.2482,1.3122,1.4098,1.4545,1.3834,1.3707,1.3547,1.303,1.2444,1.2123,1.218,1.2125,1.2355,1.2735,1.3237,1.3788,1.4155,1.4706,1.5096,1.5119,1.5119,1.5119,1.5119,1.5119,1.5119,1.5119,1.5119,1.5119,1.5119,1.5119,1.5119,0.2876,0.4164,0.4468,0.5396,0.6851,0.8409,0.9788,1.1011,1.1671,1.2309,1.29,1.3344,1.3835,1.4319,1.4404,1.4489,1.4585,1.4631,1.467,1.4747,1.4831,1.4857,1.4859,1.4928,1.4752,1.4384,1.3984,1.3652,1.3371,1.3363,1.3836,1.4756,1.565,1.6347,1.6737,1.6342,1.635,1.6773,1.5886,1.5349,1.526,1.5645,1.5535,1.4904,1.4867,1.4794,1.4705,1.4485,1.4332,1.4263,1.448,1.4391,1.3853,1.3603,1.3362,1.3184,1.5302,1.6517,1.6289,1.489,1.4246,1.4674,1.431,1.413,1.4505,1.3025,1.2554,1.3601,1.3828,1.3775,1.3847,1.4441,1.4595,1.3816,1.3496,1.3166,1.2798,1.2695,1.262,1.2562,1.2551,1.2436,1.2136,1.2747,1.342,1.4098,1.4809,1.489,1.4476,1.4511,1.4339,1.3489,1.2678,1.241,1.2754,1.2892,1.3007,1.3276,1.3684,1.4075,1.4396,1.4786,1.5062,1.5119,1.5119,1.5119,1.5119,1.5119,1.5119,1.5119,1.5119,1.5119,1.5119,1.5119,1.5119,0.1416,0.2872,0.3838,0.4997,0.6423,0.8445,0.978,1.0633,1.1683,1.2375,1.2811,1.3491,1.3913,1.4083,1.4232,1.4326,1.4371,1.4577,1.465,1.468,1.4813,1.4831,1.4804,1.4859,1.4791,1.4579,1.4064,1.3825,1.3869,1.3885,1.4491,1.5628,1.712,1.7944,1.7969,1.7322,1.733,1.7866,1.6652,1.5889,1.5796,1.6388,1.6281,1.5452,1.4982,1.4859,1.4937,1.4867,1.4697,1.4473,1.494,1.4892,1.4223,1.399,1.3915,1.4034,1.5543,1.6409,1.6163,1.5382,1.5038,1.5474,1.5632,1.5703,1.5627,1.455,1.4125,1.498,1.4875,1.4568,1.4533,1.5432,1.5814,1.4977,1.424,1.3658,1.3159,1.3104,1.3138,1.3069,1.3041,1.2908,1.2731,1.3305,1.4087,1.4676,1.5017,1.5119,1.5119,1.5119,1.4729,1.4086,1.3248,1.2996,1.3581,1.3811,1.3857,1.3822,1.4098,1.4373,1.458,1.4901,1.5085,1.5119,1.5119,1.5119,1.5108,1.5153,1.5165,1.5153,1.521,1.5232,1.5244,1.5244,1.521,0.0244,0.1814,0.3466,0.5429,0.7357,0.853,0.9551,1.0494,1.1292,1.2116,1.2937,1.3343,1.3746,1.3998,1.4026,1.4141,1.4263,1.4441,1.4574,1.4643,1.4756,1.4804,1.4794,1.4804,1.4464,1.3939,1.3845,1.3894,1.3972,1.4046,1.4838,1.6392,1.7447,1.7972,1.7946,1.791,1.7938,1.8,1.7773,1.7635,1.7572,1.7581,1.745,1.7188,1.564,1.5092,1.5677,1.6311,1.6155,1.5273,1.5672,1.5941,1.5801,1.5602,1.5725,1.6155,1.6242,1.6222,1.6212,1.6054,1.5915,1.5852,1.5945,1.5851,1.5634,1.5847,1.5986,1.6171,1.656,1.6376,1.5814,1.6585,1.6844,1.6158,1.5112,1.4135,1.3644,1.3271,1.3202,1.3541,1.3535,1.3512,1.3524,1.3555,1.3762,1.4516,1.4926,1.5119,1.5119,1.5119,1.5096,1.4959,1.4786,1.4385,1.4006,1.4408,1.4603,1.4396,1.435,1.458,1.4878,1.5028,1.5119,1.5119,1.5119,1.5119,1.5198,1.5277,1.5379,1.5244,1.5334,1.5534,1.5546,1.5501,1.5468,-0.1255,0.0622,0.2737,0.4897,0.6952,0.8017,0.9147,1.0391,1.1374,1.2455,1.36,1.416,1.4159,1.3796,1.4216,1.4439,1.4551,1.5238,1.5328,1.4989,1.5117,1.5058,1.4755,1.4688,1.455,1.4352,1.4409,1.4714,1.5342,1.6296,1.7292,1.8089,1.8959,1.939,1.9383,1.8984,1.8998,1.9463,1.8935,1.8838,1.9104,1.8696,1.8066,1.7393,1.7096,1.6773,1.6559,1.6783,1.6587,1.5987,1.65,1.6481,1.5788,1.657,1.6864,1.6416,1.6262,1.6548,1.7331,1.6999,1.6664,1.6503,1.6625,1.6556,1.6164,1.6636,1.6995,1.6983,1.7098,1.7018,1.6665,1.6705,1.6607,1.6275,1.5652,1.4916,1.4148,1.3948,1.3925,1.4052,1.4063,1.4178,1.4344,1.4061,1.4113,1.4652,1.5028,1.5119,1.5119,1.5119,1.5119,1.5119,1.5119,1.497,1.4568,1.4775,1.497,1.4878,1.4809,1.4947,1.5028,1.5119,1.5119,1.5119,1.5119,1.5165,1.5334,1.5379,1.5468,1.5379,1.5424,1.5647,1.6032,1.5768,1.5603,-0.2736,-0.0546,0.2109,0.4561,0.6667,0.7694,0.9007,1.0456,1.1468,1.2667,1.3922,1.4558,1.4468,1.4037,1.4674,1.5003,1.5124,1.587,1.586,1.5276,1.5604,1.541,1.472,1.4876,1.5001,1.5093,1.5188,1.5695,1.6685,1.8104,1.8962,1.9206,1.9967,2.0445,2.0433,1.9882,1.9918,2.0365,1.9853,1.9789,2.007,1.9577,1.8812,1.8121,1.8495,1.8304,1.7356,1.7365,1.7173,1.6739,1.7204,1.7196,1.6602,1.7405,1.7377,1.6418,1.662,1.7435,1.8716,1.8112,1.7516,1.7196,1.7325,1.7229,1.6877,1.7114,1.7393,1.7323,1.7253,1.7144,1.6934,1.6534,1.6144,1.5937,1.5812,1.5457,1.4713,1.4591,1.458,1.458,1.458,1.4662,1.4835,1.4571,1.4525,1.4834,1.5028,1.5119,1.5119,1.5119,1.5119,1.5119,1.5119,1.5142,1.5198,1.513,1.5142,1.5289,1.5254,1.5242,1.5244,1.5244,1.5153,1.5153,1.5108,1.521,1.5379,1.5468,1.5691,1.5736,1.578,1.5836,1.6219,1.5913,1.5703,-0.4133,-0.1657,0.1908,0.4681,0.6754,0.7888,0.9285,1.0864,1.1618,1.2554,1.3646,1.4197,1.4444,1.4669,1.5435,1.5758,1.5778,1.608,1.5885,1.536,1.6135,1.5872,1.4641,1.5392,1.5815,1.5763,1.5966,1.6555,1.754,1.8472,1.8962,1.9173,1.9995,2.043,2.0498,2.0429,2.0444,2.047,2.0387,2.0362,2.0276,2.0099,1.9886,1.9632,1.9524,1.8966,1.8229,1.8496,1.8306,1.74,1.7815,1.8273,1.8699,1.8093,1.7337,1.6608,1.7618,1.8952,1.9978,1.9315,1.847,1.782,1.7807,1.7733,1.7164,1.7188,1.724,1.7212,1.7212,1.7073,1.665,1.6275,1.5881,1.5334,1.5579,1.5499,1.5107,1.5005,1.5073,1.5039,1.4914,1.4846,1.4697,1.488,1.4789,1.48,1.4937,1.5119,1.5119,1.5119,1.5119,1.5119,1.5119,1.5198,1.5379,1.5379,1.5379,1.5468,1.5513,1.5501,1.5513,1.5513,1.5334,1.5232,1.5198,1.5289,1.5468,1.5691,1.5957,1.61,1.61,1.6231,1.6318,1.6013,1.5792,-0.4114,-0.0683,0.1819,0.4127,0.6216,0.7712,0.9456,1.1359,1.2175,1.3334,1.4585,1.5155,1.563,1.6048,1.6535,1.6584,1.6336,1.6987,1.6978,1.6413,1.6306,1.5826,1.5202,1.5475,1.5692,1.5857,1.6459,1.7346,1.8364,1.9202,1.9728,1.9928,2.0228,2.0422,2.049,2.0507,2.0505,2.0519,2.0511,2.0429,2.036,2.0122,2.0175,2.0463,1.9857,1.9276,1.8828,1.9326,1.9358,1.8766,1.9203,1.9358,1.9202,1.9867,1.9915,1.928,1.9479,1.9863,2.0208,1.9652,1.8972,1.8412,1.8113,1.7787,1.731,1.7212,1.7212,1.7212,1.7212,1.6989,1.6466,1.5901,1.539,1.5198,1.5232,1.5322,1.5153,1.5119,1.5119,1.5017,1.4731,1.4501,1.4789,1.4743,1.4743,1.4891,1.5017,1.5062,1.5119,1.5119,1.5062,1.5119,1.5119,1.5198,1.5468,1.5558,1.5603,1.5603,1.5591,1.5591,1.5591,1.5424,1.5244,1.5289,1.5289,1.5468,1.5691,1.5925,1.6188,1.6306,1.6362,1.6318,1.6349,1.6057,1.5836,-0.3986,-0.0788,0.1234,0.346,0.5757,0.762,0.9628,1.1694,1.2665,1.3852,1.5047,1.5652,1.6074,1.648,1.696,1.6978,1.6756,1.753,1.7599,1.7041,1.6825,1.6378,1.5824,1.6074,1.6328,1.6565,1.7416,1.8364,1.9084,1.9694,2.0106,2.0308,2.0379,2.0433,2.0529,2.0759,2.0935,2.0943,2.1165,2.1258,2.1132,2.0928,2.096,2.1183,2.0596,2.011,1.9881,2.019,2.0205,1.99,2.0072,1.9924,1.9495,2.0804,2.1386,2.0726,2.0542,2.037,2.0071,1.9553,1.904,1.8703,1.8291,1.776,1.7282,1.7212,1.7212,1.7212,1.7199,1.7018,1.6595,1.5768,1.5119,1.5119,1.5119,1.5119,1.5119,1.5119,1.5119,1.5017,1.4501,1.4351,1.464,1.4558,1.4697,1.5062,1.5006,1.4926,1.5062,1.4971,1.496,1.5062,1.5119,1.5153,1.5289,1.5379,1.5703,1.5736,1.5736,1.5691,1.5647,1.5424,1.5334,1.5334,1.5468,1.5748,1.5925,1.6144,1.6318,1.6436,1.6436,1.6392,1.6262,1.6057,1.5824,-0.3846,-0.2111,0.0114,0.2745,0.5359,0.7496,0.9758,1.1755,1.292,1.39,1.478,1.5374,1.5682,1.5883,1.6581,1.6885,1.7093,1.7566,1.75,1.7014,1.7763,1.7429,1.6341,1.7201,1.7736,1.7872,1.886,1.9457,1.9717,1.9858,2.006,2.025,2.0476,2.0675,2.062,2.1444,2.181,2.1928,2.243,2.2771,2.2859,2.2441,2.2273,2.226,2.1816,2.1516,2.1291,2.1123,2.0829,2.0431,2.0237,1.9924,1.9953,2.0849,2.1135,2.0509,2.06,2.0377,1.9762,1.9134,1.8792,1.8622,1.8266,1.772,1.7323,1.7212,1.7212,1.7212,1.7199,1.7157,1.6808,1.5844,1.5119,1.5119,1.5119,1.5119,1.5119,1.5119,1.5119,1.5017,1.4455,1.4025,1.4071,1.428,1.4616,1.4834,1.4846,1.4708,1.488,1.4697,1.4651,1.4971,1.5119,1.5153,1.5153,1.5153,1.5603,1.5925,1.5925,1.5881,1.5836,1.5659,1.5614,1.5614,1.5748,1.6025,1.6132,1.6318,1.6405,1.6479,1.6436,1.6392,1.6231,1.6013,1.578,-0.4178,-0.2898,-0.0534,0.1993,0.4606,0.7009,0.9282,1.1278,1.2763,1.3756,1.4388,1.5088,1.5683,1.6159,1.6447,1.6924,1.7623,1.764,1.7546,1.7543,1.7679,1.7503,1.7241,1.7669,1.8286,1.8897,1.9331,1.9628,1.98,1.9969,2.0364,2.0993,2.123,2.1653,2.2204,2.2578,2.2674,2.2672,2.2873,2.2939,2.2829,2.2631,2.2678,2.2961,2.2588,2.2437,2.2694,2.2105,2.1546,2.1112,2.1252,2.1244,2.1156,2.114,2.0893,2.0423,2.0384,2.0243,1.972,1.9058,1.8626,1.8461,1.8028,1.7557,1.724,1.7212,1.7212,1.7212,1.7199,1.6892,1.5888,1.5412,1.5119,1.5119,1.5119,1.5119,1.5119,1.5074,1.5119,1.4971,1.4305,1.3658,1.343,1.3763,1.4316,1.4558,1.4616,1.4569,1.4362,1.4408,1.4605,1.4971,1.5062,1.5074,1.5017,1.5153,1.5558,1.5792,1.5836,1.5881,1.5881,1.5893,1.5848,1.5925,1.6069,1.62,1.6362,1.6436,1.6491,1.6479,1.6479,1.6349,1.6231,1.5969,1.5691,-0.5113,-0.3755,-0.1495,0.0938,0.3485,0.6082,0.846,1.0549,1.2201,1.3361,1.4166,1.4943,1.5681,1.6221,1.6353,1.7029,1.7936,1.755,1.7612,1.8019,1.7838,1.7726,1.784,1.821,1.8715,1.9287,1.9489,1.9623,1.9816,2.0295,2.0866,2.1482,2.1958,2.2437,2.3105,2.3432,2.3561,2.3534,2.3809,2.383,2.3678,2.3495,2.3491,2.363,2.34,2.3252,2.3275,2.2653,2.2121,2.1654,2.1591,2.1628,2.1705,2.1291,2.0648,2.001,1.9843,1.9662,1.9161,1.8612,1.8369,1.8226,1.7747,1.7352,1.724,1.7212,1.7212,1.7212,1.668,1.6064,1.5322,1.5119,1.5119,1.5119,1.5119,1.5119,1.5062,1.4926,1.4971,1.4789,1.4093,1.3334,1.3113,1.3525,1.4025,1.4222,1.4326,1.4326,1.4082,1.4165,1.4444,1.4777,1.5153,1.5108,1.4971,1.5198,1.5525,1.5659,1.5647,1.5736,1.5792,1.5981,1.6025,1.6144,1.6318,1.6318,1.6436,1.6479,1.6534,1.6479,1.6479,1.6275,1.6069,1.5836,1.5603,-0.6385,-0.466,-0.2644,-0.0305,0.221,0.4786,0.7299,0.9667,1.138,1.277,1.4027,1.4956,1.5661,1.6117,1.6452,1.718,1.7976,1.7658,1.7914,1.8531,1.8579,1.8478,1.8457,1.8786,1.9191,1.9553,1.96,1.9767,2.0293,2.0975,2.1446,2.1983,2.2711,2.3168,2.3552,2.4108,2.442,2.4461,2.5021,2.517,2.4941,2.4835,2.458,2.419,2.41,2.3806,2.3177,2.2745,2.2334,2.1849,2.129,2.1197,2.1493,2.1229,2.0364,1.942,1.9126,1.8763,1.8299,1.7995,1.7862,1.7974,1.757,1.7199,1.7115,1.7073,1.7031,1.6947,1.5988,1.5244,1.5108,1.5119,1.5119,1.5119,1.5119,1.5119,1.5062,1.4743,1.4662,1.4697,1.381,1.2929,1.2978,1.3525,1.3884,1.4025,1.4025,1.3931,1.3847,1.3847,1.3978,1.4351,1.4869,1.5119,1.4983,1.5244,1.5558,1.5647,1.5691,1.5836,1.5913,1.6057,1.62,1.6349,1.6436,1.6479,1.6479,1.6479,1.6534,1.6479,1.6362,1.61,1.5961,1.5852,1.5709,-0.6523,-0.5105,-0.3143,-0.1058,0.1091,0.3361,0.5641,0.8029,1.0488,1.2112,1.3433,1.4954,1.6009,1.6881,1.6782,1.7445,1.8388,1.8492,1.8835,1.9538,1.9889,1.9486,1.9003,1.9052,1.962,2.0321,2.0513,2.0935,2.1763,2.2133,2.2724,2.352,2.3734,2.4297,2.4895,2.5106,2.5235,2.5182,2.529,2.5329,2.5122,2.4962,2.4659,2.4246,2.4079,2.3735,2.3069,2.2252,2.1748,2.1446,2.1023,2.0728,2.0761,2.0579,2.0308,1.9793,1.8555,1.7935,1.8051,1.7692,1.7545,1.7774,1.7447,1.7073,1.6735,1.6693,1.6607,1.6349,1.5603,1.5119,1.5119,1.5119,1.5119,1.5119,1.5074,1.5074,1.5028,1.48,1.4523,1.4258,1.3658,1.319,1.3065,1.3286,1.3695,1.3836,1.3742,1.3515,1.3478,1.3525,1.3658,1.3847,1.4269,1.4754,1.5074,1.5379,1.5558,1.5647,1.5824,1.6057,1.6144,1.6262,1.6349,1.6479,1.6479,1.6479,1.6479,1.6534,1.6534,1.6534,1.6405,1.6244,1.6259,1.6199,1.599,-0.6864,-0.5379,-0.3676,-0.1769,0.0264,0.213,0.423,0.6544,0.889,1.0857,1.2388,1.4141,1.5629,1.6731,1.6936,1.7811,1.8989,1.8919,1.9393,2.0271,2.0605,2.0427,2.0063,2.0117,2.0652,2.1235,2.1459,2.1858,2.2526,2.3083,2.3694,2.417,2.4647,2.5125,2.5464,2.5595,2.5538,2.5444,2.5363,2.5216,2.5018,2.4869,2.4468,2.4062,2.3819,2.3593,2.3179,2.2327,2.181,2.1682,2.1252,2.0752,2.032,2.0304,2.0166,1.9767,1.838,1.7728,1.7679,1.7518,1.7464,1.7503,1.7323,1.7031,1.6637,1.638,1.612,1.5988,1.5412,1.5153,1.5119,1.5119,1.5119,1.5074,1.4983,1.4971,1.5074,1.4466,1.4129,1.3884,1.3515,1.3142,1.292,1.319,1.3372,1.3515,1.3515,1.3238,1.3065,1.32,1.3392,1.3621,1.4129,1.4731,1.5108,1.5379,1.5691,1.578,1.5925,1.62,1.6318,1.6392,1.6436,1.6479,1.6479,1.6534,1.6534,1.6534,1.6534,1.6491,1.6436,1.6399,1.6372,1.6593,1.6414,-0.7279,-0.5422,-0.416,-0.2394,-0.0401,0.1152,0.3066,0.5274,0.7154,0.9159,1.1231,1.2984,1.465,1.6065,1.6942,1.8081,1.9279,1.9038,1.9884,2.0759,2.1371,2.1429,2.154,2.1442,2.1768,2.2141,2.2418,2.2745,2.3275,2.3997,2.4327,2.4645,2.5231,2.5492,2.5586,2.5576,2.5492,2.5382,2.5236,2.5077,2.4864,2.4666,2.4264,2.372,2.3437,2.3215,2.2917,2.2426,2.21,2.233,2.1744,2.1168,2.0624,2.0566,2.0358,1.9803,1.9137,1.8259,1.7472,1.7555,1.7569,1.7308,1.7199,1.6989,1.6539,1.6107,1.58,1.5712,1.5322,1.5153,1.5119,1.5119,1.5074,1.4983,1.4754,1.4754,1.4686,1.4025,1.3552,1.3873,1.3344,1.2978,1.2968,1.3104,1.3238,1.319,1.319,1.3104,1.2978,1.3027,1.321,1.344,1.4082,1.4858,1.513,1.5412,1.568,1.5913,1.61,1.6287,1.6405,1.6491,1.6491,1.6534,1.6534,1.6534,1.6534,1.6534,1.6547,1.6479,1.6436,1.6411,1.6416,1.6846,1.6904,-0.7272,-0.5449,-0.4335,-0.2623,-0.0744,0.028,0.1991,0.4312,0.5916,0.8009,1.0381,1.2341,1.4058,1.568,1.6855,1.7891,1.8774,1.939,2.0558,2.1977,2.2634,2.3024,2.2986,2.2428,2.2321,2.2922,2.3329,2.3847,2.4593,2.4865,2.5232,2.5312,2.5347,2.5512,2.551,2.5456,2.5395,2.5255,2.5102,2.4911,2.4678,2.4456,2.408,2.35,2.3042,2.2321,2.1678,2.1376,2.1607,2.2056,2.2048,2.1866,2.1811,2.1818,2.1738,2.1427,2.0603,1.9252,1.7764,1.7689,1.7768,1.7209,1.6892,1.6582,1.6051,1.5844,1.5534,1.5322,1.5153,1.5119,1.5119,1.5119,1.4983,1.4754,1.4569,1.4373,1.4176,1.3742,1.3552,1.3695,1.3382,1.2891,1.2891,1.3008,1.2998,1.2929,1.2959,1.2998,1.2959,1.2939,1.3113,1.3392,1.4176,1.4903,1.5175,1.5501,1.5869,1.6044,1.6231,1.6374,1.6448,1.6534,1.6534,1.6534,1.6534,1.6534,1.6534,1.6622,1.666,1.6541,1.6541,1.6735,1.6945,1.7245,1.7495,-0.6969,-0.4981,-0.3846,-0.2318,-0.0617,0.0048,0.1391,0.3273,0.4903,0.6952,0.9316,1.1389,1.3356,1.5229,1.6735,1.78,1.8531,1.9893,2.1207,2.2373,2.3064,2.362,2.4007,2.3592,2.354,2.4054,2.4302,2.4812,2.5233,2.5469,2.5505,2.5538,2.5454,2.5374,2.5356,2.5293,2.5192,2.5072,2.4924,2.4747,2.454,2.4247,2.3945,2.3437,2.279,2.1957,2.1119,2.1609,2.1998,2.2347,2.2586,2.2727,2.2849,2.2768,2.2526,2.1755,2.1264,1.9926,1.8571,1.7865,1.7583,1.7041,1.665,1.625,1.5888,1.5668,1.549,1.5198,1.5119,1.5119,1.5074,1.4686,1.4558,1.4569,1.4233,1.3941,1.3705,1.3382,1.3334,1.3563,1.3238,1.2978,1.29,1.3008,1.3379,1.3535,1.3555,1.3567,1.3263,1.3243,1.327,1.3621,1.4362,1.4915,1.5187,1.5546,1.6088,1.6231,1.6275,1.6405,1.6491,1.6534,1.6534,1.6534,1.6534,1.6534,1.6547,1.6647,1.6722,1.6641,1.6742,1.7137,1.7493,1.779,1.7921,-0.6554,-0.4336,-0.3237,-0.1823,-0.0389,0.015,0.114,0.2562,0.3983,0.5963,0.821,1.0364,1.2522,1.4619,1.6583,1.7693,1.8769,2.0104,2.1513,2.247,2.3206,2.379,2.4207,2.4463,2.4617,2.4898,2.5028,2.5274,2.5365,2.5508,2.5499,2.5457,2.5316,2.5244,2.5175,2.5107,2.5031,2.4883,2.4945,2.4834,2.4615,2.4275,2.3949,2.3294,2.284,2.2049,2.1567,2.1953,2.257,2.2619,2.2961,2.3214,2.3377,2.326,2.248,2.0871,2.0476,1.9756,1.8826,1.8029,1.732,1.6744,1.6306,1.6001,1.5724,1.5579,1.54,1.5244,1.5119,1.5119,1.5062,1.4536,1.4323,1.4378,1.4026,1.3672,1.3458,1.3244,1.3421,1.3478,1.3371,1.3126,1.3135,1.3252,1.375,1.416,1.416,1.4062,1.374,1.3618,1.3711,1.4139,1.4927,1.574,1.6021,1.5664,1.6154,1.6759,1.6716,1.6648,1.6685,1.6559,1.6559,1.6534,1.6534,1.6534,1.6572,1.6685,1.6735,1.6704,1.6854,1.7149,1.7677,1.8257,1.8387,-0.6528,-0.4529,-0.3172,-0.172,-0.0364,0.021,0.1183,0.2491,0.3471,0.5304,0.7792,0.9693,1.1874,1.4082,1.6268,1.7958,1.9375,2.0586,2.1553,2.2539,2.3276,2.3913,2.4576,2.4858,2.5038,2.5206,2.5321,2.5399,2.5408,2.5406,2.5446,2.537,2.5168,2.5065,2.5053,2.4987,2.4874,2.4787,2.5005,2.5041,2.486,2.4671,2.4094,2.329,2.2926,2.2442,2.1929,2.2139,2.2486,2.2559,2.2298,2.2454,2.2685,2.2873,2.2077,2.0882,1.9634,1.8851,1.8494,1.7965,1.7251,1.6703,1.6064,1.5724,1.5546,1.5367,1.5232,1.5198,1.5119,1.5119,1.5062,1.4496,1.427,1.435,1.4194,1.3903,1.3919,1.3939,1.3809,1.3797,1.3547,1.335,1.3447,1.3682,1.4228,1.4541,1.4505,1.435,1.4111,1.409,1.4262,1.486,1.5604,1.6397,1.7026,1.6394,1.6329,1.7306,1.7468,1.718,1.7074,1.6722,1.6609,1.6848,1.671,1.6534,1.6609,1.6748,1.681,1.6873,1.7011,1.7212,1.7869,1.8546,1.8685,-0.6228,-0.3797,-0.2387,-0.1096,0.0,0.0652,0.1544,0.2679,0.3622,0.5341,0.7641,0.9802,1.1953,1.4198,1.6225,1.8243,1.9982,2.0766,2.1792,2.2906,2.35,2.4112,2.4829,2.5075,2.5277,2.5432,2.5512,2.5525,2.5503,2.5442,2.5382,2.5277,2.5046,2.4891,2.4869,2.479,2.4654,2.4622,2.4781,2.4982,2.4964,2.498,2.4419,2.3687,2.3365,2.3094,2.2666,2.2678,2.2681,2.2483,2.2609,2.2673,2.2474,2.1983,2.152,2.0571,1.8776,1.7517,1.7523,1.7077,1.6729,1.6162,1.5635,1.5367,1.5334,1.5198,1.5119,1.5108,1.5119,1.5119,1.5074,1.481,1.4673,1.4476,1.4264,1.4113,1.4208,1.4512,1.4482,1.4268,1.4033,1.3877,1.3789,1.415,1.4717,1.4922,1.4885,1.47,1.4492,1.4592,1.48,1.5902,1.6596,1.6822,1.7435,1.7015,1.69,1.7815,1.8267,1.7978,1.7551,1.7225,1.73,1.7526,1.7225,1.6773,1.6823,1.7036,1.7024,1.7162,1.779,1.8269,1.8471,1.8734,1.8867,-0.5731,-0.2945,-0.1583,-0.0483,0.0486,0.1108,0.1902,0.279,0.3947,0.5666,0.7751,1.0019,1.2262,1.4507,1.6703,1.8809,2.0895,2.1287,2.2279,2.3336,2.3859,2.4385,2.4952,2.5287,2.5432,2.5542,2.5604,2.5638,2.551,2.5425,2.5335,2.5168,2.4917,2.4708,2.4636,2.451,2.4374,2.4303,2.4335,2.4572,2.495,2.52,2.4919,2.4049,2.398,2.3738,2.3064,2.3134,2.2803,2.2503,2.2569,2.2805,2.2243,2.1322,2.0848,2.0479,1.7956,1.6522,1.609,1.6251,1.614,1.5748,1.5334,1.5153,1.5108,1.5153,1.5119,1.5062,1.4651,1.4818,1.5061,1.5213,1.507,1.4749,1.4415,1.4238,1.4551,1.4863,1.5049,1.4834,1.4561,1.4443,1.4424,1.4531,1.5078,1.5166,1.5176,1.5195,1.5,1.5088,1.5553,1.6915,1.7635,1.7516,1.7604,1.7557,1.7787,1.8647,1.897,1.8857,1.8304,1.779,1.789,1.7877,1.7652,1.7275,1.7313,1.74,1.7526,1.7953,1.8832,1.9158,1.892,1.8933,1.9111,-0.495,-0.2737,-0.1422,-0.0333,0.0722,0.1452,0.2125,0.2845,0.4275,0.5878,0.7816,1.0019,1.2455,1.5066,1.7781,1.9867,2.1207,2.1978,2.2695,2.3704,2.4267,2.474,2.5232,2.5401,2.5512,2.558,2.5598,2.5528,2.5435,2.5343,2.5207,2.5012,2.4799,2.4607,2.4388,2.4229,2.4001,2.4003,2.437,2.4848,2.527,2.5616,2.5156,2.4511,2.421,2.3999,2.3281,2.32,2.2879,2.2172,2.17,2.1598,2.141,2.1055,2.1287,2.0604,1.8675,1.5925,1.5574,1.5621,1.5828,1.5608,1.5347,1.5176,1.5234,1.5246,1.5246,1.5062,1.4153,1.4134,1.5067,1.5352,1.528,1.5016,1.4653,1.4714,1.5029,1.5068,1.5264,1.5293,1.498,1.5068,1.5127,1.5234,1.5361,1.5391,1.542,1.542,1.5642,1.5864,1.6368,1.7751,1.8367,1.8258,1.8286,1.8128,1.8474,1.9384,1.9472,1.9497,1.8957,1.8367,1.8003,1.7953,1.7827,1.7965,1.8141,1.8216,1.8204,1.8442,1.8957,1.9058,1.8945,1.9118,1.9466,-0.3455,-0.1857,-0.0555,0.0391,0.1119,0.1958,0.2681,0.3508,0.5039,0.6587,0.8358,1.0789,1.3722,1.6667,1.9046,2.0522,2.1674,2.2384,2.3102,2.3897,2.4559,2.5032,2.5331,2.548,2.5543,2.556,2.5508,2.5389,2.5318,2.5206,2.5088,2.4864,2.462,2.4425,2.4211,2.4001,2.4127,2.4487,2.5131,2.5674,2.6004,2.6295,2.6228,2.5464,2.5248,2.4516,2.3686,2.3271,2.2642,2.1818,2.1278,2.0982,2.0302,1.9435,1.8932,1.8946,1.7055,1.5774,1.5915,1.5568,1.5602,1.573,1.5637,1.5602,1.567,1.5784,1.5681,1.529,1.4727,1.4763,1.5186,1.5391,1.5407,1.5233,1.4949,1.5034,1.5254,1.5322,1.5391,1.541,1.542,1.542,1.542,1.541,1.5391,1.54,1.5468,1.5526,1.6197,1.7034,1.7644,1.8596,1.8887,1.8906,1.8973,1.899,1.9057,1.9648,1.9648,1.961,1.9384,1.8957,1.8593,1.853,1.8681,1.8832,1.8995,1.8882,1.8719,1.8794,1.892,1.9208,1.9471,1.9713,2.0104,-0.1944,-0.0726,0.0447,0.1174,0.1625,0.2569,0.3236,0.3901,0.5688,0.7186,0.8975,1.1789,1.529,1.8176,1.9832,2.1053,2.2169,2.2838,2.3524,2.4197,2.4752,2.517,2.5386,2.5503,2.5556,2.5554,2.537,2.5277,2.5178,2.501,2.4812,2.4723,2.4489,2.4229,2.404,2.3852,2.3885,2.4417,2.5557,2.6063,2.6191,2.6722,2.659,2.6229,2.5766,2.5094,2.3944,2.2902,2.1939,2.1576,2.0775,2.0215,1.9222,1.8011,1.7613,1.7471,1.6219,1.5868,1.6313,1.6359,1.5923,1.5946,1.6095,1.6141,1.631,1.6562,1.6269,1.5449,1.6048,1.578,1.5536,1.542,1.5409,1.538,1.536,1.5381,1.542,1.542,1.542,1.542,1.542,1.542,1.542,1.542,1.541,1.541,1.5468,1.5642,1.6585,1.7754,1.8429,1.904,1.9121,1.9165,1.9178,1.9399,1.9643,1.9798,1.9798,1.9635,1.9371,1.9346,1.9183,1.9258,1.9384,1.9409,1.9397,1.9309,1.9233,1.9346,1.951,1.9874,2.0185,2.0395,2.0809,-0.0778,0.0614,0.1281,0.1785,0.2238,0.3411,0.391,0.4184,0.5964,0.7553,0.938,1.2933,1.6453,1.8768,2.0313,2.1619,2.2833,2.3523,2.3989,2.4475,2.496,2.5299,2.5456,2.5527,2.5542,2.544,2.526,2.5157,2.505,2.4704,2.4572,2.4476,2.4283,2.4023,2.3889,2.3786,2.3848,2.4462,2.5564,2.6025,2.599,2.6168,2.6179,2.5556,2.5307,2.495,2.3952,2.25,2.153,2.1384,2.0443,1.9475,1.8567,1.7046,1.6715,1.6799,1.6417,1.6489,1.7368,1.7231,1.6791,1.6658,1.66,1.6715,1.6974,1.6773,1.6286,1.5894,1.681,1.6662,1.5979,1.542,1.542,1.542,1.542,1.542,1.542,1.542,1.542,1.542,1.542,1.542,1.5478,1.5478,1.5584,1.5584,1.6312,1.6482,1.7101,1.8104,1.8709,1.9198,1.9316,1.9291,1.9121,1.9344,1.9695,1.9798,1.9798,1.956,1.9271,1.9346,1.9723,1.9648,1.9698,1.9761,1.9773,1.9648,1.9623,1.9836,2.0037,2.0162,2.069,2.1119,2.1634,-0.0265,0.0865,0.2322,0.2848,0.2796,0.3852,0.4298,0.4677,0.6558,0.9167,1.1789,1.4938,1.7461,1.9351,2.0893,2.2101,2.313,2.3797,2.4271,2.474,2.5172,2.5435,2.5519,2.5494,2.5459,2.5298,2.5077,2.4879,2.4714,2.4458,2.4155,2.404,2.3963,2.3803,2.3688,2.3996,2.4392,2.4826,2.5747,2.6332,2.6283,2.5849,2.5725,2.5556,2.4799,2.4433,2.3692,2.2722,2.1895,2.1152,2.0371,1.9544,1.8503,1.6843,1.6255,1.6731,1.6508,1.7559,1.8322,1.7908,1.7117,1.7151,1.7105,1.7255,1.7592,1.7523,1.7413,1.7423,1.7457,1.7,1.5816,1.542,1.542,1.542,1.542,1.542,1.542,1.542,1.542,1.542,1.5478,1.5536,1.5536,1.5526,1.57,1.5874,1.6652,1.7379,1.7941,1.8441,1.9028,1.9356,1.946,1.9512,1.9396,1.9604,1.9823,1.9874,1.9899,1.9811,1.9736,2.0012,2.0288,2.015,2.0062,2.0175,2.0162,1.9962,1.9936,2.0024,2.0087,2.0175,2.084,2.1744,2.2255,0.0255,0.1199,0.2921,0.352,0.3463,0.4333,0.4794,0.5226,0.7095,1.0229,1.4003,1.5941,1.7943,1.9714,2.1111,2.2401,2.332,2.4045,2.4505,2.4949,2.5304,2.5503,2.5527,2.5467,2.5363,2.5139,2.4924,2.4708,2.4601,2.4284,2.4001,2.3738,2.3562,2.345,2.359,2.4217,2.4804,2.5129,2.5766,2.6421,2.6286,2.5948,2.5379,2.5319,2.4608,2.4155,2.3488,2.2652,2.1872,2.1282,2.0709,2.0074,1.8904,1.7702,1.6443,1.6535,1.7266,1.8536,1.8672,1.8353,1.7484,1.7588,1.7829,1.7955,1.8027,1.8084,1.7797,1.7435,1.7357,1.6775,1.542,1.542,1.542,1.542,1.542,1.542,1.542,1.542,1.542,1.542,1.5478,1.5536,1.6009,1.6181,1.6931,1.7078,1.7523,1.8135,1.8536,1.9028,1.9396,1.9604,1.9604,1.9708,1.9759,2.0035,2.0338,2.0439,2.0476,2.0514,2.0552,2.0778,2.0781,2.0476,2.0451,2.0668,2.0539,2.0338,2.02,2.0112,2.0351,2.0702,2.1506,2.2359,2.2573,0.0903,0.1709,0.2766,0.3439,0.3819,0.4837,0.534,0.5742,0.7653,1.0623,1.4233,1.5868,1.7841,1.9888,2.1171,2.2444,2.3642,2.4271,2.4707,2.512,2.5399,2.5496,2.5476,2.5401,2.5266,2.4996,2.4776,2.4636,2.4591,2.406,2.3741,2.3526,2.3265,2.306,2.3047,2.348,2.3896,2.432,2.5111,2.5544,2.5865,2.576,2.5271,2.4823,2.4182,2.3759,2.3435,2.2439,2.1798,2.1738,2.0937,2.0289,1.961,1.9193,1.8378,1.7882,1.8224,1.8421,1.8193,1.8116,1.8173,1.807,1.8185,1.8368,1.8153,1.803,1.7689,1.719,1.6332,1.5816,1.542,1.542,1.542,1.542,1.542,1.5527,1.5537,1.5625,1.5664,1.5742,1.5625,1.5604,1.6306,1.6998,1.8043,1.8457,1.8643,1.891,1.9158,1.9408,1.9656,1.9708,1.972,1.9922,2.01,2.0523,2.0799,2.0911,2.0949,2.0991,2.1129,2.1343,2.1179,2.0853,2.0941,2.1192,2.0978,2.0715,2.079,2.0928,2.1167,2.1594,2.2359,2.2765,2.2877,0.1134,0.1839,0.2904,0.3562,0.3877,0.458,0.5218,0.6211,0.882,1.1895,1.4777,1.6635,1.845,2.0269,2.1697,2.2876,2.3934,2.4439,2.4866,2.5328,2.5485,2.5526,2.5495,2.5363,2.5178,2.4898,2.4678,2.4425,2.4192,2.3819,2.3522,2.3265,2.29,2.2703,2.2823,2.3181,2.3671,2.4286,2.4863,2.5289,2.5721,2.5253,2.4777,2.444,2.379,2.3474,2.345,2.2305,2.2119,2.2021,2.1199,2.0611,2.0118,1.9695,1.8999,1.8959,1.945,2.0208,1.9326,1.8858,1.9192,1.8654,1.8368,1.846,1.8107,1.8084,1.7512,1.6684,1.5914,1.5498,1.542,1.543,1.543,1.542,1.5478,1.5732,1.585,1.5986,1.6084,1.6262,1.6255,1.6901,1.755,1.8157,1.9083,1.948,1.957,1.9356,1.9466,1.9602,1.9759,1.9759,1.9849,2.0075,2.0376,2.1016,2.1305,2.1355,2.1355,2.133,2.1531,2.1882,2.1845,2.1631,2.1694,2.1757,2.1594,2.1506,2.1694,2.1882,2.1983,2.2159,2.2698,2.2987,2.305,0.1406,0.1998,0.2976,0.3487,0.3715,0.4385,0.5553,0.7389,1.022,1.3007,1.556,1.7463,1.9221,2.0842,2.2209,2.3408,2.4321,2.4685,2.5041,2.5493,2.5529,2.5544,2.5481,2.5333,2.5075,2.4799,2.457,2.4338,2.4114,2.3756,2.3341,2.2892,2.2525,2.2309,2.2389,2.2651,2.2976,2.3566,2.4033,2.4669,2.5069,2.5028,2.4694,2.4365,2.3882,2.3485,2.3084,2.2768,2.2388,2.2002,2.1479,2.0858,2.0283,1.9579,1.904,1.9443,2.0013,2.0617,1.9899,1.9703,1.9587,1.8475,1.8552,1.8531,1.8396,1.8521,1.7843,1.6971,1.5969,1.5527,1.5439,1.5459,1.582,1.583,1.5811,1.6074,1.6269,1.6416,1.6628,1.6809,1.7225,1.7995,1.8857,1.9529,2.0277,2.0385,2.0481,2.0196,1.9871,1.9967,2.0162,2.0238,2.0275,2.0539,2.1004,2.1631,2.182,2.1782,2.182,2.1882,2.2146,2.251,2.246,2.2359,2.2196,2.2121,2.2272,2.2334,2.2422,2.2485,2.256,2.2786,2.31,2.3175,2.3213,0.1701,0.2188,0.2904,0.3268,0.3443,0.4598,0.6721,0.9529,1.1652,1.3882,1.6296,1.8096,1.9793,2.135,2.2534,2.3595,2.4534,2.4927,2.5243,2.5488,2.5566,2.5542,2.5393,2.5177,2.4917,2.4704,2.4493,2.4248,2.4132,2.3817,2.326,2.2708,2.2479,2.2262,2.2195,2.2269,2.2481,2.29,2.347,2.4083,2.4527,2.5099,2.4744,2.4399,2.4024,2.3503,2.2979,2.2402,2.2123,2.1732,2.1286,2.0782,2.0181,1.9436,1.9186,1.9125,1.9551,2.0107,2.0421,2.041,1.9936,1.9103,1.9541,1.9181,1.8742,1.865,1.8115,1.7298,1.6422,1.586,1.5469,1.6055,1.6611,1.6494,1.6338,1.6514,1.6728,1.6909,1.7169,1.7526,1.7989,1.8768,1.9923,2.072,2.1238,2.1272,2.13,2.1244,2.0957,2.0619,2.0803,2.1041,2.1091,2.1154,2.1631,2.2171,2.2385,2.2359,2.2598,2.2711,2.2902,2.289,2.2811,2.2636,2.2447,2.2435,2.2598,2.2811,2.2965,2.3027,2.315,2.3037,2.3226,2.3339,2.3341,0.1966,0.2188,0.3164,0.3653,0.416,0.6197,0.8494,1.0757,1.2639,1.4867,1.7464,1.8731,2.0369,2.1921,2.2934,2.3896,2.4555,2.5042,2.5279,2.5458,2.5533,2.545,2.531,2.5083,2.4785,2.4572,2.4393,2.4281,2.397,2.3774,2.3448,2.2891,2.2748,2.2578,2.2413,2.2481,2.2408,2.2557,2.3074,2.3681,2.4143,2.4716,2.4427,2.4017,2.3794,2.3246,2.2586,2.2278,2.1983,2.1636,2.1237,2.0782,2.051,1.9901,1.9408,1.8635,1.9446,2.0452,2.0757,2.128,2.0961,1.9818,1.998,1.9279,1.8663,1.8316,1.8224,1.7604,1.713,1.667,1.623,1.6514,1.7061,1.7197,1.6982,1.6865,1.7135,1.7521,1.7795,1.8454,1.8988,1.9817,2.095,2.1773,2.2204,2.2147,2.2126,2.2026,2.187,2.1506,2.1455,2.1707,2.1694,2.1707,2.2071,2.2585,2.2739,2.2915,2.3027,2.3125,2.3088,2.3037,2.3012,2.2962,2.2862,2.2862,2.2924,2.3201,2.3478,2.3678,2.3728,2.3489,2.3351,2.3577,2.3753,0.2586,0.3075,0.3869,0.4726,0.5893,0.7874,0.9943,1.2019,1.3707,1.5986,1.8619,1.9909,2.1226,2.2639,2.3557,2.4328,2.4937,2.5182,2.5378,2.5507,2.552,2.5687,2.5534,2.5246,2.5209,2.5013,2.4949,2.4866,2.4473,2.401,2.3691,2.3006,2.3055,2.2571,2.2223,2.2172,2.2176,2.2346,2.2726,2.349,2.3984,2.4209,2.3846,2.355,2.3377,2.2875,2.2263,2.2091,2.1759,2.1506,2.1104,2.0709,2.0576,2.0257,1.9883,1.9396,2.0457,2.1068,2.1307,2.1913,2.1268,2.0565,2.0254,1.9769,1.8918,1.8294,1.8229,1.8002,1.7869,1.7656,1.7217,1.6934,1.7441,1.791,1.7568,1.7236,1.7615,1.8102,1.8744,1.9477,2.0169,2.0945,2.1798,2.264,2.3027,2.2777,2.2664,2.2652,2.246,2.2108,2.2146,2.2372,2.2272,2.2196,2.2527,2.279,2.2902,2.3015,2.304,2.3125,2.3125,2.3125,2.31,2.3213,2.3278,2.3351,2.3389,2.3753,2.4079,2.4192,2.4293,2.4205,2.4104,2.4192,2.4318,0.3385,0.4316,0.4966,0.621,0.7967,0.9245,1.1104,1.331,1.5006,1.714,1.961,2.1138,2.227,2.3319,2.4143,2.4688,2.512,2.5336,2.5449,2.564,2.5698,2.5876,2.5915,2.5628,2.5662,2.6096,2.6076,2.5451,2.5548,2.5007,2.4074,2.3162,2.2802,2.2557,2.2394,2.2371,2.2425,2.2521,2.2764,2.3258,2.3671,2.3739,2.3508,2.3374,2.3172,2.2891,2.2249,2.1807,2.1471,2.1264,2.097,2.0472,2.0425,2.046,2.0122,2.0543,2.1369,2.1463,2.1646,2.2087,2.1513,2.0938,2.0752,2.0312,1.9548,1.879,1.8706,1.8253,1.7996,1.792,1.7568,1.7461,1.7803,1.8104,1.8051,1.7949,1.8217,1.8771,1.9489,2.027,2.119,2.1898,2.2408,2.3153,2.329,2.314,2.3165,2.3263,2.3088,2.2736,2.2811,2.3,2.2689,2.2577,2.2811,2.3025,2.3062,2.3125,2.3138,2.3125,2.3125,2.315,2.3188,2.3489,2.3828,2.3828,2.3916,2.4217,2.4443,2.4594,2.472,2.4883,2.4921,2.4958,2.4908,0.3961,0.4657,0.5973,0.7259,0.8561,1.0118,1.2171,1.4614,1.673,1.8268,1.9636,2.1022,2.2415,2.3768,2.4464,2.4995,2.5376,2.5621,2.5544,2.5873,2.6036,2.6359,2.6441,2.6348,2.6243,2.5892,2.5829,2.6015,2.5851,2.5351,2.4886,2.4431,2.3734,2.3129,2.3183,2.3161,2.298,2.293,2.2742,2.2823,2.2998,2.3211,2.3156,2.3039,2.2889,2.2709,2.2137,2.1698,2.1348,2.1104,2.0673,2.0321,1.999,2.0076,2.0903,2.1881,2.1602,2.1522,2.1758,2.1939,2.1584,2.1209,2.0928,2.0762,2.0335,1.9693,1.9069,1.8527,1.8144,1.8076,1.8037,1.8105,1.8203,1.8387,1.8529,1.8674,1.8818,1.9539,2.0248,2.1167,2.2143,2.2795,2.3245,2.3341,2.3441,2.3627,2.374,2.3778,2.369,2.3464,2.3477,2.3527,2.3103,2.3002,2.315,2.3175,2.3128,2.3128,2.3128,2.3103,2.3163,2.3389,2.3627,2.4029,2.433,2.4255,2.4268,2.4481,2.4707,2.4921,2.5247,2.5448,2.5737,2.5837,2.5674,0.4705,0.5556,0.691,0.8448,0.9916,1.1131,1.293,1.5206,1.7475,1.9093,2.0303,2.1803,2.3214,2.4257,2.479,2.5401,2.5835,2.6065,2.6442,2.6699,2.6746,2.7122,2.718,2.7059,2.7173,2.6826,2.6716,2.6711,2.6311,2.5569,2.5163,2.5029,2.4331,2.3761,2.3922,2.3622,2.35,2.3485,2.287,2.263,2.2509,2.2601,2.2772,2.2688,2.2768,2.2569,2.2077,2.163,2.1377,2.1149,2.0875,2.0297,2.0076,2.0225,2.0702,2.1151,2.1185,2.1205,2.1549,2.1815,2.1901,2.1561,2.1399,2.1358,2.0587,1.9929,1.9349,1.8787,1.8212,1.8018,1.8429,1.8547,1.8953,1.9231,1.9276,1.9348,1.9799,2.0435,2.1308,2.2268,2.3299,2.4357,2.4467,2.3841,2.3917,2.3904,2.4054,2.4092,2.4042,2.4268,2.4268,2.4205,2.3929,2.3389,2.3138,2.314,2.3228,2.3215,2.3253,2.3414,2.354,2.3828,2.4117,2.4531,2.4707,2.4519,2.4594,2.487,2.5059,2.5272,2.5661,2.6063,2.6314,2.6521,2.6214,0.5713,0.6813,0.8031,0.9663,1.1542,1.227,1.3739,1.5816,1.799,1.9901,2.1532,2.3283,2.4393,2.4892,2.5318,2.5951,2.6444,2.6684,2.7205,2.7344,2.7611,2.778,2.7756,2.7662,2.7754,2.7651,2.7467,2.7361,2.7178,2.6279,2.5564,2.528,2.4529,2.3659,2.3571,2.3484,2.3503,2.3284,2.2948,2.2848,2.2543,2.2234,2.2431,2.2703,2.2917,2.2704,2.2119,2.1718,2.1469,2.1079,2.0797,2.0281,2.0049,2.0135,1.9703,1.997,2.0544,2.0909,2.1522,2.2025,2.2085,2.2103,2.2063,2.177,2.0986,2.0318,1.9737,1.9385,1.8798,1.8537,1.8954,1.9353,1.9786,2.011,2.0128,2.0356,2.0963,2.159,2.2509,2.3393,2.4398,2.5557,2.4931,2.4317,2.4418,2.4343,2.4305,2.428,2.4406,2.4883,2.5146,2.5121,2.4983,2.4343,2.3514,2.3203,2.3328,2.3541,2.3678,2.3778,2.3941,2.4217,2.4569,2.5034,2.5109,2.4908,2.5071,2.5385,2.5536,2.5548,2.5937,2.6276,2.6339,2.6521,2.6521,0.7203,0.8591,0.9644,1.0893,1.2342,1.3632,1.5386,1.7423,1.96,2.1522,2.2915,2.4241,2.517,2.5277,2.5921,2.6355,2.6437,2.7019,2.6947,2.683,2.7951,2.8244,2.826,2.8162,2.8084,2.7751,2.7303,2.6956,2.7012,2.6505,2.6013,2.5595,2.4756,2.4349,2.4519,2.423,2.3723,2.3529,2.3283,2.3122,2.3134,2.284,2.2568,2.2848,2.323,2.2621,2.2069,2.1799,2.1319,2.0745,2.0335,2.0078,1.9949,1.9957,1.9454,1.9474,1.997,2.1068,2.181,2.2356,2.2525,2.2603,2.2616,2.2636,2.1891,2.122,2.0887,2.1065,2.0498,1.9849,2.0083,2.044,2.0849,2.1246,2.1381,2.1924,2.2587,2.3219,2.3978,2.4607,2.5249,2.5197,2.4318,2.433,2.5059,2.5021,2.5046,2.5021,2.4971,2.546,2.5937,2.5887,2.5824,2.5071,2.4142,2.3552,2.3478,2.3803,2.4142,2.4418,2.4594,2.4632,2.4996,2.5385,2.5448,2.5297,2.5548,2.5548,2.5699,2.5737,2.6126,2.6402,2.6521,2.659,2.6703]}]]